[[{"header":{"parameterUnit":"m.s-1","parameterCategory":1,"la1":30.6,"la2":29.2853,"lo1":-89.7004,"lo2":-87.6739,"dx":0.0162,"dy":0.0183,"nx":112,"ny":82,"refTime":"2023-01-31T18:00:00:Z","depth":0,"parameterNumber":2,"parameterNumberName":"U-component_of_WINDS"},"data":[0.0,0.0,0.0,0.0,0.0,0.0,0.0,0.0,0.0,0.0,0.0,0.0,0.0,0.0,0.0,0.0,0.0,0.0,0.0,0.0,0.0,0.0,0.0,0.0,0.0,0.0,0.0,0.0,0.0,0.0,0.0,0.0,0.0,0.0,0.0,0.0,0.0,0.0,0.0,0.0,0.0,0.0,0.0,0.0,0.0,0.0,0.0,0.0,0.0,0.0,0.0,0.0,0.0,0.0,0.0,0.0,0.0,0.0,0.0,0.0,0.0,0.0,0.0,0.0,0.0,0.0,0.0,0.0,0.0,0.0,0.0,0.0,0.0,0.0,0.0,0.0,0.0,0.0,0.0,0.0,0.0,0.0,0.0,0.0,0.0,0.0,0.0,0.0,0.0,0.0,-1.8388,-1.8525,-1.9468,-2.0064,-1.9965,-1.8553,-1.7497,-1.7164,0.0,0.0,0.0,0.0,0.0,0.0,0.0,0.0,0.0,0.0,0.0,0.0,0.0,0.0,0.0,0.0,0.0,0.0,0.0,0.0,0.0,0.0,0.0,0.0,0.0,0.0,0.0,0.0,0.0,0.0,0.0,0.0,0.0,0.0,0.0,0.0,0.0,0.0,0.0,0.0,0.0,0.0,0.0,0.0,0.0,0.0,0.0,0.0,0.0,0.0,0.0,0.0,0.0,0.0,0.0,0.0,0.0,0.0,0.0,0.0,0.0,0.0,0.0,0.0,0.0,0.0,0.0,0.0,0.0,0.0,0.0,0.0,0.0,0.0,0.0,0.0,0.0,0.0,0.0,0.0,0.0,0.0,0.0,0.0,0.0,0.0,0.0,0.0,0.0,0.0,0.0,0.0,0.0,0.0,0.0,0.0,0.0,0.0,0.0,0.0,0.0,0.0,0.0,0.0,-1.8751,-1.9502,-1.9897,-1.9931,-1.9469,-1.8223,-1.7026,-1.6105,0.0,0.0,0.0,0.0,0.0,0.0,0.0,0.0,0.0,0.0,0.0,0.0,0.0,0.0,0.0,0.0,0.0,0.0,0.0,0.0,0.0,0.0,0.0,0.0,0.0,0.0,0.0,0.0,0.0,0.0,0.0,0.0,0.0,0.0,0.0,0.0,0.0,0.0,0.0,0.0,0.0,0.0,0.0,0.0,0.0,0.0,0.0,0.0,0.0,0.0,0.0,0.0,0.0,0.0,0.0,0.0,0.0,0.0,0.0,0.0,0.0,0.0,0.0,0.0,0.0,0.0,0.0,0.0,0.0,0.0,0.0,0.0,0.0,0.0,0.0,0.0,0.0,0.0,0.0,0.0,0.0,0.0,0.0,0.0,0.0,0.0,0.0,0.0,0.0,0.0,0.0,0.0,0.0,0.0,0.0,0.0,0.0,0.0,0.0,0.0,0.0,0.0,0.0,-1.7562,-1.8377,-1.8781,-1.9268,-1.9304,-1.8654,-1.769,-1.6759,-1.5868,-1.5133,0.0,0.0,0.0,0.0,0.0,0.0,0.0,0.0,0.0,0.0,0.0,0.0,0.0,0.0,0.0,0.0,0.0,0.0,0.0,0.0,0.0,0.0,0.0,0.0,0.0,0.0,0.0,0.0,0.0,0.0,0.0,0.0,0.0,0.0,0.0,0.0,0.0,0.0,0.0,0.0,0.0,0.0,0.0,0.0,0.0,0.0,0.0,0.0,0.0,0.0,0.0,0.0,0.0,0.0,0.0,0.0,0.0,0.0,0.0,0.0,0.0,0.0,0.0,0.0,0.0,0.0,0.0,0.0,0.0,0.0,0.0,0.0,0.0,0.0,0.0,0.0,0.0,0.0,0.0,0.0,0.0,0.0,0.0,0.0,0.0,0.0,0.0,0.0,0.0,0.0,0.0,0.0,0.0,0.0,0.0,0.0,0.0,0.0,0.0,0.0,0.0,0.0,-1.6853,-1.7198,-1.7198,-1.7959,-1.8094,-1.7257,-1.6784,-1.6167,-1.5374,-1.474,0.0,0.0,0.0,0.0,0.0,0.0,0.0,0.0,0.0,0.0,0.0,0.0,0.0,0.0,0.0,0.0,0.0,0.0,0.0,0.0,0.0,0.0,0.0,0.0,0.0,0.0,0.0,0.0,0.0,0.0,0.0,0.0,0.0,0.0,0.0,0.0,0.0,0.0,0.0,0.0,0.0,0.0,0.0,0.0,0.0,0.0,0.0,0.0,0.0,0.0,0.0,0.0,0.0,0.0,0.0,0.0,0.0,0.0,0.0,0.0,0.0,0.0,0.0,0.0,0.0,0.0,0.0,0.0,0.0,0.0,0.0,0.0,0.0,0.0,0.0,0.0,0.0,0.0,0.0,0.0,0.0,0.0,0.0,0.0,0.0,0.0,0.0,0.0,0.0,0.0,0.0,0.0,0.0,0.0,0.0,0.0,0.0,0.0,0.0,0.0,0.0,0.0,-1.4816,-1.4851,-1.4851,-1.5842,-1.6053,-1.4922,-1.5128,-1.4931,-1.4008,-1.3899,0.0,0.0,0.0,0.0,0.0,0.0,0.0,0.0,0.0,0.0,0.0,0.0,0.0,0.0,0.0,0.0,0.0,0.0,0.0,0.0,0.0,0.0,0.0,0.0,0.0,0.0,0.0,0.0,0.0,0.0,0.0,0.0,0.0,0.0,0.0,0.0,0.0,0.0,0.0,0.0,0.0,0.0,0.0,0.0,0.0,0.0,0.0,0.0,0.0,0.0,0.0,0.0,0.0,0.0,0.0,0.0,0.0,0.0,0.0,0.0,0.0,0.0,0.0,0.0,0.0,0.0,0.0,0.0,0.0,0.0,0.0,0.0,0.0,0.0,0.0,0.0,0.0,0.0,0.0,0.0,0.0,0.0,0.0,0.0,0.0,0.0,0.0,0.0,0.0,0.0,0.0,0.0,0.0,0.0,0.0,0.0,0.0,0.0,0.0,0.0,0.0,0.0,-1.5013,-1.5166,0.0,-1.563,-1.5903,-1.5237,-1.529,-1.5073,-1.4403,0.0,0.0,0.0,0.0,0.0,0.0,0.0,0.0,0.0,0.0,0.0,0.0,0.0,0.0,0.0,0.0,0.0,0.0,0.0,0.0,0.0,0.0,0.0,0.0,0.0,0.0,0.0,0.0,0.0,0.0,0.0,0.0,0.0,0.0,0.0,0.0,0.0,0.0,0.0,0.0,0.0,0.0,0.0,0.0,0.0,0.0,0.0,0.0,0.0,0.0,0.0,0.0,0.0,0.0,0.0,0.0,0.0,0.0,0.0,0.0,0.0,0.0,0.0,0.0,0.0,0.0,0.0,0.0,0.0,0.0,0.0,0.0,0.0,0.0,0.0,0.0,0.0,0.0,0.0,0.0,0.0,0.0,0.0,0.0,0.0,0.0,0.0,0.0,0.0,0.0,0.0,0.0,0.0,0.0,0.0,0.0,0.0,0.0,0.0,0.0,0.0,0.0,-1.4034,-1.462,-1.4873,0.0,-1.4976,-1.5213,-1.4787,-1.4887,-1.4778,-1.4333,0.0,0.0,0.0,0.0,0.0,0.0,0.0,0.0,0.0,0.0,0.0,0.0,0.0,0.0,0.0,0.0,0.0,0.0,0.0,0.0,0.0,0.0,0.0,0.0,0.0,0.0,0.0,0.0,0.0,0.0,0.0,0.0,0.0,0.0,0.0,0.0,0.0,0.0,0.0,0.0,0.0,0.0,0.0,0.0,0.0,0.0,0.0,0.0,0.0,0.0,0.0,0.0,0.0,0.0,0.0,0.0,0.0,0.0,0.0,0.0,0.0,0.0,0.0,0.0,0.0,0.0,0.0,0.0,0.0,0.0,0.0,0.0,0.0,0.0,0.0,0.0,0.0,0.0,0.0,0.0,0.0,0.0,0.0,0.0,0.0,0.0,0.0,0.0,0.0,0.0,0.0,0.0,0.0,0.0,0.0,0.0,0.0,0.0,0.0,0.0,0.0,0.0,-1.2864,-1.3273,-1.3493,-1.3247,-1.3555,-1.3634,-1.3259,-1.3562,-1.3706,0.0,0.0,0.0,0.0,0.0,0.0,0.0,0.0,0.0,0.0,0.0,0.0,0.0,0.0,0.0,0.0,0.0,0.0,0.0,0.0,0.0,0.0,0.0,0.0,0.0,0.0,0.0,0.0,0.0,0.0,0.0,0.0,0.0,0.0,0.0,0.0,0.0,0.0,0.0,0.0,0.0,0.0,0.0,0.0,0.0,0.0,0.0,0.0,0.0,0.0,0.0,0.0,0.0,0.0,0.0,0.0,0.0,0.0,0.0,0.0,0.0,0.0,0.0,0.0,0.0,0.0,0.0,0.0,0.0,0.0,0.0,0.0,0.0,0.0,0.0,0.0,0.0,0.0,0.0,0.0,0.0,0.0,0.0,0.0,0.0,0.0,0.0,0.0,0.0,0.0,0.0,0.0,0.0,0.0,0.0,0.0,0.0,0.0,0.0,0.0,0.0,0.0,0.0,-1.312,-1.3227,-1.3347,-1.346,-1.3588,-1.3716,-1.3808,-1.3945,-1.4062,-1.4131,0.0,0.0,0.0,0.0,0.0,0.0,0.0,0.0,0.0,0.0,0.0,0.0,0.0,0.0,0.0,0.0,0.0,0.0,0.0,0.0,0.0,0.0,0.0,0.0,0.0,0.0,0.0,0.0,0.0,0.0,0.0,0.0,0.0,0.0,0.0,0.0,0.0,0.0,0.0,0.0,0.0,0.0,0.0,0.0,0.0,0.0,0.0,0.0,0.0,0.0,0.0,0.0,0.0,0.0,0.0,0.0,0.0,0.0,0.0,0.0,0.0,0.0,0.0,0.0,0.0,0.0,0.0,0.0,0.0,0.0,0.0,0.0,0.0,0.0,0.0,0.0,0.0,0.0,0.0,0.0,0.0,0.0,0.0,0.0,0.0,0.0,0.0,0.0,0.0,0.0,0.0,0.0,0.0,0.0,0.0,0.0,0.0,0.0,0.0,0.0,0.0,0.0,-1.3393,-1.3587,-1.3754,-1.3773,-1.378,-1.3895,-1.4075,-1.3743,-1.3603,-1.3717,0.0,0.0,0.0,0.0,0.0,0.0,0.0,0.0,0.0,0.0,0.0,0.0,0.0,0.0,0.0,0.0,0.0,0.0,0.0,0.0,0.0,0.0,0.0,0.0,0.0,0.0,0.0,0.0,0.0,0.0,0.0,0.0,0.0,0.0,0.0,0.0,0.0,0.0,0.0,0.0,0.0,0.0,0.0,0.0,0.0,0.0,0.0,0.0,0.0,0.0,0.0,0.0,0.0,0.0,0.0,0.0,0.0,0.0,0.0,0.0,0.0,0.0,0.0,0.0,0.0,0.0,0.0,0.0,0.0,0.0,0.0,0.0,0.0,0.0,0.0,0.0,0.0,0.0,0.0,0.0,0.0,0.0,0.0,0.0,0.0,0.0,0.0,0.0,0.0,0.0,0.0,0.0,0.0,0.0,0.0,0.0,0.0,0.0,0.0,0.0,0.0,0.0,-1.3589,-1.393,-1.4123,-1.3894,-1.3867,-1.3881,-1.3907,-1.3126,-1.2648,-1.2648,0.0,0.0,0.0,0.0,0.0,0.0,0.0,0.0,0.0,0.0,0.0,0.0,0.0,0.0,0.0,0.0,0.0,0.0,0.0,0.0,0.0,0.0,0.0,0.0,0.0,0.0,0.0,0.0,0.0,0.0,0.0,0.0,0.0,0.0,0.0,0.0,0.0,0.0,0.0,0.0,0.0,0.0,0.0,0.0,0.0,0.0,0.0,0.0,0.0,0.0,0.0,0.0,0.0,0.0,0.0,0.0,0.0,0.0,0.0,0.0,-1.6464,0.0,0.0,0.0,0.0,0.0,0.0,0.0,0.0,0.0,0.0,0.0,0.0,0.0,0.0,0.0,0.0,0.0,0.0,0.0,0.0,0.0,0.0,0.0,0.0,0.0,0.0,0.0,0.0,0.0,0.0,0.0,0.0,0.0,0.0,0.0,0.0,0.0,0.0,0.0,0.0,0.0,-1.2832,-1.2369,-1.2016,-1.2108,-1.2119,-1.2203,-1.2361,-1.2197,-1.2062,-1.2062,-1.09,0.0,0.0,0.0,0.0,0.0,0.0,0.0,0.0,0.0,0.0,0.0,0.0,0.0,0.0,0.0,0.0,0.0,0.0,0.0,0.0,0.0,0.0,0.0,0.0,0.0,0.0,0.0,0.0,0.0,0.0,0.0,0.0,0.0,0.0,0.0,0.0,0.0,0.0,0.0,0.0,0.0,0.0,0.0,0.0,0.0,0.0,0.0,0.0,0.0,0.0,0.0,0.0,0.0,0.0,0.0,0.0,0.0,0.0,0.0,0.0,-1.6297,0.0,0.0,0.0,0.0,0.0,0.0,0.0,0.0,0.0,0.0,0.0,0.0,0.0,0.0,0.0,0.0,0.0,0.0,0.0,0.0,0.0,0.0,0.0,0.0,0.0,0.0,0.0,0.0,0.0,0.0,0.0,0.0,0.0,0.0,0.0,0.0,0.0,0.0,0.0,0.0,-1.2259,-1.1888,-1.162,-1.1738,-1.1748,-1.1802,-1.1884,-1.1247,-1.0828,-1.0828,-0.9539,0.0,0.0,0.0,0.0,0.0,0.0,0.0,0.0,0.0,0.0,0.0,0.0,0.0,0.0,0.0,0.0,0.0,0.0,0.0,0.0,0.0,0.0,0.0,0.0,0.0,0.0,0.0,0.0,0.0,0.0,0.0,0.0,0.0,0.0,0.0,0.0,0.0,0.0,0.0,0.0,0.0,0.0,0.0,0.0,0.0,0.0,0.0,0.0,0.0,0.0,0.0,0.0,0.0,-1.4858,-1.5097,-1.5328,-1.5279,-1.4525,-1.3345,-1.4608,-1.4805,-1.4151,-1.4317,0.0,0.0,0.0,0.0,0.0,0.0,0.0,0.0,0.0,0.0,0.0,0.0,0.0,0.0,0.0,0.0,0.0,0.0,0.0,0.0,0.0,0.0,0.0,0.0,-0.5357,-0.5894,0.0,0.0,0.0,0.0,0.0,0.0,0.0,0.0,0.0,0.0,0.0,0.0,-1.1293,-1.1247,-1.117,-1.1164,-1.121,-1.1179,-1.1218,-1.0099,-0.9396,-0.9396,-0.8204,-0.7395,0.0,0.0,0.0,0.0,0.0,0.0,0.0,0.0,0.0,0.0,0.0,0.0,0.0,0.0,0.0,0.0,0.0,0.0,0.0,0.0,0.0,0.0,0.0,0.0,0.0,0.0,0.0,0.0,0.0,0.0,0.0,0.0,-1.4446,-1.426,0.0,0.0,0.0,0.0,0.0,0.0,0.0,0.0,0.0,0.0,0.0,0.0,0.0,-1.4387,-1.4182,-1.3378,-1.2891,-1.2638,-1.1617,-1.1195,-1.1327,-1.1187,-1.0844,-1.0428,-1.0644,0.0,-1.1118,-1.059,0.0,0.0,0.0,0.0,0.0,0.0,0.0,0.0,0.0,0.0,0.0,0.0,0.0,0.0,0.0,0.0,0.0,0.0,0.0,0.0,0.0,0.0,-0.4316,-0.3476,-0.3996,-0.4706,0.0,-0.5413,-0.5849,-0.6085,-0.6105,0.0,0.0,0.0,0.0,0.0,0.0,0.0,-0.9161,-0.8567,-0.8157,-0.8339,-0.8353,-0.8408,-0.8505,-0.8322,-0.8224,-0.8224,-0.7712,-0.7401,-0.7353,-0.7279,0.0,0.0,0.0,0.0,0.0,0.0,0.0,0.0,0.0,0.0,0.0,0.0,0.0,0.0,0.0,0.0,0.0,0.0,0.0,0.0,0.0,0.0,0.0,0.0,0.0,0.0,0.0,0.0,0.0,-1.3824,-1.3643,-1.3142,-1.3824,-1.4255,0.0,0.0,0.0,0.0,0.0,0.0,0.0,0.0,0.0,-1.1766,-1.1772,-1.1657,-1.1456,-1.1165,-1.0903,-1.0687,-1.0241,-1.0064,-1.0043,-0.9948,-0.9538,-0.896,-0.896,-0.8722,-0.8403,-0.9275,-0.9575,-0.9479,0.0,0.0,0.0,0.0,-0.8575,-0.8488,-0.7742,-0.7478,0.0,-0.6782,0.0,0.0,0.0,0.0,0.0,0.0,0.0,0.0,0.0,0.0,-0.3388,-0.2996,-0.3235,-0.362,-0.3603,-0.389,-0.4549,0.0,-0.6377,-0.6491,-0.6593,0.0,0.0,0.0,0.0,-0.7987,-0.8557,-0.8274,-0.7966,-0.7933,-0.7891,-0.7917,-0.7985,-0.7736,-0.754,-0.754,-0.7084,-0.6854,-0.6854,-0.7091,-0.7207,0.0,0.0,0.0,0.0,0.0,0.0,0.0,0.0,0.0,0.0,0.0,0.0,0.0,0.0,0.0,0.0,0.0,0.0,0.0,0.0,0.0,0.0,0.0,0.0,0.0,0.0,0.0,0.0,-1.2576,-1.2661,-1.228,-1.2537,-1.2824,0.0,0.0,0.0,0.0,0.0,0.0,-1.0059,-1.0333,-1.0213,-0.9611,-0.9618,-0.9635,-0.9614,-0.953,-0.9405,-0.9287,-0.912,-0.9029,-0.8971,-0.8827,-0.8458,-0.7854,-0.7854,-0.733,-0.6673,-0.8143,-0.8656,-0.8476,-0.8432,-0.8432,-0.8388,-0.7654,-0.7353,-0.7183,-0.6022,-0.5634,-0.5549,-0.5129,-0.4501,-0.3957,-0.3957,0.0,0.0,0.0,0.0,-0.2845,-0.2603,-0.2519,-0.2475,-0.2201,-0.2347,-0.2591,-0.2555,-0.2846,-0.3562,0.0,-0.5789,-0.5849,-0.5779,0.0,0.0,0.0,0.0,-0.7789,-0.7985,-0.7935,-0.7836,-0.759,-0.7587,-0.7587,-0.7587,-0.7238,-0.6989,-0.6989,-0.6637,-0.6387,-0.6387,-0.6637,-0.6786,-0.6786,0.0,0.0,0.0,0.0,0.0,0.0,0.0,0.0,0.0,0.0,0.0,0.0,0.0,0.0,0.0,0.0,0.0,0.0,0.0,0.0,0.0,0.0,0.0,0.0,0.0,0.0,0.0,0.0,0.0,-1.1194,-1.0559,0.0,0.0,0.0,0.0,-0.9068,-0.9183,-0.909,-0.8614,-0.9165,-0.9405,-0.9227,-0.9357,-0.9634,-1.0152,-0.9171,-0.8761,-0.8997,-0.7617,-0.7067,-0.7305,-0.6785,-0.6694,-0.6888,-0.6888,-0.6691,-0.6435,-0.6455,-0.6506,-0.6517,-0.6343,-0.6387,-0.6517,-0.6257,-0.6171,-0.6008,-0.4799,-0.4372,-0.4248,-0.3343,-0.3033,-0.2985,-0.2985,-0.2938,0.0,0.0,-0.2895,-0.2658,-0.1712,-0.1475,-0.1243,-0.0341,-0.093,-0.1672,-0.1653,-0.266,-0.3492,0.0,-0.3176,-0.3293,-0.3706,0.0,-0.5372,-0.5677,-0.6334,-0.6845,-0.6895,-0.6639,-0.6487,-0.6487,-0.6487,-0.6487,-0.6487,-0.6437,-0.6437,-0.6437,-0.6437,-0.6387,-0.6387,-0.5937,-0.5684,-0.5684,-0.5132,0.0,0.0,0.0,0.0,0.0,0.0,0.0,0.0,0.0,0.0,0.0,0.0,0.0,0.0,0.0,0.0,0.0,0.0,0.0,0.0,0.0,0.0,0.0,0.0,0.0,0.0,0.0,0.0,-0.9441,-0.9206,0.0,-0.9294,-0.9493,-0.9174,-0.7968,-0.8529,-0.8452,-0.7386,-0.7838,-0.7964,-0.766,-0.7847,-0.7996,-0.8012,-0.765,-0.7543,-0.7685,-0.7014,-0.6674,-0.67,-0.6505,-0.6456,-0.6557,-0.6557,-0.6071,-0.5273,-0.4851,-0.5301,-0.6187,-0.614,-0.5722,-0.5159,-0.5115,-0.465,-0.3957,-0.3563,-0.3384,-0.3247,-0.2276,-0.1949,-0.1807,-0.1237,-0.1047,-0.105,-0.1015,-0.1019,-0.0973,-0.0592,-0.0495,-0.0446,-0.03,-0.055,-0.0851,-0.1058,-0.1463,-0.1762,-0.16,-0.2841,-0.394,-0.4073,-0.4578,-0.4926,-0.483,-0.5231,-0.5379,-0.5029,-0.5081,-0.4931,-0.4377,-0.4479,-0.4529,-0.4377,-0.4327,-0.4327,-0.4327,-0.4327,-0.4327,-0.4327,-0.4325,-0.4396,-0.4544,-0.3876,-0.3619,0.0,0.0,0.0,0.0,0.0,0.0,0.0,0.0,0.0,0.0,0.0,0.0,0.0,0.0,0.0,0.0,0.0,0.0,0.0,0.0,0.0,0.0,0.0,0.0,0.0,0.0,-0.8529,-0.8886,-0.822,-0.7862,-0.8336,-0.8265,-0.7764,-0.6874,-0.75,-0.7439,-0.638,-0.6749,-0.6792,-0.6411,-0.6505,-0.6505,-0.6414,-0.6369,-0.6188,-0.5961,-0.5764,-0.5426,-0.4922,-0.482,-0.477,-0.477,-0.477,-0.444,-0.39,-0.3503,-0.4018,-0.5085,-0.4871,-0.4322,-0.3705,-0.3896,-0.3515,-0.2855,-0.249,-0.2171,-0.1795,-0.1165,-0.0922,-0.0826,-0.0194,0.0,0.0,0.0,-0.005,-0.0149,-0.0151,-0.0202,-0.0303,-0.0505,-0.0556,-0.0606,-0.0758,-0.0808,-0.0806,-0.0902,-0.2158,-0.3219,-0.3324,-0.3775,-0.4073,-0.4028,-0.4377,-0.4526,-0.4175,-0.4228,-0.4029,-0.3426,-0.3476,-0.3476,-0.3224,-0.3224,-0.3224,-0.3224,-0.3224,-0.3224,-0.3224,-0.3133,-0.3161,-0.346,-0.2653,-0.2351,-0.2548,0.0,0.0,0.0,0.0,0.0,0.0,0.0,0.0,0.0,0.0,0.0,0.0,0.0,0.0,0.0,0.0,0.0,0.0,0.0,0.0,0.0,0.0,0.0,-0.8772,-0.845,-0.8439,-0.9531,-0.754,-0.649,-0.7427,-0.6319,-0.5547,-0.5596,-0.5954,-0.6018,-0.5569,-0.5957,-0.597,-0.5521,-0.5334,-0.5334,-0.5566,-0.5384,-0.4805,-0.3856,-0.3856,-0.3205,-0.1958,-0.1707,-0.1607,-0.1607,-0.1605,-0.1906,-0.2358,-0.2357,-0.266,-0.3006,-0.2366,-0.2093,-0.2141,-0.2665,-0.2858,-0.2674,-0.1705,-0.0745,0.0,0.0,0.0,0.0,0.0,0.0,0.0,0.0,-0.0202,-0.0403,-0.0404,-0.0606,-0.0808,-0.0808,-0.0808,-0.0808,-0.0808,-0.0808,-0.0905,-0.1185,-0.0998,-0.091,-0.1161,-0.2066,-0.287,-0.3123,-0.3828,0.0,-0.4282,-0.4086,-0.3838,-0.3534,-0.3534,-0.3432,-0.3128,-0.3128,-0.3128,-0.3078,-0.3078,-0.3078,-0.3078,-0.2371,-0.2067,-0.2318,-0.1585,-0.1178,-0.1179,0.0,0.0,0.0,0.0,0.0,0.0,0.0,0.0,0.0,0.0,0.0,0.0,0.0,0.0,0.0,0.0,0.0,0.0,0.0,0.0,0.0,0.0,-0.581,-0.6787,-0.661,-0.6422,-0.6647,-0.6261,-0.599,-0.6153,-0.6063,-0.5905,-0.5608,-0.5954,-0.5713,-0.4659,-0.4873,-0.451,-0.3313,-0.341,-0.3312,-0.3015,-0.2967,-0.2777,-0.254,-0.2341,-0.2048,-0.1707,-0.1657,-0.1607,-0.1605,-0.2031,-0.1824,-0.1232,-0.1263,-0.087,-0.0485,-0.2217,-0.2429,-0.1736,-0.1886,-0.1489,-0.0746,-0.05,-0.0201,0.0,0.0,0.0,0.0,0.0,-0.0147,-0.0292,-0.0296,-0.0441,-0.0632,-0.069,-0.0742,-0.0844,-0.1057,-0.1111,-0.1162,-0.1314,-0.1364,-0.1418,-0.1532,-0.149,-0.1482,-0.1492,-0.1751,-0.1969,-0.2019,-0.2246,0.0,-0.2162,-0.2238,-0.2152,-0.168,-0.1837,-0.1731,-0.1208,-0.1155,-0.1103,-0.0893,-0.0893,-0.0893,-0.0893,-0.0666,-0.0652,-0.094,-0.0935,-0.0791,0.0,0.0,0.0,0.0,0.0,0.0,0.0,0.0,0.0,0.0,0.0,0.0,0.0,0.0,0.0,0.0,0.0,0.0,0.0,0.0,0.0,0.0,-0.4712,-0.4254,-0.4728,-0.5375,-0.5772,-0.5803,-0.5686,-0.5605,-0.5523,-0.5545,-0.5282,-0.4627,-0.4822,-0.4407,-0.3169,-0.3266,-0.2934,-0.2112,-0.198,-0.1816,-0.1522,-0.1401,-0.1058,-0.0533,-0.0582,-0.0292,0.0196,0.0098,0.0049,0.0,-0.0291,-0.0194,0.0145,0.0143,0.0381,0.0,0.0,0.0,0.0,0.0,-0.0542,0.0,0.0,0.0,0.0,0.0,0.0,0.0,0.0,-0.0099,-0.0245,-0.0347,-0.0542,-0.0784,-0.0941,-0.105,-0.121,-0.1376,-0.1388,-0.1446,-0.1602,-0.1654,-0.1655,-0.1713,-0.1724,0.0,-0.1668,-0.1634,-0.1654,-0.1654,-0.1669,-0.1627,-0.147,-0.1588,-0.1544,-0.1119,-0.1225,-0.1119,-0.064,-0.048,0.0,0.0,0.0,0.0,0.0,-0.0105,0.0,0.0,0.0,-0.0453,-0.0051,0.0,0.0,0.0,0.1307,0.1607,0.0,0.0,0.0,0.0,0.0,0.0,0.0,0.0,0.0,0.0,0.0,0.0,0.0,0.0,0.0,0.0,-0.3239,-0.266,-0.2806,-0.4319,-0.5457,-0.5654,-0.5209,-0.4905,-0.4954,-0.4573,-0.3961,-0.3069,-0.3073,-0.2567,-0.1457,0.0,0.0,0.0,0.0,-0.043,-0.0383,-0.0185,0.0504,0.1586,0.1166,0.1553,0.2637,0.24,0.2305,0.2305,0.23,0.1962,0.1531,0.1528,0.1192,0.0763,0.0812,0.0815,0.072,0.0288,0.0048,0.0,0.0,0.0,0.0,-0.0049,-0.005,-0.0051,-0.0101,-0.0101,-0.0202,-0.0456,-0.0708,-0.096,-0.1215,-0.1488,-0.1715,-0.1718,-0.1686,-0.1704,-0.1704,-0.1704,-0.1698,-0.1728,-0.1692,-0.1703,-0.1733,-0.1692,-0.1704,-0.1704,-0.1707,-0.171,-0.171,-0.1712,-0.1607,-0.1392,0.0,0.0,-0.0912,-0.0644,-0.0429,-0.0429,-0.0161,-0.0054,0.0,-0.0214,-0.0265,0.0,-0.0208,-0.0103,0.0406,0.0864,0.127,0.1522,0.1619,0.1669,0.0,0.0,0.0,0.0,0.0,0.0,0.0,0.0,0.0,0.0,0.0,0.0,0.0,0.0,0.0,-0.2122,-0.1778,-0.1619,-0.1749,-0.2136,-0.2379,-0.2397,-0.2438,-0.2451,-0.2351,-0.2256,-0.2109,-0.1915,-0.2117,-0.1653,-0.0394,-0.0345,0.0246,0.1577,0.1663,0.1817,0.2095,0.1931,0.1977,0.2233,0.0,0.0,0.2445,0.2396,0.2396,0.2344,0.2163,0.1856,0.1561,0.1584,0.1383,0.1099,0.1116,0.0986,0.0799,0.0699,0.035,0.0,0.0,0.0,-0.005,-0.0251,-0.0302,-0.0354,-0.0669,-0.0869,0.0,-0.1132,-0.1278,-0.147,-0.1595,-0.1658,-0.172,-0.169,-0.17,-0.1704,-0.1704,-0.1704,-0.171,-0.1783,-0.1791,-0.1802,-0.1766,-0.1733,-0.1704,-0.1704,-0.1725,-0.1795,-0.1795,-0.1762,-0.1778,-0.1722,-0.1722,-0.1499,-0.0945,-0.0833,-0.0666,-0.0444,-0.0333,-0.0221,0.0,-0.0054,-0.0054,0.0,-0.0053,0.0106,0.0422,0.0528,0.0686,0.0949,0.1843,0.2136,0.0,0.0,0.0,0.0,0.0,0.0,0.0,0.0,0.0,0.0,0.0,-0.3412,0.0,0.0,-0.1928,-0.152,-0.096,-0.0632,-0.0743,-0.0398,-0.0497,-0.1441,-0.1639,-0.1744,-0.1813,-0.1815,-0.1563,-0.1058,-0.1109,-0.0602,0.0747,0.0746,0.1144,0.1991,0.2072,0.2169,0.234,0.2318,0.2306,0.2306,0.2208,0.2159,0.2159,0.2012,0.1963,0.1962,0.1798,0.1694,0.1549,0.1597,0.1615,0.1643,0.166,0.1305,0.0797,0.0498,0.0251,-0.0051,-0.0354,-0.0458,-0.0461,-0.0615,-0.067,-0.0676,-0.084,-0.0994,-0.1144,-0.1259,-0.1359,-0.1508,-0.168,-0.1747,-0.1763,-0.1724,-0.1738,-0.175,-0.175,-0.175,-0.1754,-0.177,-0.1785,-0.18,-0.1815,-0.1805,-0.1785,-0.1754,-0.1776,-0.1795,-0.1795,-0.1821,-0.184,-0.184,-0.184,-0.1725,-0.1437,-0.1265,-0.0977,-0.046,-0.046,-0.0286,0.0,0.0,0.0,0.0,0.0,0.0221,0.0602,0.0602,0.1148,0.2239,0.3109,0.3228,0.0,0.0,0.0,0.0,0.0,0.0,0.0,0.0,-0.3765,-0.2792,-0.2558,-0.222,-0.13,-0.1086,-0.101,-0.0929,-0.0197,0.0347,0.0252,0.0805,0.0603,-0.0958,-0.1156,-0.1204,-0.1354,-0.1354,-0.1005,-0.0101,-0.005,0.0403,0.1558,0.1608,0.1608,0.1658,0.1832,0.1919,0.1926,0.2043,0.2075,0.2075,0.193,0.1837,0.1844,0.165,0.1555,0.156,0.156,0.161,0.1709,0.1637,0.1828,0.2085,0.2033,0.1642,0.1003,0.05,0.0202,-0.0051,-0.0562,-0.0825,-0.0888,-0.0943,-0.0954,-0.0966,-0.1076,-0.1078,-0.1131,-0.1345,-0.1399,-0.1453,-0.1668,-0.174,-0.1814,-0.1814,-0.1777,-0.1797,-0.1803,-0.1804,-0.1806,-0.1811,-0.1832,-0.1791,-0.1791,-0.1869,-0.1869,-0.182,-0.1834,-0.1791,-0.1791,-0.187,-0.1886,-0.1886,-0.1886,-0.1885,-0.1826,-0.1532,-0.1178,-0.0648,-0.0589,-0.0412,-0.0118,-0.0059,0.0,0.0,0.0,0.0344,0.1019,0.1019,0.1979,0.3839,0.4458,0.4497,-0.6889,-0.6266,-0.5513,-0.5169,-0.4421,-0.3667,0.0,0.0,-0.1709,-0.1604,-0.1567,-0.1254,-0.0237,-0.0048,0.0244,0.1128,0.1345,0.136,0.1111,0.1145,0.1041,0.0605,0.0547,0.0591,0.0837,0.0837,0.0992,0.1362,0.1162,0.1203,0.1578,0.1527,0.1626,0.1922,0.1918,0.1931,0.1964,0.1759,0.1657,0.1657,0.1657,0.1672,0.1698,0.1698,0.166,0.1684,0.1684,0.1947,0.237,0.1899,0.1852,0.2071,0.1859,0.1712,0.1673,0.154,0.0846,0.0,-0.0053,-0.0478,-0.096,-0.119,-0.1252,-0.1312,-0.161,-0.1674,-0.1729,-0.1729,-0.1729,-0.1729,-0.1785,-0.1787,-0.179,-0.179,-0.1793,-0.1802,-0.1772,-0.1778,-0.1843,-0.187,-0.1879,-0.1881,-0.1881,-0.1883,-0.1883,-0.1877,-0.1879,-0.1881,-0.1881,-0.1883,-0.1886,-0.1886,-0.1886,-0.1768,-0.1473,-0.1414,-0.1296,-0.0942,-0.0884,-0.0707,-0.0471,-0.0177,0.0,0.0,0.0,0.0587,0.1872,0.1872,0.2863,0.4782,0.5135,0.5547,-0.5072,-0.4503,0.0,0.0,-0.2804,-0.2376,-0.194,-0.1468,-0.0824,0.0187,0.0142,0.024,0.1258,0.1034,0.0898,0.0,0.1256,0.1111,0.096,0.0853,0.0748,0.0795,0.0641,0.069,0.0948,0.1099,0.1252,0.1363,0.1263,0.1309,0.1598,0.1615,0.1675,0.1827,0.1794,0.181,0.1824,0.1719,0.1667,0.1667,0.1667,0.1675,0.174,0.2424,0.3118,0.3773,0.3033,0.2891,0.3025,0.2108,0.185,0.192,0.1792,0.1792,0.1748,0.1355,0.0708,-0.0055,-0.0384,-0.0934,-0.143,-0.1551,-0.1609,-0.1611,-0.1735,-0.1795,-0.1795,-0.1795,-0.1795,-0.1799,-0.1817,-0.1821,-0.1825,-0.1844,-0.1848,-0.1851,-0.1864,-0.1867,-0.187,-0.1883,-0.19,-0.1912,-0.1912,-0.1927,-0.1939,-0.1939,-0.1924,-0.1912,-0.1912,-0.1928,-0.1939,-0.1939,-0.1939,-0.1878,-0.1757,-0.1029,-0.0484,-0.0121,0.0605,0.1209,0.1511,0.1814,0.1995,0.1995,0.2175,0.2716,0.3678,0.3678,0.472,0.6771,0.7314,0.8115,-0.3723,0.0,0.0,-0.1879,-0.14,-0.0973,-0.0516,-0.014,0.0467,0.1813,0.1746,0.1669,0.2369,0.195,0.1512,0.1504,0.1353,0.1152,0.0902,0.0798,0.0695,0.0693,0.064,0.0791,0.1309,0.1256,0.1256,0.1313,0.1263,0.1266,0.1476,0.1856,0.208,0.2039,0.2485,0.2713,0.2713,0.2713,0.2713,0.2713,0.2713,0.2666,0.2733,0.3284,0.4206,0.5279,0.4045,0.3694,0.3952,0.3132,0.2769,0.2797,0.2817,0.2804,0.2694,0.209,0.1216,0.0167,-0.0448,-0.1065,-0.1514,-0.1346,-0.1514,-0.174,-0.1409,-0.1524,-0.1753,-0.1363,-0.125,-0.1197,-0.0807,-0.0752,-0.0754,-0.0763,-0.0824,-0.0825,-0.0829,-0.0829,-0.083,-0.0834,-0.0843,-0.0849,-0.0849,-0.0857,-0.0925,-0.0925,-0.0858,-0.1097,-0.1823,-0.1655,-0.1296,-0.0925,-0.0867,-0.0869,-0.0869,0.0062,0.0686,0.0936,0.2057,0.2805,0.3054,0.3429,0.3617,0.3617,0.3863,0.4543,0.559,0.559,0.668,0.883,0.9327,1.027,0.0,0.0,-0.1477,-0.166,-0.0645,0.0507,0.0784,0.1733,0.2679,0.3075,0.2942,0.2761,0.2764,0.2572,0.2357,0.2264,0.2257,0.1964,0.1179,0.1306,0.1211,0.0502,0.0844,0.1581,0.0,0.1786,0.1288,0.1564,0.1364,0.1222,0.1193,0.2332,0.2976,0.2975,0.441,0.5206,0.5206,0.5206,0.5206,0.5206,0.5206,0.5198,0.5178,0.4103,0.4242,0.5353,0.4131,0.4242,0.5357,0.5301,0.5303,0.5306,0.5301,0.5301,0.519,0.4641,0.2881,0.0768,0.0167,-0.0449,-0.0841,-0.0224,-0.0841,-0.1575,-0.04,-0.0861,-0.1556,-0.0292,0.0059,0.0352,0.1643,0.1995,0.1995,0.1996,0.1997,0.1946,0.1917,0.1863,0.1871,0.19,0.1906,0.1907,0.1907,0.1908,0.1908,0.1908,0.1931,0.1001,-0.1669,-0.0863,0.0431,0.1724,0.1933,0.1951,0.1951,0.2041,0.2122,0.2122,0.2827,0.3275,0.3275,0.3919,0.4243,0.4243,0.4307,0.5264,0.7238,0.7238,0.8453,1.0696,1.0763,1.115,0.0,0.0,0.0047,0.0765,0.1489,0.2122,0.2586,0.3166,0.366,0.3932,0.3646,0.3253,0.3075,0.2573,0.2106,0.2067,0.1637,0.1493,0.2061,0.197,0.2135,0.2963,0.3202,0.0,0.0,0.0,0.0,0.3673,0.3475,0.3452,0.3774,0.4028,0.4245,0.4539,0.5079,0.5383,0.5383,0.5383,0.5383,0.5383,0.5383,0.5786,0.6486,0.6077,0.6591,0.7651,0.6424,0.6146,0.648,0.5697,0.5417,0.5411,0.5353,0.5367,0.5419,0.4812,0.41,0.3331,0.2216,0.1481,0.1027,0.1325,0.1099,0.0868,0.1279,0.1107,0.0875,0.129,0.141,0.1531,0.1904,0.2029,0.2034,0.2055,0.206,0.2003,0.2013,0.2015,0.2019,0.2029,0.2048,0.2062,0.2062,0.2079,0.2157,0.2157,0.2084,0.1767,0.0888,0.1206,0.1649,0.2093,0.2167,0.2173,0.2173,0.3017,0.354,0.354,0.4568,0.5212,0.5212,0.611,0.6558,0.6558,0.7262,0.8153,0.93,0.93,1.0112,1.1569,1.1569,1.1892,0.0,0.0714,0.1434,0.2243,0.2697,0.3001,0.3485,0.3729,0.3927,0.4225,0.3883,0.3524,0.3352,0.2797,0.2476,0.2749,0.244,0.2458,0.3346,0.3345,0.3542,0.4316,0.447,0.4772,0.0,0.0,0.0,0.4774,0.4576,0.4575,0.4898,0.5168,0.5472,0.577,0.6333,0.6644,0.6644,0.6644,0.6644,0.6644,0.6644,0.7035,0.7709,0.7321,0.7768,0.8826,0.7598,0.7321,0.7709,0.698,0.6667,0.6751,0.6737,0.6778,0.6763,0.5921,0.5675,0.5493,0.353,0.2605,0.2319,0.2635,0.2466,0.2175,0.2602,0.2428,0.2134,0.2623,0.2747,0.2873,0.3265,0.3396,0.3405,0.3377,0.3386,0.339,0.3409,0.3414,0.3418,0.3498,0.3529,0.3553,0.3553,0.3582,0.361,0.363,0.3603,0.346,0.2959,0.2896,0.309,0.3604,0.3621,0.3698,0.3698,0.4497,0.5034,0.5034,0.6211,0.6864,0.6864,0.7837,0.8423,0.8423,0.9072,0.9848,1.0619,1.0619,1.1124,1.2137,1.201,1.2171,0.0523,0.1571,0.2635,0.2684,0.2895,0.3194,0.344,0.3539,0.3685,0.3934,0.3784,0.3565,0.0,0.0,0.3441,0.427,0.4557,0.4761,0.4982,0.5362,0.537,0.0,0.0,0.0,0.0,0.0,0.0,0.5024,0.0,0.4595,0.4767,0.5939,0.6628,0.6805,0.8156,0.8885,0.8885,0.8885,0.8885,0.8885,0.8885,0.8885,0.8881,0.7709,0.7823,0.8826,0.7709,0.7826,0.8895,0.8895,0.9035,0.9221,0.9221,0.9316,0.9275,0.7994,0.7532,0.7123,0.418,0.3119,0.3236,0.3829,0.3239,0.248,0.3598,0.3132,0.2476,0.3676,0.3999,0.4307,0.5546,0.5916,0.5919,0.5923,0.5925,0.5949,0.5976,0.5996,0.6021,0.6163,0.6184,0.6188,0.6258,0.6258,0.6287,0.6376,0.6388,0.5898,0.4523,0.4321,0.4773,0.6066,0.6272,0.6323,0.6325,0.6471,0.6587,0.6587,0.7524,0.8123,0.8123,0.9125,0.9728,0.9728,0.9794,1.0259,1.1181,1.1188,1.1593,1.225,1.2092,1.2018,0.2047,0.2502,0.2924,0.2742,0.3074,0.3459,0.3309,0.362,0.3883,0.3736,0.3635,0.3515,0.0,0.0,0.0,0.4419,0.4947,0.0,0.6853,0.6873,0.0,0.7614,0.0,0.7726,0.7587,0.7391,0.0,0.0,0.6634,0.6788,0.746,0.7428,0.766,0.8315,0.8716,0.8885,0.8885,0.8885,0.8885,0.8885,0.8885,0.8885,0.8881,0.8605,0.8605,0.8881,0.8549,0.8716,0.9096,0.9096,0.9188,0.9323,0.9323,0.9415,0.9373,0.8062,0.7644,0.7538,0.5782,0.5136,0.5096,0.5339,0.5176,0.4995,0.5262,0.5145,0.4965,0.5291,0.536,0.5483,0.5794,0.5916,0.5935,0.594,0.5956,0.598,0.6129,0.6147,0.6153,0.6176,0.6235,0.6433,0.7092,0.7172,0.7178,0.7206,0.7678,0.7536,0.6119,0.5918,0.6051,0.6384,0.6865,0.7013,0.6485,0.7438,0.7853,0.725,0.7987,0.8456,0.8456,0.9516,0.9981,0.9715,1.0717,1.1251,1.1181,1.1368,1.1631,1.2101,1.1838,1.1939,0.2792,0.2967,0.3048,0.2974,0.3156,0.3383,0.323,0.343,0.3732,0.4085,0.4135,0.0,0.0,0.0,0.0,0.0,0.0,0.0,0.8128,0.8209,0.8336,0.0,0.8825,0.0,0.7892,0.7696,0.7622,0.0,0.7582,0.7725,0.8315,0.818,0.8373,0.8875,0.8885,0.8885,0.8885,0.8885,0.8885,0.8885,0.8885,0.8885,0.8885,0.8885,0.8974,0.9032,0.0,0.9117,0.9309,0.9309,0.9344,0.9483,0.9483,0.9574,0.958,0.8495,0.8055,0.775,0.6709,0.6307,0.6269,0.5961,0.6099,0.628,0.5978,0.6099,0.6289,0.6027,0.6162,0.6354,0.6085,0.6469,0.692,0.6602,0.6805,0.7021,0.7186,0.7207,0.7221,0.7268,0.7259,0.745,0.7905,0.7984,0.7984,0.7984,0.8318,0.832,0.7522,0.7455,0.7455,0.7455,0.7786,0.7851,0.7455,0.812,0.8454,0.7984,0.8651,0.905,0.905,0.9974,1.0411,1.0213,1.1082,1.1521,1.1454,1.1543,1.1794,1.2066,1.188,1.1956,0.3025,0.3095,0.3164,0.3317,0.338,0.343,0.3531,0.3581,0.3882,0.4832,0.0,0.5252,0.613,0.6414,0.672,0.7315,0.0,0.8222,0.91,0.9389,0.9373,0.8954,0.8924,0.8588,0.7772,0.7675,0.773,0.792,0.7949,0.8014,0.8193,0.8481,0.8726,0.8878,0.8881,0.8881,0.8885,0.8881,0.8881,0.8885,0.8885,0.8885,0.8885,0.8902,0.9035,0.921,0.9231,0.9326,0.9412,0.9412,0.95,0.9639,0.9639,0.9713,0.97,0.9034,0.8421,0.7811,0.7258,0.695,0.6827,0.6221,0.6464,0.6954,0.6359,0.6607,0.6934,0.6417,0.6758,0.7151,0.6607,0.7395,0.8164,0.7609,0.7932,0.8344,0.8467,0.8495,0.8527,0.8698,0.8653,0.8653,0.872,0.872,0.872,0.872,0.8853,0.8853,0.8853,0.872,0.8587,0.8587,0.872,0.8726,0.8611,0.8812,0.8887,0.8834,0.95,0.9901,0.9901,1.0631,1.0975,1.0911,1.1169,1.1438,1.1714,1.1735,1.1884,1.2156,1.1978,1.1923,0.3025,0.3128,0.3366,0.4026,0.4381,0.4684,0.5381,0.5677,0.0,0.0,0.0,0.6142,0.6276,0.707,0.0,0.7424,0.0,0.0,0.0,0.0,0.9851,0.0,0.0,0.0,0.0,0.0,0.0,0.0,0.0,0.8324,0.8565,0.843,0.8512,0.8878,0.8712,0.8657,0.8885,0.8657,0.8657,0.8885,0.8885,0.8885,0.8888,0.9062,0.9187,0.9217,0.9344,0.0,0.9568,0.9568,0.9656,0.9785,0.9785,0.9798,0.97,0.9034,0.8421,0.7869,0.7747,0.7378,0.6888,0.6768,0.7197,0.7705,0.7743,0.7772,0.7921,0.7909,0.8002,0.8071,0.7962,0.8095,0.8314,0.8286,0.8375,0.8473,0.8596,0.8554,0.8762,0.9377,0.8984,0.8787,0.9383,0.9513,0.9513,0.9513,0.9984,1.0319,1.0319,0.9319,0.8587,0.8587,0.9117,0.9294,0.8796,0.9823,1.028,0.9841,1.0535,1.0946,1.0946,1.1313,1.1399,1.1124,1.1699,1.192,1.1714,1.1776,1.1913,1.1983,1.1737,1.1646,0.3751,0.4005,0.4282,0.5229,0.5527,0.5729,0.6126,0.0,0.0,0.0,0.0,0.7403,0.7933,0.0,0.0,0.0,0.0,0.0,0.0,0.0,0.0,0.0,0.0,0.0,0.0,0.0,0.0,0.0,0.0,0.8713,0.8497,0.8458,0.8475,0.8709,0.8377,0.8377,0.8712,0.8543,0.8654,0.8885,0.8885,0.8977,0.9052,0.9176,0.9296,0.9395,0.9469,0.0,0.972,0.972,0.9758,0.9822,0.9822,0.9822,0.9761,0.9457,0.8909,0.8372,0.8497,0.8332,0.8032,0.8097,0.8324,0.8479,0.8294,0.846,0.8675,0.8478,0.8643,0.8854,0.8527,0.9,0.9472,0.9207,0.9422,0.9638,0.9706,0.9718,0.9785,1.0117,0.9918,0.9785,1.0183,1.025,1.025,1.025,1.0518,1.0748,1.0829,1.0232,0.9829,0.9829,1.0225,1.0363,1.0091,1.0646,1.0953,1.0675,1.1027,1.1231,1.1231,1.1445,1.149,1.1284,1.1709,1.1822,1.1681,1.1687,1.1721,1.1725,1.1657,1.1619,0.4787,0.5133,0.5381,0.6473,0.6722,0.6822,0.7021,0.7071,0.0,0.0,0.8322,0.8623,0.9426,0.0,0.0,0.0,0.0,0.0,0.0,0.0,0.0,0.0,0.0,0.0,0.0,0.0,0.0,0.0,0.0,0.0,0.8652,0.8701,0.8761,0.8761,0.8374,0.8374,0.8709,0.854,0.8654,0.8885,0.8885,0.9015,0.921,0.9245,0.9351,0.9612,0.9642,0.0,0.9822,0.9822,0.9822,0.9822,0.9822,0.9822,0.9822,0.9822,0.9416,0.8909,0.9196,0.9252,0.9174,0.944,0.9456,0.9306,0.8866,0.9163,0.945,0.9062,0.9365,0.9655,0.916,0.9854,1.0585,1.005,1.0319,1.0721,1.0721,1.0721,1.0721,1.0721,1.0721,1.0721,1.0721,1.0721,1.0731,1.0765,1.0768,1.0822,1.0975,1.1023,1.1043,1.1043,1.1114,1.1175,1.1209,1.1212,1.1226,1.126,1.126,1.126,1.126,1.1375,1.144,1.144,1.1558,1.1619,1.1619,1.1619,1.1619,1.1619,1.1619,1.1619,0.5892,0.6274,0.6523,0.7571,0.7872,0.8124,0.9076,0.0,0.0,0.9426,0.9476,0.9476,0.9579,0.9579,0.0,0.0,0.0,0.9341,0.0,0.0,0.0,0.0,0.0,0.0,0.0,0.0,0.0,0.0,0.0,0.9739,0.9684,0.9699,0.9706,0.9706,0.9144,0.8982,0.9323,0.8764,0.8654,0.8885,0.8885,0.9015,0.9214,0.9354,0.9452,0.9615,0.9744,0.0,0.0,0.9822,0.9822,0.9822,0.9822,0.9822,0.9822,0.9822,0.9477,0.9153,0.9732,0.9635,0.9382,1.0164,1.0311,1.022,1.0297,1.034,1.0374,1.0458,1.0565,1.0571,1.0518,1.0585,1.0654,1.0654,1.0651,1.0721,1.0721,1.0721,1.0721,1.0721,1.0721,1.0721,1.0721,1.0721,1.0768,1.084,1.086,1.0978,1.1124,1.1263,1.1352,1.1352,1.124,1.1219,1.1358,1.1369,1.143,1.1569,1.1575,1.1575,1.1575,1.1592,1.1599,1.1599,1.1613,1.1619,1.1619,1.1619,1.1619,1.1619,1.1619,1.1835,0.7233,0.7713,0.8064,0.8966,0.9316,0.9612,1.0212,0.0,0.0,1.0312,1.0187,1.0034,0.9928,0.9751,0.9604,0.0,0.0,0.0,0.0,0.0,0.0,0.0,0.0,0.0,0.0,0.0,0.0,0.0,0.0,1.0363,1.0363,0.9871,0.9485,0.9258,0.8871,0.865,0.8546,0.8543,0.8543,0.8657,0.8969,0.9144,0.9354,0.9449,0.9598,0.9741,0.9795,0.0,0.0,0.9822,0.9822,0.9822,0.9822,0.9822,0.9832,0.9862,0.9809,0.9696,1.0126,1.0162,1.0106,1.0516,1.0592,1.0555,1.0612,1.0629,1.0639,1.0704,1.0721,1.0721,1.0721,1.0721,1.0721,1.0721,1.0721,1.0721,1.0721,1.0721,1.0721,1.0721,1.0721,1.0721,1.0721,1.0799,1.0809,1.0873,1.1023,1.1131,1.128,1.1355,1.1426,1.1518,1.1474,1.1463,1.1525,1.1528,1.1555,1.1616,1.1619,1.1619,1.1619,1.1619,1.1619,1.1619,1.1619,1.1619,1.1619,1.1619,1.1619,1.1619,1.1619,1.1691,0.8632,0.911,0.9406,0.9965,1.0265,1.0462,0.0,0.0,1.0678,1.0776,1.0522,1.029,1.011,0.9803,0.9612,0.9555,0.0,0.9296,0.0,0.0,0.0,0.0,0.0,0.0,0.0,0.0,0.0,0.0,1.0692,1.0692,1.0692,1.0143,0.9647,0.9309,0.8985,0.8595,0.8263,0.8488,0.8618,0.8549,0.899,0.9313,0.9452,0.9561,0.9686,0.9822,0.9822,0.0,0.0,0.9822,0.9822,0.9822,0.9822,0.9849,0.99,0.9947,1.0041,1.0209,1.0419,1.0521,1.0578,1.0683,1.0721,1.0721,1.0721,1.0721,1.0721,1.0721,1.0721,1.0721,1.0721,1.0721,1.0721,1.0721,1.0721,1.0721,1.0721,1.0721,1.0721,1.0721,1.0721,1.0734,1.0778,1.0809,1.0911,1.0998,1.1165,1.1287,1.144,1.1457,1.1501,1.1606,1.1619,1.1619,1.1619,1.1619,1.1619,1.1619,1.1619,1.1619,1.1619,1.1619,1.1619,1.1619,1.1619,1.1619,1.1619,1.1619,1.1619,1.1619,1.1619,1.1596,1.0109,1.0359,1.0413,1.0413,1.0413,1.0462,0.0,0.0,1.0462,1.0748,1.0419,1.0088,1.0084,0.9803,0.9567,0.9433,0.921,0.0,0.0,0.0,0.0,0.0,0.0,0.0,0.0,0.0,0.0,0.0,1.0692,0.0,1.0692,1.0692,1.0582,1.0312,0.9706,0.9206,0.892,0.8878,0.8844,0.87,0.9041,0.9313,0.9608,0.9608,0.9686,0.9822,0.0,0.0,0.0,0.9822,0.9822,0.9822,0.9822,0.9852,0.9984,0.9987,1.0236,1.0487,1.049,1.0592,1.0717,1.0721,1.0721,1.0721,1.0721,1.0721,1.0721,1.0721,1.0721,1.0721,1.0721,1.0721,1.0721,1.0721,1.0721,1.0721,1.0721,1.0721,1.0721,1.0721,1.0721,1.0768,1.0853,1.088,1.0978,1.1341,1.1389,1.1443,1.1596,1.1616,1.1616,1.1619,1.1619,1.1619,1.1619,1.1619,1.1619,1.1619,1.1619,1.1619,1.1619,1.1619,1.1619,1.1619,1.1619,1.1619,1.1619,1.1619,1.1619,1.1619,1.1619,1.1681,1.0605,1.0806,1.09,1.0703,1.0806,1.1047,1.1536,0.0,1.1323,1.1636,1.1275,1.0859,1.0673,1.0166,0.9712,0.9699,0.9254,0.0,0.0,0.0,0.0,0.0,0.0,0.0,0.0,0.0,0.0,1.0747,1.0692,1.0692,1.0692,1.0527,1.0366,1.0312,1.0091,0.9592,0.865,0.9044,0.8956,0.8423,0.9033,0.9415,0.9612,0.971,0.9778,0.0,0.0,0.0,0.0,0.9822,0.9822,0.9822,0.9822,0.9852,1.0,1.0168,1.0327,1.0507,1.0612,1.068,1.0721,1.0721,1.0721,1.0721,1.0721,1.0721,1.0721,1.0721,1.0721,1.0721,1.0721,1.0721,1.0721,1.0721,1.0721,1.0721,1.0721,1.0721,1.0721,1.0721,1.0739,1.0826,1.0873,1.1118,1.1284,1.1375,1.148,1.1565,1.1613,1.1619,1.1619,1.1619,1.1619,1.1619,1.1619,1.1619,1.1619,1.1619,1.1619,1.1619,1.1619,1.1619,1.1619,1.1619,1.1619,1.1619,1.1619,1.1619,1.1619,1.1619,1.1619,1.1664,0.0,1.1047,1.1145,1.0998,1.1096,0.0,0.0,0.0,1.1573,1.1891,1.1517,1.1096,1.0915,1.0296,0.976,0.9686,0.0,0.0,0.0,0.0,0.0,0.0,0.0,0.0,0.0,0.0,1.2037,1.1396,1.0962,1.0692,1.0692,1.0527,1.0472,1.0472,1.0257,0.9592,0.8484,0.9151,0.9093,0.8383,0.9104,0.9544,0.9693,0.9781,0.9822,0.0,0.9822,0.9822,0.0,0.9822,0.9822,0.9825,0.9883,1.0002,1.0154,1.0304,1.0453,1.0592,1.0687,1.0721,1.0721,1.0721,1.0721,1.0721,1.0721,1.0721,1.0721,1.0721,1.0721,1.0721,1.0721,1.0721,1.0721,1.0721,1.0721,1.0721,1.0721,1.0721,1.0738,1.0795,1.0816,1.0917,1.1094,1.127,1.1409,1.1467,1.1558,1.1619,1.1619,1.1619,1.1619,1.1619,1.1619,1.1619,1.1619,1.1619,1.1619,1.1619,1.1619,1.1619,1.1619,1.1619,1.1619,1.1619,1.1619,1.1619,1.1619,1.1619,1.1619,1.1619,1.1619,1.1619,0.0,0.0,0.0,0.0,0.0,0.0,0.0,0.0,0.0,1.163,1.1302,1.0915,1.0915,1.0395,0.987,0.9696,0.0,0.0,0.0,0.0,0.0,0.0,0.0,0.0,0.0,1.553,1.4288,1.2684,1.1555,1.0907,1.0852,1.0798,1.0802,1.0692,1.0143,0.9482,0.8595,0.93,0.9279,0.8561,0.9298,0.9683,0.9822,0.9822,0.9822,0.0,0.9822,0.9822,0.9822,0.9822,0.9829,0.9849,0.993,1.0151,1.0314,1.0443,1.0588,1.0721,1.0721,1.0721,1.0721,1.0721,1.0721,1.0721,1.0721,1.0721,1.0721,1.0721,1.0721,1.0721,1.0721,1.0721,1.0721,1.0721,1.0721,1.0724,1.0734,1.0734,1.0782,1.0867,1.0904,1.0998,1.1345,1.1399,1.1457,1.1599,1.1619,1.1619,1.1619,1.1619,1.1619,1.1619,1.1619,1.1619,1.1619,1.1619,1.1619,1.1619,1.1619,1.1619,1.1619,1.1619,1.1619,1.1619,1.1619,1.1619,1.1619,1.1619,1.1619,1.1619,1.1619,1.1619,0.0,0.0,0.0,0.0,0.0,0.0,0.0,0.0,0.0,0.0,0.0,1.1212,1.1212,1.1369,1.1428,0.0,0.0,0.0,0.0,0.0,0.0,0.0,0.0,0.0,0.0,1.5423,1.4519,1.4089,1.3599,1.2901,1.2037,1.1987,1.161,1.0747,1.0582,1.0143,0.9482,0.9756,0.9688,0.9207,0.9478,0.9683,0.9822,0.9822,0.9822,0.9822,0.9822,0.9822,0.9822,0.9822,0.989,0.9936,0.9974,1.0212,1.0446,1.048,1.0588,1.0721,1.0721,1.0721,1.0721,1.0721,1.0721,1.0721,1.0721,1.0721,1.0721,1.0721,1.0721,1.0721,1.0721,1.0721,1.0721,1.0721,1.0721,1.0751,1.0803,1.0826,1.0938,1.1084,1.1206,1.1311,1.1379,1.1487,1.1575,1.1613,1.1619,1.1619,1.1619,1.1619,1.1619,1.1619,1.1619,1.1619,1.1619,1.1619,1.1619,1.1619,1.1619,1.1619,1.1619,1.1619,1.1619,1.1619,1.1619,1.1619,1.1619,1.1619,1.1619,1.1619,1.1619,1.1619,0.0,0.0,0.0,0.0,0.0,0.0,0.0,0.0,0.0,0.0,0.0,0.0,1.2038,0.0,0.0,0.0,0.0,0.0,0.0,0.0,0.0,0.0,0.0,0.0,0.0,1.6333,1.5535,1.5381,1.4567,1.3599,1.2467,1.2417,1.1878,1.0747,1.0692,1.0417,0.9816,1.028,1.0161,0.9384,0.9898,1.0049,0.9822,0.9822,0.9822,0.9822,0.9822,0.9822,0.9822,0.9822,0.9849,0.9994,1.0127,1.0293,1.05,1.0571,1.0649,1.0721,1.0721,1.0721,1.0721,1.0721,1.0721,1.0721,1.0721,1.0721,1.0721,1.0721,1.0721,1.0721,1.0721,1.0721,1.0721,1.0721,1.0775,1.0782,1.0863,1.0999,1.109,1.124,1.1335,1.1413,1.1484,1.1565,1.1619,1.1619,1.1619,1.1619,1.1619,1.1619,1.1619,1.1619,1.1619,1.1619,1.1619,1.1619,1.1619,1.1619,1.1619,1.1619,1.1619,1.1619,1.1619,1.1619,1.1619,1.1619,1.1619,1.1619,1.1619,1.1619,1.1619,1.1619,0.0,0.0,0.0,0.0,0.0,0.0,0.0,0.0,0.0,0.0,0.0,0.0,0.0,0.0,0.0,0.0,0.0,0.0,0.0,0.0,0.0,0.0,0.0,0.0,1.8422,1.7509,1.6869,1.6664,1.5375,1.4083,1.2738,1.2684,1.2037,1.0747,1.0692,1.0488,0.9964,1.0778,1.0659,0.9593,1.0408,1.0425,0.9822,0.9822,0.9822,0.9822,0.0,0.0,0.9822,0.9822,0.9924,1.0034,1.0229,1.0382,1.0541,1.0673,1.0721,1.0721,1.0721,1.0721,1.0721,1.0721,1.0721,1.0721,1.0721,1.0721,1.0721,1.0721,1.0721,1.0721,1.0721,1.0738,1.0755,1.0755,1.087,1.0921,1.0941,1.1111,1.1243,1.1396,1.1426,1.1467,1.1596,1.1619,1.1619,1.1619,1.1619,1.1619,1.1619,1.1619,1.1619,1.1619,1.1619,1.1619,1.1619,1.1619,1.1619,1.1619,1.1619,1.1619,1.1619,1.1619,1.1619,1.1619,1.1619,1.1619,1.1619,1.1619,1.1619,1.1619,1.1619,1.1606,1.1923,0.0,0.0,0.0,0.0,0.0,0.0,0.0,0.0,0.0,0.0,0.0,0.0,0.0,0.0,0.0,0.0,0.0,0.0,0.0,0.0,0.0,0.0,1.8422,1.8422,1.8258,1.8101,1.8101,1.7463,1.6121,1.397,1.3868,1.2847,1.0747,1.0692,1.0765,1.0811,1.1065,1.0895,1.034,1.0639,1.0425,0.9822,0.9822,0.9822,0.9822,0.0,0.9822,0.9822,0.9822,0.9988,1.0246,1.0273,1.0446,1.0687,1.0711,1.0721,1.0721,1.0721,1.0721,1.0721,1.0721,1.0721,1.0721,1.0721,1.0721,1.0721,1.0721,1.0721,1.0721,1.0721,1.0749,1.0847,1.0847,1.1023,1.1165,1.1297,1.1341,1.1402,1.1555,1.1586,1.1592,1.1616,1.1619,1.1619,1.1619,1.1619,1.1619,1.1619,1.1619,1.1619,1.1619,1.1619,1.1619,1.1619,1.1619,1.1619,1.1619,1.1619,1.1619,1.1619,1.1619,1.1619,1.1619,1.1619,1.1619,1.1619,1.1619,1.1619,1.1619,1.1619,1.1548,1.2113,1.2077,0.0,0.0,0.0,0.0,0.0,0.0,0.0,0.0,0.0,0.0,0.0,0.0,0.0,0.0,0.0,0.0,0.0,0.0,0.0,0.0,0.0,1.8422,1.8422,1.8534,1.8593,1.8422,1.8062,1.6995,1.5156,1.4454,1.3329,1.166,1.1017,1.0826,1.1106,1.1527,1.1313,1.0495,1.1071,1.0789,0.9822,0.9822,0.9822,0.9822,0.0,0.9822,0.9829,0.9849,1.0076,1.0287,1.0365,1.0527,1.0721,1.0721,1.0721,1.0721,1.0721,1.0721,1.0721,1.0721,1.0721,1.0721,1.0721,1.0721,1.0721,1.0721,1.0721,1.0741,1.0822,1.083,1.09,1.1046,1.1179,1.1304,1.1375,1.1457,1.1535,1.1606,1.1619,1.1619,1.1619,1.1619,1.1619,1.1619,1.1619,1.1619,1.1619,1.1619,1.1619,1.1619,1.1619,1.1619,1.1619,1.1619,1.1619,1.1619,1.1619,1.1619,1.1619,1.1619,1.1619,1.1619,1.1619,1.1619,1.1619,1.1619,1.1575,1.1497,1.1497,1.1413,1.2363,1.2271,1.2111,0.0,0.0,0.0,0.0,0.0,0.0,0.0,0.0,0.0,0.0,0.0,0.0,0.0,0.0,0.0,0.0,0.0,0.0,1.7515,1.8055,1.8422,1.8422,1.8705,1.8757,1.8422,1.8167,1.7371,1.5968,1.4995,1.3868,1.2417,1.1555,1.1137,1.122,1.1857,1.1628,1.055,1.1391,1.1091,0.9822,0.9822,0.9822,0.9822,0.9822,0.9822,0.9832,0.9923,1.0141,1.0293,1.0436,1.0585,1.0721,1.0721,1.0721,1.0721,1.0721,1.0721,1.0721,1.0721,1.0721,1.0721,1.0721,1.0721,1.0727,1.0765,1.0772,1.0802,1.085,1.0931,1.108,1.1189,1.1335,1.1443,1.1443,1.1538,1.1619,1.1619,1.1619,1.1619,1.1619,1.1619,1.1619,1.1619,1.1619,1.1619,1.1619,1.1619,1.1619,1.1619,1.1619,1.1619,1.1619,1.1619,1.1619,1.1619,1.1619,1.1619,1.1619,1.1619,1.1619,1.1619,1.1619,1.1619,1.1619,1.1586,1.1504,1.1392,1.1355,1.1257,1.2655,1.2661,1.261,1.2303,0.0,0.0,0.0,0.0,0.0,0.0,0.0,0.0,0.0,0.0,0.0,0.0,0.0,0.0,1.6769,0.0,1.6927,1.7515,1.8055,1.8422,1.8422,1.8705,1.8757,1.8422,1.8167,1.7371,1.5968,1.5808,1.4728,1.2467,1.2309,1.1901,1.122,1.1857,1.1749,1.077,1.145,1.1091,0.9822,0.9822,0.9822,0.9822,0.9822,0.9822,0.9832,0.9923,1.0141,1.0293,1.0436,1.0585,1.0721,1.0721,1.0721,1.0721,1.0721,1.0721,1.0721,1.0721,1.0721,1.0721,1.0721,1.0721,1.0751,1.0826,1.0863,1.0867,1.0877,1.1151,1.1362,1.1372,1.1491,1.1603,1.1603,1.1613,1.1619,1.1619,1.1619,1.1619,1.1619,1.1619,1.1619,1.1619,1.1619,1.1619,1.1619,1.1619,1.1619,1.1619,1.1619,1.1619,1.1619,1.1619,1.1619,1.1619,1.1619,1.1619,1.1619,1.1619,1.1619,1.1619,1.1619,1.1619,1.1619,1.1477,1.1402,1.1389,1.1246,1.1101,1.2705,1.3292,1.384,1.3533,0.0,0.0,0.0,0.0,0.0,0.0,0.0,0.0,0.0,0.0,0.0,0.0,0.0,1.7268,1.7216,1.7207,1.7282,1.7561,1.7905,1.822,1.837,1.8705,1.8757,1.8422,1.8325,1.7845,1.6988,1.6293,1.5156,1.3491,1.2792,1.2012,1.122,1.1857,1.1753,1.0789,1.1454,1.1091,0.9822,0.9822,0.9822,0.9822,0.9822,0.9822,0.9839,1.009,1.0226,1.0304,1.0541,1.067,1.0721,1.0721,1.0721,1.0721,1.0721,1.0721,1.0721,1.0721,1.0721,1.0721,1.0721,1.0721,1.0751,1.0836,1.1012,1.1104,1.1199,1.1307,1.1416,1.1511,1.1575,1.1619,1.1619,1.1619,1.1619,1.1619,1.1619,1.1619,1.1619,1.1619,1.1619,1.1619,1.1619,1.1619,1.1619,1.1619,1.1619,1.1619,1.1619,1.1619,1.1619,1.1619,1.1579,1.1484,1.1565,1.1619,1.1619,1.1619,1.1619,1.1619,1.1528,1.1477,1.1477,1.1324,1.1202,1.1114,1.1056,1.0948,1.3298,1.4236,0.0,0.0,0.0,0.0,0.0,0.0,0.0,0.0,0.0,0.0,0.0,0.0,0.0,0.0,1.78,1.7523,1.738,1.7442,1.7493,1.7492,1.7798,1.8069,1.8272,1.8541,1.8646,1.8422,1.8318,1.8108,1.7747,1.6882,1.5914,1.4728,1.3991,1.301,1.1786,1.2542,1.2277,1.1091,1.1575,1.1091,0.9822,0.9822,0.9822,0.9822,0.9822,0.9849,0.9914,1.0171,1.0334,1.0439,1.0639,1.0721,1.0721,1.0721,1.0721,1.0721,1.0721,1.0721,1.0721,1.0721,1.0721,1.0721,1.0721,1.0755,1.0822,1.0975,1.1121,1.127,1.1423,1.1463,1.1491,1.1596,1.1619,1.1619,1.1619,1.1619,1.1619,1.1619,1.1619,1.1619,1.1619,1.1619,1.1619,1.1619,1.1619,1.1619,1.1619,1.1619,1.1619,1.1619,1.1535,1.1494,1.1545,1.1504,1.143,1.1324,1.1416,1.1497,1.1545,1.1548,1.1548,1.1548,1.1443,1.1365,1.1318,1.1168,1.1046,1.088,1.0833,1.0819,1.4633,1.5544,0.0,0.0,0.0,0.0,0.0,0.0,0.0,0.0,0.0,0.0,0.0,0.0,0.0,0.0,1.8087,1.7873,1.7091,1.7309,1.7417,1.7217,1.7676,1.8016,1.8016,1.822,1.8422,1.8422,1.8167,1.8016,1.8016,1.7747,1.7094,1.5914,1.6169,1.5216,1.3032,1.3943,1.352,1.1816,1.1816,1.1091,0.9822,0.9822,0.9822,0.9822,0.9822,0.9845,1.0,1.0219,1.0456,1.0721,1.0721,1.0721,1.0721,1.0721,1.0721,1.0721,1.0721,1.0721,1.0721,1.0721,1.0721,1.0721,1.0721,1.0759,1.0911,1.1121,1.1274,1.1426,1.1579,1.1619,1.1619,1.1619,1.1619,1.1619,1.1619,1.1619,1.1619,1.1619,1.1619,1.1619,1.1619,1.1619,1.1619,1.1619,1.1619,1.1619,1.1616,1.1616,1.1616,1.1616,1.1345,1.1226,1.1375,1.125,1.1231,1.1231,1.1231,1.1229,1.1385,1.1389,1.1389,1.1392,1.1389,1.1311,1.1231,1.1016,1.088,1.0877,1.0792,1.0721,1.5711,0.0,0.0,0.0,0.0,0.0,0.0,0.0,0.0,0.0,0.0,0.0,0.0,0.0,0.0,0.0,1.8596,1.8341,1.7669,1.7793,1.781,1.7268,1.7513,1.7799,1.7964,1.8069,1.822,1.837,1.8325,1.822,1.8016,1.7911,1.7259,1.5914,1.6169,1.5216,1.3032,1.3943,1.352,1.1816,1.1816,1.1333,1.0486,1.0004,0.9822,0.9822,0.9822,0.9845,1.0007,1.0324,1.0544,1.0721,1.0721,1.0721,1.0721,1.0721,1.0721,1.0721,1.0721,1.0721,1.0721,1.0721,1.0721,1.0721,1.0721,1.0759,1.0911,1.1121,1.1274,1.1426,1.1579,1.1619,1.1619,1.1619,1.1619,1.1619,1.1619,1.1619,1.1619,1.1619,1.1619,1.1619,1.1619,1.1619,1.1619,1.1619,1.1619,1.1582,1.147,1.1552,1.1538,1.1321,1.1314,1.1297,1.1236,1.1189,1.1121,1.1019,1.1107,1.1229,1.1385,1.1287,1.128,1.1389,1.1185,1.1056,1.1012,1.086,1.0789,1.0785,1.0741,1.0721,1.7061,0.0,0.0,0.0,0.0,0.0,0.0,0.0,0.0,0.0,0.0,0.0,0.0,0.0,0.0,1.8781,1.8781,1.8574,1.7976,1.8055,1.7967,1.741,1.7491,1.7635,1.7852,1.7964,1.8115,1.837,1.8422,1.8325,1.8174,1.8069,1.7582,1.6611,1.6942,1.6273,1.4452,1.4956,1.4424,1.2891,1.2178,1.1575,1.1152,1.0243,0.9822,0.9829,0.9951,1.0056,1.0164,1.046,1.0636,1.0721,1.0721,1.0721,1.0721,1.0721,1.0721,1.0721,1.0721,1.0721,1.0721,1.0721,1.0721,1.0731,1.0792,1.0914,1.1063,1.1212,1.1362,1.1504,1.1596,1.1619,1.1619,1.1619,1.1619,1.1619,1.1619,1.1619,1.1619,1.1619,1.1619,1.1619,1.1619,1.1619,1.1619,1.1619,1.1619,1.1565,1.1409,1.1419,1.1365,1.1251,1.1138,1.1111,1.108,1.1023,1.0975,1.0884,1.0972,1.108,1.129,1.1212,1.1179,1.1212,1.0971,1.085,1.0789,1.0765,1.0721,1.0721,1.0721,1.0755,1.8543,0.0,0.0,0.0,0.0,0.0,0.0,0.0,0.0,0.0,0.0,0.0,0.0,0.0,1.8781,1.8781,1.8781,1.8643,1.8179,1.8226,1.8094,1.7548,1.7582,1.7635,1.7582,1.7852,1.8115,1.837,1.8422,1.8422,1.8422,1.8174,1.7905,1.7635,1.8176,1.7916,1.6608,1.6547,1.586,1.457,1.2775,1.1877,1.1756,1.0425,0.9822,0.9839,1.0148,1.028,1.0304,1.0599,1.0721,1.0721,1.0721,1.0721,1.0721,1.0721,1.0721,1.0721,1.0721,1.0721,1.0721,1.0721,1.0721,1.0748,1.0836,1.105,1.1265,1.1348,1.1501,1.1619,1.1619,1.1619,1.1619,1.1619,1.1619,1.1619,1.1619,1.1619,1.1619,1.1619,1.1619,1.1619,1.1619,1.1619,1.1619,1.1619,1.1619,1.1558,1.1392,1.126,1.1168,1.1128,1.0894,1.0792,1.085,1.0802,1.0778,1.085,1.0809,1.0856,1.1111,1.1121,1.1067,1.0884,1.0867,1.0793,1.0721,1.0721,1.0721,1.0721,1.0748,1.0836,0.0,1.9883,0.0,0.0,0.0,0.0,0.0,0.0,0.0,0.0,0.0,0.0,0.0,1.8781,1.8781,1.8781,1.8781,1.8643,1.8179,1.8515,1.8496,1.7605,1.7942,1.8055,1.7635,1.7852,1.8115,1.837,1.8646,1.8698,1.8422,1.837,1.8108,1.7635,1.8176,1.7916,1.6608,1.6547,1.586,1.4565,1.3195,1.2238,1.1756,1.0425,0.9822,0.9839,1.0148,1.028,1.0304,1.0599,1.0721,1.0721,1.0721,1.0721,1.0721,1.0721,1.0721,1.0721,1.0721,1.0721,1.0721,1.0721,1.0721,1.0748,1.0836,1.105,1.1265,1.1348,1.1501,1.1619,1.1619,1.1619,1.1619,1.1619,1.1619,1.1619,1.1619,1.1619,1.1619,1.1619,1.1619,1.1619,1.1619,1.1619,1.1619,1.1619,1.1619,1.1521,1.1246,1.1287,1.1206,1.0853,1.0867,1.0796,1.0775,1.0741,1.0734,1.0768,1.0786,1.0806,1.0819,1.0816,1.0856,1.088,1.0829,1.0755,1.0721,1.0721,1.0721,1.0724,1.0958,1.1084,0.0,0.0,0.0,0.0,0.0,0.0,0.0,0.0,0.0,0.0,0.0,0.0,1.8781,1.8781,1.8781,1.8781,1.8781,1.8798,1.8738,1.8862,1.8753,1.816,1.829,1.8213,1.7635,1.7957,1.8272,1.837,1.8803,1.8907,1.8422,1.8422,1.816,1.7635,1.8176,1.82,1.752,1.6842,1.6155,1.551,1.361,1.2238,1.1273,1.0243,0.9822,0.9839,1.0148,1.028,1.0304,1.0599,1.0721,1.0721,1.0721,1.0721,1.0721,1.0721,1.0721,1.0721,1.0721,1.0721,1.0721,1.0721,1.0721,1.0761,1.0982,1.1104,1.1209,1.1436,1.1558,1.1619,1.1619,1.1619,1.1619,1.1619,1.1619,1.1619,1.1619,1.1619,1.1619,1.1619,1.1619,1.1619,1.1619,1.1619,1.1596,1.1521,1.1511,1.1402,1.1101,1.1131,1.106,1.0755,1.0792,1.0806,1.0727,1.0721,1.0751,1.0759,1.0769,1.0769,1.0829,1.0758,1.0758,1.0769,1.0761,1.0721,1.0721,1.0729,1.0863,1.0938,1.1165,1.1348,0.0,0.0,0.0,0.0,0.0,0.0,0.0,0.0,0.0,0.0,0.0,1.8781,1.8781,1.8781,1.8781,1.8781,1.8883,1.9026,1.9328,1.9322,1.9128,1.8745,1.8595,1.8318,1.7635,1.8055,1.837,1.8422,1.8907,1.9011,1.8422,1.8422,1.8188,1.7662,1.8196,1.8517,1.8564,1.7219,1.6509,1.645,1.3784,1.1997,1.097,1.0183,0.9836,0.9876,1.0158,1.0293,1.0337,1.0609,1.0721,1.0721,1.0721,1.0721,1.0721,1.0721,1.0721,1.0721,1.0721,1.0721,1.0721,1.0721,1.0738,1.0809,1.108,1.1251,1.126,1.1541,1.1619,1.1619,1.1619,1.1619,1.1619,1.1619,1.1619,1.1619,1.1619,1.1619,1.1619,1.1619,1.1619,1.1619,1.1619,1.1599,1.1538,1.1409,1.1369,1.1253,1.0917,1.088,1.0823,1.0734,1.0721,1.0721,1.0721,1.0721,1.0775,1.0833,1.0792,1.0775,1.0836,1.0785,1.0731,1.0758,1.0758,1.0758,1.0761,1.0911,1.106,1.1206,1.1385,1.1613,0.0,0.0,0.0,0.0,0.0,0.0,0.0,0.0,0.0,0.0,1.8781,1.8781,1.8781,1.8781,1.8781,1.8781,1.909,1.932,1.9415,1.9875,1.9837,1.8825,1.8964,1.8743,1.7687,1.7852,1.8174,1.837,1.875,1.881,1.8422,1.8422,1.8232,1.7976,1.8317,1.8611,1.8865,1.731,1.6509,1.645,1.3366,1.1816,1.1635,1.0365,0.9893,0.9967,1.0205,1.0351,1.0477,1.0649,1.0721,1.0721,1.0721,1.0721,1.0721,1.0721,1.0721,1.0721,1.0721,1.0721,1.0721,1.0721,1.0809,1.088,1.1114,1.1257,1.1396,1.1569,1.1619,1.1619,1.1619,1.1619,1.1619,1.1619,1.1619,1.1619,1.1619,1.1619,1.1619,1.1619,1.1619,1.1619,1.1619,1.1508,1.1413,1.1396,1.1277,1.1134,1.09,1.088,1.0823,1.0734,1.0721,1.0721,1.0721,1.0721,1.0727,1.0751,1.0731,1.0727,1.0751,1.0731,1.0782,1.0847,1.085,1.085,1.085,1.1063,1.1212,1.1365,1.1643,1.1864,1.9712,1.9279,1.8759,0.0,0.0,0.0,0.0,0.0,0.0,1.9435,1.918,1.8781,1.8781,1.8781,1.8853,1.9098,1.9264,1.955,1.9892,2.0202,2.0062,1.9133,1.9184,1.8855,1.7687,1.7852,1.8115,1.837,1.8705,1.8757,1.8422,1.8422,1.8252,1.7982,1.8337,1.8631,1.8918,1.7328,1.5983,1.4922,1.2775,1.1816,1.1756,1.0425,0.9842,0.9997,1.0212,1.0361,1.0504,1.0656,1.0721,1.0721,1.0721,1.0721,1.0721,1.0721,1.0721,1.0721,1.0721,1.0721,1.0721,1.0721,1.0756,1.0907,1.1121,1.127,1.1423,1.1575,1.1619,1.1619,1.1619,1.1619,1.1619,1.1619,1.1619,1.1619,1.1619,1.1619,1.1619,1.1619,1.1619,1.1619,1.1619,1.1494,1.1362,1.1277,1.1138,1.0989,1.0839,1.0819,1.0795,1.0727,1.0721,1.0721,1.0721,1.0721,1.0721,1.0721,1.0721,1.0758,1.0779,1.0782,1.0917,1.1067,1.0989,1.0989,1.107,1.1304,1.1494,1.1643,1.1948,1.2166,0.0,0.0,1.8719,1.8149,0.0,0.0,0.0,0.0,1.9418,0.0,1.9857,1.9212,1.9301,1.9094,1.9058,1.9328,1.9519,1.9812,2.0321,2.0472,2.0218,1.9398,1.9279,1.8855,1.7687,1.7799,1.8062,1.837,1.8646,1.8646,1.8422,1.8422,1.8347,1.8143,1.8377,1.8664,1.9032,1.7358,1.5569,1.3688,1.2419,1.1816,1.1756,1.0425,0.9927,1.0051,1.0229,1.0382,1.0558,1.0673,1.0721,1.0721,1.0721,1.0721,1.0721,1.0721,1.0721,1.0721,1.0721,1.0721,1.0721,1.0721,1.085,1.1023,1.1131,1.1297,1.1474,1.1589,1.1619,1.1619,1.1619,1.1619,1.1619,1.1619,1.1619,1.1619,1.1619,1.1619,1.1619,1.1619,1.1619,1.1606,1.1569,1.1436,1.128,1.1131,1.0985,1.0782,1.0734,1.0721,1.0721,1.0721,1.0721,1.0721,1.0721,1.0721,1.0721,1.0721,1.0758,1.0829,1.0877,1.0917,1.107,1.1216,1.1114,1.1114,1.1219,1.1525,1.1748,1.1898,1.2166,1.2366,0.0,1.8972,0.0,1.8129,0.0,0.0,0.0,0.0,0.0,2.1692,2.0881,2.0315,2.0636,1.998,1.9399,1.9415,1.9916,2.0353,2.0392,2.0686,2.049,1.9428,1.9279,1.8855,1.7687,1.7635,1.7845,1.837,1.8422,1.8422,1.8422,1.8422,1.8443,1.845,1.8484,1.8764,1.9397,1.7455,1.5569,1.3688,1.2419,1.1816,1.1756,1.0425,0.9985,1.0266,1.0276,1.0443,1.0711,1.0717,1.0721,1.0721,1.0721,1.0721,1.0721,1.0721,1.0721,1.0721,1.0721,1.0721,1.0721,1.0721,1.0917,1.1224,1.1231,1.1372,1.1609,1.1616,1.1619,1.1619,1.1619,1.1619,1.1619,1.1619,1.1619,1.1619,1.1619,1.1619,1.1619,1.1619,1.1619,1.1572,1.1426,1.1274,1.1124,1.0982,1.0829,1.0727,1.0721,1.0721,1.0721,1.0721,1.0721,1.0721,1.0721,1.0721,1.0721,1.0721,1.0789,1.0873,1.088,1.108,1.1223,1.1379,1.1372,1.1372,1.1382,1.1677,1.1898,1.2054,1.2213,1.2366,0.0,0.0,0.0,1.9362,2.0083,2.0812,2.1264,2.1783,2.226,2.2528,2.1863,2.15,2.2526,2.1417,2.0287,2.0094,2.0818,2.1263,2.0804,2.0845,2.0506,1.9428,1.9279,1.8855,1.7687,1.7582,1.774,1.8122,1.8325,1.8318,1.8167,1.8325,1.845,1.8526,1.849,1.8589,1.8752,1.7273,1.5983,1.4867,1.2775,1.1816,1.1756,1.0425,0.9988,1.028,1.028,1.0446,1.0721,1.0721,1.0721,1.0721,1.0721,1.0721,1.0721,1.0721,1.0721,1.0721,1.0721,1.0721,1.0721,1.0721,1.0921,1.1231,1.1231,1.1379,1.1619,1.1619,1.1619,1.1619,1.1619,1.1619,1.1619,1.1619,1.1619,1.1619,1.1619,1.1619,1.1619,1.1619,1.1619,1.1603,1.1548,1.1331,1.1214,1.1094,1.0877,1.0721,1.0721,1.0721,1.0721,1.0721,1.0721,1.0721,1.0721,1.0721,1.0761,1.0793,1.085,1.1033,1.1226,1.128,1.1382,1.1535,1.1538,1.1582,1.1674,1.1881,1.2057,1.221,1.2359,1.2454,0.0,0.0,0.0,0.0,0.0,2.1645,2.1942,0.0,2.3481,2.3567,2.2833,2.252,2.3767,2.2943,2.1955,2.1548,2.1866,2.1986,2.1489,2.1121,2.0557,1.968,1.9428,1.8907,1.795,1.7687,1.774,1.8115,1.8325,0.0,1.8115,1.8325,1.845,1.8526,1.8684,1.8667,1.8383,1.7155,1.6096,1.5268,1.2891,1.1696,1.1454,1.0304,0.9988,1.028,1.028,1.0446,1.0721,1.0721,1.0721,1.0721,1.0721,1.0721,1.0721,1.0721,1.0721,1.0721,1.0721,1.0721,1.0727,1.0778,1.0962,1.1241,1.1223,1.1416,1.1619,1.1619,1.1619,1.1619,1.1619,1.1619,1.1619,1.1619,1.1619,1.1548,1.1257,1.14,1.1619,1.1619,1.1619,1.1603,1.1552,1.1331,1.1148,1.1097,1.088,1.0721,1.0721,1.0721,1.0721,1.0721,1.0721,1.0721,1.0721,1.0721,1.0785,1.087,1.0992,1.1131,1.1382,1.144,1.1514,1.1616,1.1619,1.1714,1.1908,1.2013,1.2142,1.2291,1.2386,1.2403,0.0,0.0,0.0,0.0,0.0,0.0,2.1938,0.0,2.5633,2.4711,2.382,2.3403,2.4173,2.4431,2.4346,2.3802,2.3054,2.2577,2.2526,2.1623,2.0763,2.0181,1.9628,1.9063,1.8475,1.7898,1.7845,1.837,1.8422,1.8422,1.837,1.8384,1.8417,1.8526,1.9115,1.9062,1.8389,1.7155,1.5854,1.4604,1.2706,1.1454,1.0789,1.0122,0.9988,1.028,1.028,1.0446,1.0721,1.0721,1.0721,1.0721,1.0721,1.0721,1.0721,1.0721,1.0721,1.0721,1.0721,1.0721,1.0744,1.0833,1.1046,1.1261,1.1345,1.1497,1.1619,1.1619,1.1619,1.1619,1.1619,1.1619,1.1619,1.1548,1.1548,1.14,1.0599,1.1038,1.1548,1.1548,1.1544,1.1494,1.1345,1.119,1.1039,1.09,1.0749,1.0651,1.0654,1.0654,1.0654,1.0654,1.0654,1.0654,1.0721,1.0724,1.0792,1.0877,1.109,1.124,1.1392,1.1541,1.1619,1.1619,1.1619,1.1765,1.2135,1.2135,1.2142,1.2291,1.2284,1.2199,1.9495,0.0,0.0,0.0,0.0,0.0,0.0,0.0,2.4982,2.4999,2.4807,2.4685,2.4886,2.5253,2.5564,2.5722,2.5247,2.4254,2.2719,2.2224,2.1564,2.0233,1.9628,1.9063,1.8475,1.7898,1.7747,0.0,1.8265,1.8318,1.8122,1.8326,1.8481,1.8484,1.9115,1.9062,1.8389,1.7155,1.5854,1.4604,1.2706,1.1454,1.0789,1.0122,0.9988,1.028,1.028,1.0446,1.0721,1.0721,1.0721,1.0721,1.0721,1.0721,1.0721,1.0721,1.0721,1.0721,1.0721,1.0721,1.0744,1.0833,1.1046,1.1261,1.1345,1.1497,1.1619,1.1619,1.1619,1.1619,1.1619,1.1619,1.1472,1.0962,1.1185,1.1257,0.9882,1.0239,1.0603,1.0026,1.0308,1.0509,0.9906,0.9648,0.9422,0.9387,0.9737,0.9785,0.9253,0.9649,0.9981,0.9981,0.9981,1.0183,1.0651,1.0822,1.0948,1.1094,1.1246,1.1396,1.1548,1.1596,1.1619,1.1619,1.1619,1.1765,1.2135,1.2135,1.2142,1.2288,1.2176,1.2043,0.0,0.0,0.0,0.0,0.0,0.0,2.2544,2.3741,2.4592,2.4199,2.4544,2.4975,2.514,2.544,2.5823,2.6511,2.5929,2.4832,2.3211,2.2323,2.1414,2.0347,1.9701,1.9168,1.8795,1.8055,1.774,1.8115,1.8318,1.8318,1.8167,1.8381,1.849,1.849,1.9172,1.9468,1.921,1.7513,1.6144,1.4945,1.2822,1.1273,1.0365,1.0001,0.9988,1.028,1.028,1.0446,1.0721,1.0721,1.0721,1.0721,1.0721,1.0721,1.0721,1.0721,1.0721,1.0721,1.0721,1.0721,1.0755,1.0968,1.1094,1.1272,1.1419,1.1548,1.1619,1.1619,1.1619,1.1619,1.1619,1.14,1.1038,1.0599,1.0603,1.0314,0.9085,0.9446,0.9879,0.9374,0.9561,0.9686,0.9264,0.8996,0.8769,0.8769,0.9066,0.9117,0.8653,0.8984,0.925,0.925,0.925,0.954,1.027,1.0422,1.0691,1.1243,1.1341,1.146,1.1613,1.1619,1.1619,1.1619,1.1619,1.1735,1.1965,1.1965,1.2013,1.2094,1.2006,1.1887,0.0,0.0,0.0,0.0,0.0,0.0,2.0507,2.2422,2.4175,2.3148,2.3768,2.4625,2.5057,2.515,2.5385,2.6233,2.5555,2.4669,2.3788,2.2146,2.0907,2.0488,1.9808,1.9383,1.9331,1.8318,1.7845,1.8318,1.837,1.8384,1.8471,1.8503,1.8504,1.8537,1.935,1.9866,2.0097,1.7987,1.638,1.5279,1.2813,1.1031,0.9822,0.9822,0.9988,1.028,1.028,1.0446,1.0721,1.0721,1.0721,1.0721,1.0721,1.0721,1.0721,1.0721,1.0721,1.0721,1.0721,1.0721,1.0768,1.1067,1.1231,1.1219,1.1528,1.1619,1.1619,1.1619,1.1619,1.1619,1.1619,1.1038,1.0455,1.0383,0.9807,0.9085,0.814,0.8577,0.916,0.9088,0.9053,0.9033,0.8962,0.87,0.8546,0.8546,0.8523,0.8454,0.8387,0.8454,0.8454,0.8454,0.8454,0.8837,0.9841,0.9934,1.0329,1.1372,1.1406,1.1477,1.1613,1.1619,1.1619,1.1619,1.165,1.1714,1.1809,1.184,1.1847,1.183,1.1816,1.1738,0.0,0.0,0.0,0.0,0.0,0.0,2.1422,2.2148,2.2944,2.4573,2.467,2.4521,2.4893,2.4803,2.4676,2.4865,2.4785,2.4526,2.407,2.2959,2.1844,2.0923,2.0305,1.9776,1.9324,1.8639,1.822,1.8069,1.8069,1.8278,1.8786,1.8619,1.8597,1.8831,1.9459,1.9455,1.8797,1.7091,1.5429,1.393,1.1981,1.0607,0.9822,0.9822,0.9988,1.028,1.028,1.0446,1.0721,1.0721,1.0721,1.0721,1.0721,1.0721,1.0721,1.0721,1.0721,1.0721,1.0721,1.0721,1.0768,1.1067,1.1231,1.1219,1.1528,1.1619,1.1619,1.1619,1.1619,1.1619,1.1619,1.1038,1.0311,0.9665,0.9449,0.8943,0.7494,0.7783,0.8143,0.7568,0.7853,0.7937,0.731,0.708,0.6951,0.6951,0.7397,0.7517,0.6987,0.7386,0.7715,0.7715,0.7715,0.8295,0.9774,1.0023,1.0433,1.1308,1.1508,1.1589,1.1616,1.1619,1.1619,1.1619,1.1853,1.1874,1.166,1.1901,1.1952,1.1826,1.1714,1.1647,0.0,0.0,0.0,1.9301,0.0,0.0,0.0,2.1303,2.2347,2.2948,2.3465,2.3898,2.4263,2.4071,2.3998,2.4448,2.4408,2.4155,2.3691,2.2997,2.2055,2.078,2.0338,1.9983,1.9732,1.8893,1.8318,1.822,1.8069,1.8252,1.887,1.8653,1.8624,1.8911,1.9658,1.9635,1.8874,1.7741,1.6133,1.4108,1.2513,1.1084,0.9822,0.9822,0.9988,1.028,1.028,1.0446,1.0721,1.0721,1.0721,1.0721,1.0721,1.0721,1.0721,1.0721,1.0721,1.0721,1.0721,1.0721,1.0768,1.1067,1.1231,1.1219,1.1528,1.1619,1.1619,1.1619,1.1619,1.1619,1.1619,1.075,0.9807,0.9374,0.8726,0.793,0.7133,0.7278,0.7421,0.7061,0.7129,0.7141,0.6797,0.6574,0.652,0.652,0.6786,0.6851,0.652,0.6786,0.6985,0.6985,0.7029,0.7706,0.9323,0.959,1.0214,1.1423,1.1575,1.1619,1.1619,1.1619,1.1653,1.1725,1.1945,1.1952,1.1725,1.1952,1.1945,1.1725,1.1653,1.1619,0.0,0.0,0.0,0.0,0.0,1.9736,0.0,0.0,0.0,2.0952,2.189,0.0,0.0,0.0,0.0,0.0,0.0,0.0,0.0,2.2464,0.0,2.062,2.0335,2.0189,1.9983,1.8885,1.8265,1.8318,1.8062,1.8227,1.8846,1.8632,1.8651,1.8998,1.9858,1.9989,1.9301,1.8571,1.7138,1.494,1.3287,1.1683,1.0183,0.9943,0.9988,1.028,1.028,1.0446,1.0721,1.0721,1.0721,1.0721,1.0721,1.0721,1.0721,1.0721,1.0721,1.0721,1.0721,1.0721,1.0768,1.1067,1.1202,1.1297,1.1545,1.1619,1.1619,1.1619,1.1619,1.1619,1.1619,1.0462,0.9304,0.9304,0.8145,0.699,0.699,0.699,0.699,0.699,0.6847,0.6727,0.6727,0.6574,0.652,0.652,0.652,0.652,0.652,0.6537,0.6547,0.6547,0.6562,0.7201,0.8689,0.8925,0.9675,1.1319,1.14,1.1472,1.1619,1.1619,1.1687,1.1826,1.1982,1.1986,1.183,1.1986,1.1911,1.1619,1.1619,1.1619,0.0,0.0,0.0,0.0,1.9231,0.0,0.0,0.0,2.0241,2.1283,0.0,0.0,0.0,0.0,0.0,0.0,0.0,0.0,2.0933,2.1383,2.1462,2.0923,2.0842,2.0462,1.948,1.8377,1.7793,1.8016,1.7799,1.7989,1.883,1.863,1.8744,1.9299,1.9975,1.9989,1.9301,1.8079,1.7073,1.6267,1.3237,1.1692,1.145,1.0304,0.9988,1.028,1.028,1.0446,1.0721,1.0721,1.0721,1.0721,1.0721,1.0721,1.0721,1.0721,1.0721,1.0721,1.0721,1.0721,1.0768,1.1067,1.1348,1.1572,1.1609,1.1619,1.1619,1.1619,1.1619,1.1619,1.1619,1.0462,0.9304,0.9304,0.8145,0.699,0.699,0.699,0.699,0.699,0.6847,0.6727,0.6727,0.6574,0.652,0.652,0.652,0.652,0.652,0.6525,0.6574,0.6574,0.6656,0.7095,0.8037,0.8128,0.882,1.0518,1.0599,1.089,1.1548,1.1619,1.1687,1.1826,1.1982,1.1986,1.183,1.1986,1.1911,1.1619,1.1619,1.1619,0.0,0.0,0.0,0.0,0.0,0.0,1.9192,0.0,1.9882,0.0,0.0,0.0,0.0,0.0,0.0,0.0,2.0626,0.0,0.0,0.0,2.1354,0.0,0.0,0.0,1.9376,1.8534,1.8062,1.8016,1.7747,1.8003,1.883,1.865,1.8764,1.941,1.9989,1.9809,1.8771,1.8564,1.767,1.5924,1.3839,1.247,1.1631,1.0365,0.9988,1.028,1.028,1.0446,1.0721,1.0721,1.0721,1.0721,1.0721,1.0721,1.0721,1.0721,1.0721,1.0721,1.0721,1.0721,1.0768,1.1067,1.1369,1.1619,1.1619,1.1619,1.1619,1.1619,1.1619,1.1619,1.1619,1.0462,0.9304,0.9304,0.8145,0.699,0.699,0.699,0.699,0.699,0.6886,0.6784,0.6735,0.6574,0.652,0.652,0.652,0.6539,0.6527,0.6566,0.6611,0.6664,0.6747,0.7307,0.8553,0.8762,0.9465,1.1034,1.1109,1.1257,1.1619,1.1619,1.1728,1.1962,1.203,1.203,1.1965,1.203,1.1911,1.1619,1.1619,1.1619,1.9384,0.0,0.0,0.0,0.0,0.0,0.0,0.0,0.0,0.0,0.0,0.0,0.0,0.0,0.0,0.0,0.0,1.9989,0.0,2.0216,0.0,0.0,0.0,0.0,0.0,1.8582,1.8108,1.7911,1.7694,1.7949,1.872,1.8601,1.8764,1.941,1.9815,1.9519,1.8421,1.8816,1.8046,1.6113,1.4857,1.3545,1.223,1.0906,1.0297,1.028,1.028,1.0446,1.0721,1.0721,1.0721,1.0721,1.0721,1.0721,1.0721,1.0721,1.0721,1.0721,1.0721,1.0772,1.0877,1.109,1.1369,1.1619,1.1619,1.1619,1.1619,1.1619,1.1619,1.1548,1.1329,1.0314,0.923,0.9013,0.793,0.699,0.699,0.699,0.699,0.699,0.6917,0.6825,0.6741,0.6596,0.6551,0.6524,0.6543,0.6515,0.6582,0.6633,0.6688,0.6754,0.6839,0.7391,0.853,0.8819,0.9663,1.1181,1.1472,1.1619,1.1619,1.1619,1.1759,1.2057,1.2135,1.2135,1.2135,1.2135,1.1911,1.1619,1.1619,1.1619,0.0,0.0,0.0,1.9301,0.0,0.0,0.0,0.0,1.7951,0.0,0.0,0.0,0.0,0.0,0.0,0.0,0.0,0.0,0.0,0.0,0.0,0.0,0.0,0.0,0.0,1.804,1.7635,1.7635,1.7582,1.7849,1.8457,1.849,1.8764,1.941,1.9359,1.9004,1.8421,1.8421,1.8129,1.742,1.6172,1.4857,1.3605,1.223,1.1156,1.028,1.028,1.0446,1.0721,1.0721,1.0721,1.0721,1.0721,1.0721,1.0721,1.0721,1.0721,1.0721,1.0721,1.0907,1.122,1.1227,1.1369,1.1619,1.1619,1.1619,1.1619,1.1619,1.1619,1.1472,1.0743,0.9951,0.9085,0.8357,0.7566,0.699,0.699,0.699,0.699,0.699,0.6917,0.6825,0.6741,0.6647,0.6555,0.6535,0.6529,0.6586,0.659,0.6739,0.6916,0.6921,0.6931,0.6986,0.7057,0.7709,0.8791,1.0455,1.1185,1.1619,1.1619,1.1619,1.1759,1.2057,1.2135,1.2135,1.2135,1.2135,1.1911,1.1619,1.1619,1.1619,0.0,0.0,1.8882,1.8882,0.0,0.0,0.0,0.0,0.0,0.0,0.0,0.0,0.0,0.0,0.0,0.0,0.0,0.0,0.0,0.0,0.0,0.0,0.0,0.0,0.0,0.0,1.7799,1.7635,1.7747,1.807,1.8457,1.849,1.8645,1.9042,1.9236,1.8952,1.8142,1.8305,1.8129,1.7485,1.5332,1.4143,1.3605,1.1446,1.042,1.028,1.028,1.0446,1.0721,1.0721,1.0721,1.0721,1.0721,1.0721,1.0721,1.0721,1.0721,1.0734,1.0769,1.0999,1.1179,1.128,1.1453,1.1619,1.1619,1.1619,1.1619,1.1619,1.1619,1.14,1.0671,0.9879,0.9085,0.8285,0.7566,0.699,0.699,0.699,0.699,0.699,0.6964,0.6896,0.6751,0.6747,0.6715,0.6566,0.657,0.6633,0.6749,0.6888,0.6947,0.6937,0.697,0.7206,0.7709,0.8935,1.0164,1.1181,1.1472,1.1619,1.1619,1.1619,1.1759,1.2057,1.2135,1.2135,1.2135,1.2135,1.1911,1.1619,1.1619,1.1619,1.8772,1.8571,0.0,1.8451,1.8547,0.0,1.8074,0.0,0.0,0.0,0.0,0.0,0.0,0.0,0.0,0.0,0.0,0.0,0.0,1.8236,0.0,0.0,0.0,0.0,0.0,0.0,1.7799,1.7635,1.7747,1.7969,0.0,1.843,1.8592,1.8711,1.8893,1.8661,1.8031,1.8077,1.7655,1.6826,1.5154,1.3904,1.2946,1.1265,1.042,1.028,1.028,1.0446,1.0721,1.0721,1.0721,1.0721,1.0721,1.0721,1.0721,1.0721,1.0721,1.0741,1.083,1.1043,1.1189,1.1341,1.1494,1.1619,1.1619,1.1619,1.1619,1.1619,1.1619,1.1329,1.0311,0.9665,0.9013,0.7998,0.7349,0.699,0.699,0.699,0.699,0.699,0.699,0.6943,0.6796,0.6817,0.6863,0.6617,0.6643,0.6725,0.691,0.6954,0.6925,0.6984,0.699,0.7423,0.8432,0.9443,1.053,1.1548,1.1619,1.1619,1.1619,1.1619,1.1759,1.2057,1.2135,1.2135,1.2135,1.2135,1.1911,1.1619,1.1619,1.1619]},{"header":{"parameterUnit":"m.s-1","parameterCategory":1,"la1":30.6,"la2":29.2853,"lo1":-89.7004,"lo2":-87.6739,"dx":0.0162,"dy":0.0183,"nx":112,"ny":82,"refTime":"2023-01-31T18:00:00:Z","depth":0,"parameterNumber":3,"parameterNumberName":"V-component_of_WINDS"},"data":[0.0,0.0,0.0,0.0,0.0,0.0,0.0,0.0,0.0,0.0,0.0,0.0,0.0,0.0,0.0,0.0,0.0,0.0,0.0,0.0,0.0,0.0,0.0,0.0,0.0,0.0,0.0,0.0,0.0,0.0,0.0,0.0,0.0,0.0,0.0,0.0,0.0,0.0,0.0,0.0,0.0,0.0,0.0,0.0,0.0,0.0,0.0,0.0,0.0,0.0,0.0,0.0,0.0,0.0,0.0,0.0,0.0,0.0,0.0,0.0,0.0,0.0,0.0,0.0,0.0,0.0,0.0,0.0,0.0,0.0,0.0,0.0,0.0,0.0,0.0,0.0,0.0,0.0,0.0,0.0,0.0,0.0,0.0,0.0,0.0,0.0,0.0,0.0,0.0,0.0,2.9643,2.9718,2.9765,2.9886,3.0093,3.0801,3.1323,3.1529,0.0,0.0,0.0,0.0,0.0,0.0,0.0,0.0,0.0,0.0,0.0,0.0,0.0,0.0,0.0,0.0,0.0,0.0,0.0,0.0,0.0,0.0,0.0,0.0,0.0,0.0,0.0,0.0,0.0,0.0,0.0,0.0,0.0,0.0,0.0,0.0,0.0,0.0,0.0,0.0,0.0,0.0,0.0,0.0,0.0,0.0,0.0,0.0,0.0,0.0,0.0,0.0,0.0,0.0,0.0,0.0,0.0,0.0,0.0,0.0,0.0,0.0,0.0,0.0,0.0,0.0,0.0,0.0,0.0,0.0,0.0,0.0,0.0,0.0,0.0,0.0,0.0,0.0,0.0,0.0,0.0,0.0,0.0,0.0,0.0,0.0,0.0,0.0,0.0,0.0,0.0,0.0,0.0,0.0,0.0,0.0,0.0,0.0,0.0,0.0,0.0,0.0,0.0,0.0,3.0749,3.1135,3.0348,3.0256,3.1385,3.1404,3.1604,3.2127,0.0,0.0,0.0,0.0,0.0,0.0,0.0,0.0,0.0,0.0,0.0,0.0,0.0,0.0,0.0,0.0,0.0,0.0,0.0,0.0,0.0,0.0,0.0,0.0,0.0,0.0,0.0,0.0,0.0,0.0,0.0,0.0,0.0,0.0,0.0,0.0,0.0,0.0,0.0,0.0,0.0,0.0,0.0,0.0,0.0,0.0,0.0,0.0,0.0,0.0,0.0,0.0,0.0,0.0,0.0,0.0,0.0,0.0,0.0,0.0,0.0,0.0,0.0,0.0,0.0,0.0,0.0,0.0,0.0,0.0,0.0,0.0,0.0,0.0,0.0,0.0,0.0,0.0,0.0,0.0,0.0,0.0,0.0,0.0,0.0,0.0,0.0,0.0,0.0,0.0,0.0,0.0,0.0,0.0,0.0,0.0,0.0,0.0,0.0,0.0,0.0,0.0,0.0,3.104,3.1043,3.1256,3.0613,3.0521,3.1355,3.1506,3.1769,3.2266,3.2639,0.0,0.0,0.0,0.0,0.0,0.0,0.0,0.0,0.0,0.0,0.0,0.0,0.0,0.0,0.0,0.0,0.0,0.0,0.0,0.0,0.0,0.0,0.0,0.0,0.0,0.0,0.0,0.0,0.0,0.0,0.0,0.0,0.0,0.0,0.0,0.0,0.0,0.0,0.0,0.0,0.0,0.0,0.0,0.0,0.0,0.0,0.0,0.0,0.0,0.0,0.0,0.0,0.0,0.0,0.0,0.0,0.0,0.0,0.0,0.0,0.0,0.0,0.0,0.0,0.0,0.0,0.0,0.0,0.0,0.0,0.0,0.0,0.0,0.0,0.0,0.0,0.0,0.0,0.0,0.0,0.0,0.0,0.0,0.0,0.0,0.0,0.0,0.0,0.0,0.0,0.0,0.0,0.0,0.0,0.0,0.0,0.0,0.0,0.0,0.0,0.0,0.0,3.1696,3.1511,3.1511,3.1106,3.1027,3.1456,3.1733,3.2074,3.2505,3.2818,0.0,0.0,0.0,0.0,0.0,0.0,0.0,0.0,0.0,0.0,0.0,0.0,0.0,0.0,0.0,0.0,0.0,0.0,0.0,0.0,0.0,0.0,0.0,0.0,0.0,0.0,0.0,0.0,0.0,0.0,0.0,0.0,0.0,0.0,0.0,0.0,0.0,0.0,0.0,0.0,0.0,0.0,0.0,0.0,0.0,0.0,0.0,0.0,0.0,0.0,0.0,0.0,0.0,0.0,0.0,0.0,0.0,0.0,0.0,0.0,0.0,0.0,0.0,0.0,0.0,0.0,0.0,0.0,0.0,0.0,0.0,0.0,0.0,0.0,0.0,0.0,0.0,0.0,0.0,0.0,0.0,0.0,0.0,0.0,0.0,0.0,0.0,0.0,0.0,0.0,0.0,0.0,0.0,0.0,0.0,0.0,0.0,0.0,0.0,0.0,0.0,0.0,3.2699,3.2682,3.2682,3.2214,3.2109,3.265,3.2534,3.2668,3.3201,3.3247,0.0,0.0,0.0,0.0,0.0,0.0,0.0,0.0,0.0,0.0,0.0,0.0,0.0,0.0,0.0,0.0,0.0,0.0,0.0,0.0,0.0,0.0,0.0,0.0,0.0,0.0,0.0,0.0,0.0,0.0,0.0,0.0,0.0,0.0,0.0,0.0,0.0,0.0,0.0,0.0,0.0,0.0,0.0,0.0,0.0,0.0,0.0,0.0,0.0,0.0,0.0,0.0,0.0,0.0,0.0,0.0,0.0,0.0,0.0,0.0,0.0,0.0,0.0,0.0,0.0,0.0,0.0,0.0,0.0,0.0,0.0,0.0,0.0,0.0,0.0,0.0,0.0,0.0,0.0,0.0,0.0,0.0,0.0,0.0,0.0,0.0,0.0,0.0,0.0,0.0,0.0,0.0,0.0,0.0,0.0,0.0,0.0,0.0,0.0,0.0,0.0,0.0,3.2565,3.271,0.0,3.314,3.3248,3.4222,3.4241,3.4358,3.4772,0.0,0.0,0.0,0.0,0.0,0.0,0.0,0.0,0.0,0.0,0.0,0.0,0.0,0.0,0.0,0.0,0.0,0.0,0.0,0.0,0.0,0.0,0.0,0.0,0.0,0.0,0.0,0.0,0.0,0.0,0.0,0.0,0.0,0.0,0.0,0.0,0.0,0.0,0.0,0.0,0.0,0.0,0.0,0.0,0.0,0.0,0.0,0.0,0.0,0.0,0.0,0.0,0.0,0.0,0.0,0.0,0.0,0.0,0.0,0.0,0.0,0.0,0.0,0.0,0.0,0.0,0.0,0.0,0.0,0.0,0.0,0.0,0.0,0.0,0.0,0.0,0.0,0.0,0.0,0.0,0.0,0.0,0.0,0.0,0.0,0.0,0.0,0.0,0.0,0.0,0.0,0.0,0.0,0.0,0.0,0.0,0.0,0.0,0.0,0.0,0.0,0.0,3.3571,3.3725,3.4105,0.0,3.4443,3.4574,3.5479,3.5501,3.5568,3.5812,0.0,0.0,0.0,0.0,0.0,0.0,0.0,0.0,0.0,0.0,0.0,0.0,0.0,0.0,0.0,0.0,0.0,0.0,0.0,0.0,0.0,0.0,0.0,0.0,0.0,0.0,0.0,0.0,0.0,0.0,0.0,0.0,0.0,0.0,0.0,0.0,0.0,0.0,0.0,0.0,0.0,0.0,0.0,0.0,0.0,0.0,0.0,0.0,0.0,0.0,0.0,0.0,0.0,0.0,0.0,0.0,0.0,0.0,0.0,0.0,0.0,0.0,0.0,0.0,0.0,0.0,0.0,0.0,0.0,0.0,0.0,0.0,0.0,0.0,0.0,0.0,0.0,0.0,0.0,0.0,0.0,0.0,0.0,0.0,0.0,0.0,0.0,0.0,0.0,0.0,0.0,0.0,0.0,0.0,0.0,0.0,0.0,0.0,0.0,0.0,0.0,0.0,3.5224,3.6468,3.7199,3.6395,3.6135,3.6105,3.6307,3.6153,3.6057,0.0,0.0,0.0,0.0,0.0,0.0,0.0,0.0,0.0,0.0,0.0,0.0,0.0,0.0,0.0,0.0,0.0,0.0,0.0,0.0,0.0,0.0,0.0,0.0,0.0,0.0,0.0,0.0,0.0,0.0,0.0,0.0,0.0,0.0,0.0,0.0,0.0,0.0,0.0,0.0,0.0,0.0,0.0,0.0,0.0,0.0,0.0,0.0,0.0,0.0,0.0,0.0,0.0,0.0,0.0,0.0,0.0,0.0,0.0,0.0,0.0,0.0,0.0,0.0,0.0,0.0,0.0,0.0,0.0,0.0,0.0,0.0,0.0,0.0,0.0,0.0,0.0,0.0,0.0,0.0,0.0,0.0,0.0,0.0,0.0,0.0,0.0,0.0,0.0,0.0,0.0,0.0,0.0,0.0,0.0,0.0,0.0,0.0,0.0,0.0,0.0,0.0,0.0,3.6046,3.634,3.6795,3.7107,3.7081,3.7304,3.7936,3.7928,3.7863,3.7796,0.0,0.0,0.0,0.0,0.0,0.0,0.0,0.0,0.0,0.0,0.0,0.0,0.0,0.0,0.0,0.0,0.0,0.0,0.0,0.0,0.0,0.0,0.0,0.0,0.0,0.0,0.0,0.0,0.0,0.0,0.0,0.0,0.0,0.0,0.0,0.0,0.0,0.0,0.0,0.0,0.0,0.0,0.0,0.0,0.0,0.0,0.0,0.0,0.0,0.0,0.0,0.0,0.0,0.0,0.0,0.0,0.0,0.0,0.0,0.0,0.0,0.0,0.0,0.0,0.0,0.0,0.0,0.0,0.0,0.0,0.0,0.0,0.0,0.0,0.0,0.0,0.0,0.0,0.0,0.0,0.0,0.0,0.0,0.0,0.0,0.0,0.0,0.0,0.0,0.0,0.0,0.0,0.0,0.0,0.0,0.0,0.0,0.0,0.0,0.0,0.0,0.0,3.6923,3.7331,3.779,3.797,3.7988,3.8175,3.867,3.881,3.8818,3.8737,0.0,0.0,0.0,0.0,0.0,0.0,0.0,0.0,0.0,0.0,0.0,0.0,0.0,0.0,0.0,0.0,0.0,0.0,0.0,0.0,0.0,0.0,0.0,0.0,0.0,0.0,0.0,0.0,0.0,0.0,0.0,0.0,0.0,0.0,0.0,0.0,0.0,0.0,0.0,0.0,0.0,0.0,0.0,0.0,0.0,0.0,0.0,0.0,0.0,0.0,0.0,0.0,0.0,0.0,0.0,0.0,0.0,0.0,0.0,0.0,0.0,0.0,0.0,0.0,0.0,0.0,0.0,0.0,0.0,0.0,0.0,0.0,0.0,0.0,0.0,0.0,0.0,0.0,0.0,0.0,0.0,0.0,0.0,0.0,0.0,0.0,0.0,0.0,0.0,0.0,0.0,0.0,0.0,0.0,0.0,0.0,0.0,0.0,0.0,0.0,0.0,0.0,3.7849,3.8931,3.9608,3.8964,3.8891,3.8927,3.9001,3.9229,3.9365,3.9365,0.0,0.0,0.0,0.0,0.0,0.0,0.0,0.0,0.0,0.0,0.0,0.0,0.0,0.0,0.0,0.0,0.0,0.0,0.0,0.0,0.0,0.0,0.0,0.0,0.0,0.0,0.0,0.0,0.0,0.0,0.0,0.0,0.0,0.0,0.0,0.0,0.0,0.0,0.0,0.0,0.0,0.0,0.0,0.0,0.0,0.0,0.0,0.0,0.0,0.0,0.0,0.0,0.0,0.0,0.0,0.0,0.0,0.0,0.0,0.0,3.4517,0.0,0.0,0.0,0.0,0.0,0.0,0.0,0.0,0.0,0.0,0.0,0.0,0.0,0.0,0.0,0.0,0.0,0.0,0.0,0.0,0.0,0.0,0.0,0.0,0.0,0.0,0.0,0.0,0.0,0.0,0.0,0.0,0.0,0.0,0.0,0.0,0.0,0.0,0.0,0.0,0.0,3.8915,3.9229,3.9767,4.0229,4.0267,4.0547,4.1234,4.1344,4.1383,4.1383,4.1038,0.0,0.0,0.0,0.0,0.0,0.0,0.0,0.0,0.0,0.0,0.0,0.0,0.0,0.0,0.0,0.0,0.0,0.0,0.0,0.0,0.0,0.0,0.0,0.0,0.0,0.0,0.0,0.0,0.0,0.0,0.0,0.0,0.0,0.0,0.0,0.0,0.0,0.0,0.0,0.0,0.0,0.0,0.0,0.0,0.0,0.0,0.0,0.0,0.0,0.0,0.0,0.0,0.0,0.0,0.0,0.0,0.0,0.0,0.0,0.0,3.5865,0.0,0.0,0.0,0.0,0.0,0.0,0.0,0.0,0.0,0.0,0.0,0.0,0.0,0.0,0.0,0.0,0.0,0.0,0.0,0.0,0.0,0.0,0.0,0.0,0.0,0.0,0.0,0.0,0.0,0.0,0.0,0.0,0.0,0.0,0.0,0.0,0.0,0.0,0.0,0.0,4.0571,4.062,4.086,4.1274,4.1311,4.1499,4.1963,4.2158,4.2248,4.2248,4.2157,0.0,0.0,0.0,0.0,0.0,0.0,0.0,0.0,0.0,0.0,0.0,0.0,0.0,0.0,0.0,0.0,0.0,0.0,0.0,0.0,0.0,0.0,0.0,0.0,0.0,0.0,0.0,0.0,0.0,0.0,0.0,0.0,0.0,0.0,0.0,0.0,0.0,0.0,0.0,0.0,0.0,0.0,0.0,0.0,0.0,0.0,0.0,0.0,0.0,0.0,0.0,0.0,0.0,3.7243,3.7842,3.7938,3.7937,3.8211,3.8619,3.818,3.7705,3.7351,3.8039,0.0,0.0,0.0,0.0,0.0,0.0,0.0,0.0,0.0,0.0,0.0,0.0,0.0,0.0,0.0,0.0,0.0,0.0,0.0,0.0,0.0,0.0,0.0,0.0,4.1038,4.0965,0.0,0.0,0.0,0.0,0.0,0.0,0.0,0.0,0.0,0.0,0.0,0.0,4.2146,4.2158,4.2239,4.2403,4.239,4.2459,4.261,4.2889,4.3049,4.3049,4.3212,4.3319,0.0,0.0,0.0,0.0,0.0,0.0,0.0,0.0,0.0,0.0,0.0,0.0,0.0,0.0,0.0,0.0,0.0,0.0,0.0,0.0,0.0,0.0,0.0,0.0,0.0,0.0,0.0,0.0,0.0,0.0,0.0,0.0,3.2735,3.2796,0.0,0.0,0.0,0.0,0.0,0.0,0.0,0.0,0.0,0.0,0.0,0.0,0.0,3.4842,3.6586,3.6263,3.6915,3.8609,3.8296,3.8564,3.9339,3.9339,3.9435,3.9607,3.955,0.0,3.9257,3.9524,0.0,0.0,0.0,0.0,0.0,0.0,0.0,0.0,0.0,0.0,0.0,0.0,0.0,0.0,0.0,0.0,0.0,0.0,0.0,0.0,0.0,0.0,4.1063,4.1828,4.1978,4.2121,0.0,4.1819,4.0971,4.1648,4.1783,0.0,0.0,0.0,0.0,0.0,0.0,0.0,4.264,4.2823,4.3221,4.3922,4.3999,4.4287,4.5064,4.5177,4.5195,4.5195,4.4592,4.4229,4.4237,4.3497,0.0,0.0,0.0,0.0,0.0,0.0,0.0,0.0,0.0,0.0,0.0,0.0,0.0,0.0,0.0,0.0,0.0,0.0,0.0,0.0,0.0,0.0,0.0,0.0,0.0,0.0,0.0,0.0,0.0,3.3067,3.3141,3.3364,3.3067,3.2883,0.0,0.0,0.0,0.0,0.0,0.0,0.0,0.0,0.0,3.5812,3.5831,3.6279,3.7181,3.7392,3.8181,3.9538,3.9777,4.0366,4.1236,4.1239,4.1315,4.1485,4.1485,4.1256,4.0844,4.0174,3.9882,3.9865,0.0,0.0,0.0,0.0,4.0129,4.0148,4.0298,4.0348,0.0,4.053,0.0,0.0,0.0,0.0,0.0,0.0,0.0,0.0,0.0,0.0,4.2463,4.2844,4.2905,4.2992,4.3366,4.2851,4.2393,0.0,4.2671,4.2792,4.3151,0.0,0.0,0.0,0.0,4.4444,4.4278,4.4372,4.4607,4.4989,4.5037,4.519,4.5575,4.5618,4.5671,4.5671,4.5368,4.5186,4.5186,4.4774,4.4558,0.0,0.0,0.0,0.0,0.0,0.0,0.0,0.0,0.0,0.0,0.0,0.0,0.0,0.0,0.0,0.0,0.0,0.0,0.0,0.0,0.0,0.0,0.0,0.0,0.0,0.0,0.0,0.0,3.3748,3.3863,3.4086,3.4096,3.4073,0.0,0.0,0.0,0.0,0.0,0.0,3.6895,3.7103,3.7299,3.7499,3.7699,3.7936,3.8203,3.913,3.9943,4.0632,4.135,4.2029,4.2661,4.2671,4.2765,4.29,4.29,4.2656,4.2131,4.0936,4.0291,4.009,4.01,4.01,4.0109,4.0315,4.0411,4.0481,4.0907,4.1061,4.1111,4.1402,4.1514,4.157,4.157,0.0,0.0,0.0,0.0,4.2698,4.334,4.3521,4.3582,4.3831,4.3863,4.3927,4.4145,4.4166,4.4036,0.0,4.3602,4.3692,4.3898,0.0,0.0,0.0,0.0,4.5629,4.5575,4.5584,4.5601,4.5662,4.5643,4.5643,4.5643,4.57,4.5739,4.5739,4.5771,4.5807,4.5807,4.5771,4.5749,4.5749,0.0,0.0,0.0,0.0,0.0,0.0,0.0,0.0,0.0,0.0,0.0,0.0,0.0,0.0,0.0,0.0,0.0,0.0,0.0,0.0,0.0,0.0,0.0,0.0,0.0,0.0,0.0,0.0,0.0,3.5504,3.6227,0.0,0.0,0.0,0.0,3.7232,3.8068,3.8231,3.75,3.8173,3.8617,3.862,3.9352,4.0129,4.0907,4.2018,4.2585,4.2555,4.2923,4.3096,4.3076,4.3142,4.3176,4.3184,4.3184,4.3156,4.3057,4.2244,4.1366,4.0574,4.0621,4.0614,4.0574,4.0654,4.0687,4.081,4.1717,4.2039,4.2189,4.3074,4.3371,4.3374,4.3374,4.3377,0.0,0.0,4.3439,4.3454,4.358,4.3588,4.381,4.4706,4.4873,4.5067,4.5888,4.5958,4.5648,0.0,4.4711,4.4977,4.5807,0.0,4.5819,4.5821,4.5794,4.58,4.5792,4.5791,4.5793,4.5793,4.5793,4.5793,4.5793,4.58,4.58,4.58,4.58,4.5807,4.5807,4.5867,4.588,4.588,4.5041,0.0,0.0,0.0,0.0,0.0,0.0,0.0,0.0,0.0,0.0,0.0,0.0,0.0,0.0,0.0,0.0,0.0,0.0,0.0,0.0,0.0,0.0,0.0,0.0,0.0,0.0,0.0,0.0,3.6837,3.7097,0.0,3.7277,3.8254,3.8773,3.852,3.97,4.0415,4.0345,4.0558,4.0971,4.1585,4.1829,4.2119,4.2454,4.2838,4.3333,4.3863,4.3975,4.4325,4.4834,4.4863,4.487,4.4875,4.4875,4.4608,4.4139,4.3853,4.3172,4.2343,4.235,4.2389,4.2402,4.2427,4.2461,4.2551,4.2879,4.2992,4.3061,4.3436,4.355,4.3576,4.3615,4.362,4.3757,4.4305,4.4461,4.4599,4.5191,4.5349,4.5427,4.5761,4.5817,4.589,4.6199,4.6227,4.6119,4.5812,4.5634,4.5611,4.5972,4.5964,4.5908,4.5958,4.5914,4.5877,4.5917,4.5931,4.5947,4.5983,4.5993,4.5988,4.5983,4.5988,4.5988,4.5988,4.5988,4.5988,4.5988,4.5439,4.5138,4.5123,4.4872,4.4737,0.0,0.0,0.0,0.0,0.0,0.0,0.0,0.0,0.0,0.0,0.0,0.0,0.0,0.0,0.0,0.0,0.0,0.0,0.0,0.0,0.0,0.0,0.0,0.0,0.0,0.0,3.808,3.8299,3.8467,3.8642,3.8802,3.9955,4.0652,4.0534,4.1734,4.2459,4.2374,4.2613,4.2883,4.3218,4.3204,4.3204,4.3238,4.3264,4.3685,4.4525,4.4531,4.5006,4.5869,4.5861,4.5866,4.5866,4.5866,4.5585,4.5144,4.5138,4.4801,4.4201,4.3596,4.3398,4.3436,4.3439,4.3452,4.3559,4.3855,4.4185,4.4456,4.4496,4.4502,4.4523,4.455,4.457,4.4707,4.5273,4.5449,4.5566,4.6152,4.6308,4.6307,4.6306,4.6305,4.6305,4.6302,4.6301,4.6204,4.5929,4.5965,4.604,4.6091,4.6037,4.5972,4.6035,4.5983,4.5949,4.5983,4.6017,4.6054,4.6103,4.6099,4.6099,4.6098,4.6098,4.6098,4.6098,4.6098,4.6098,4.6098,4.5517,4.5202,4.5219,4.498,4.486,4.4869,0.0,0.0,0.0,0.0,0.0,0.0,0.0,0.0,0.0,0.0,0.0,0.0,0.0,0.0,0.0,0.0,0.0,0.0,0.0,0.0,0.0,0.0,0.0,3.8766,3.8917,3.9279,3.9893,4.0436,4.0974,4.1588,4.1968,4.2491,4.3233,4.4112,4.4221,4.3394,4.4131,4.4228,4.34,4.3443,4.3443,4.3375,4.3457,4.3878,4.4638,4.4638,4.5121,4.5993,4.6003,4.6007,4.6007,4.5968,4.5956,4.5955,4.5936,4.5958,4.5859,4.4214,4.3582,4.358,4.3571,4.3598,4.3727,4.4635,4.5541,4.6308,4.6269,4.6269,4.6269,4.6269,4.623,4.6211,4.625,4.6249,4.6229,4.6248,4.6265,4.6262,4.6282,4.6301,4.6301,4.6301,4.6301,4.6065,4.5238,4.5751,4.6319,4.6274,4.6165,4.6102,4.6105,4.6072,0.0,4.6051,4.6128,4.6188,4.6193,4.6193,4.6181,4.6183,4.6183,4.6183,4.6187,4.6187,4.6187,4.6187,4.6209,4.6184,4.6153,4.5402,4.5004,4.5043,0.0,0.0,0.0,0.0,0.0,0.0,0.0,0.0,0.0,0.0,0.0,0.0,0.0,0.0,0.0,0.0,0.0,0.0,0.0,0.0,0.0,0.0,4.0069,3.9242,3.9767,4.0549,4.1384,4.1582,4.1957,4.2763,4.3485,4.3744,4.333,4.4112,4.4518,4.4326,4.4499,4.4793,4.525,4.5223,4.523,4.5251,4.5274,4.5403,4.5613,4.5623,4.5755,4.6003,4.6005,4.6007,4.5968,4.5384,4.5158,4.5159,4.4513,4.4308,4.4431,4.5121,4.5404,4.5455,4.5469,4.5483,4.558,4.5837,4.6074,4.6191,4.5566,4.5351,4.5351,4.5351,4.4922,4.455,4.5175,4.49,4.4566,4.519,4.5365,4.5519,4.614,4.6295,4.6294,4.6309,4.6308,4.6424,4.6811,4.7086,4.6832,4.5581,4.5845,4.6247,4.6245,4.6762,0.0,4.7157,4.7682,4.8077,4.8115,4.809,4.8074,4.8129,4.8131,4.8132,4.8136,4.8136,4.8136,4.8136,4.6929,4.5972,4.5342,4.5107,4.5305,0.0,0.0,0.0,0.0,0.0,0.0,0.0,0.0,0.0,0.0,0.0,0.0,0.0,0.0,0.0,0.0,0.0,0.0,0.0,0.0,0.0,0.0,4.1353,4.1344,4.1096,4.1174,4.1732,4.2989,4.2827,4.2936,4.3794,4.4362,4.463,4.4487,4.4937,4.5255,4.5319,4.5292,4.553,4.6065,4.5347,4.4963,4.4994,4.4275,4.4089,4.445,4.4449,4.4647,4.4999,4.5019,4.5039,4.5019,4.453,4.4355,4.4355,4.3847,4.3651,0.0,0.0,0.0,0.0,0.0,4.5172,4.5215,4.5215,4.5449,4.5664,4.5156,4.5254,4.5547,4.5547,4.5195,4.4882,4.5409,4.5172,4.4915,4.54,4.5828,4.6215,4.6718,4.7108,4.7341,4.7356,4.7354,4.7393,4.7567,4.7859,0.0,4.6318,4.6788,4.7354,4.7354,4.7783,4.8097,4.8102,4.8509,4.8804,4.8854,4.8813,4.8835,4.8882,4.8904,0.0,0.0,0.0,4.8906,4.8906,4.7929,0.0,0.0,0.0,4.617,4.6308,0.0,0.0,0.0,4.6056,4.6027,0.0,0.0,0.0,0.0,0.0,0.0,0.0,0.0,0.0,0.0,0.0,0.0,0.0,0.0,0.0,0.0,4.2337,4.273,4.3542,4.2888,4.2896,4.4446,4.4009,4.3906,4.4785,4.4924,4.5276,4.605,4.6109,4.61,4.6051,0.0,0.0,0.0,0.0,4.3787,4.3885,4.2363,4.197,4.2744,4.2738,4.3136,4.3905,4.3958,4.3983,4.3983,4.3885,4.3843,4.384,4.3743,4.3695,4.3704,4.3801,4.3918,4.3998,4.3983,4.3984,4.3984,4.3984,0.0,0.0,4.5156,4.5664,4.6328,4.6426,4.6386,4.6328,4.6423,4.6381,4.6318,4.641,4.7027,4.7625,4.7703,4.8271,4.8798,4.8798,4.8798,4.8623,4.7996,4.8466,4.8759,4.8133,4.8466,4.8798,4.8798,4.8876,4.8954,4.8954,4.9032,4.9095,4.9082,0.0,0.0,4.9171,4.9175,4.9178,4.9178,4.9179,4.914,4.9043,4.9042,4.8632,4.7754,4.7753,4.7363,4.658,4.6593,4.6565,4.6498,4.6358,4.6337,0.0,0.0,0.0,0.0,0.0,0.0,0.0,0.0,0.0,0.0,0.0,0.0,0.0,0.0,0.0,4.2251,4.2873,4.3642,4.4516,4.446,4.4468,4.4799,4.466,4.4894,4.5819,4.5921,4.6006,4.6171,4.6182,4.5888,4.5193,4.5155,4.5155,4.5148,4.4813,4.4983,4.5694,4.5369,4.5289,4.5453,0.0,0.0,4.5696,4.5718,4.5718,4.5682,4.5026,4.4747,4.4699,4.3995,4.3708,4.3775,4.4478,4.5184,4.5794,4.5795,4.5799,4.5801,4.5801,4.5918,4.6055,4.6054,4.6151,4.6424,4.7144,4.6867,0.0,4.7154,4.6838,4.6461,4.716,4.7471,4.7762,4.8408,4.8681,4.8798,4.8798,4.8798,4.8954,4.9519,4.9733,5.0026,5.0575,4.9638,4.8798,4.8798,4.9403,4.985,4.985,5.0457,5.0906,5.0908,5.0908,5.0896,5.0929,5.0911,5.0913,5.0916,5.0917,5.0624,4.998,4.9941,4.9531,4.8672,4.8652,4.8574,4.8396,4.8395,4.8393,4.835,4.6897,4.6592,0.0,0.0,0.0,0.0,0.0,0.0,0.0,0.0,0.0,0.0,0.0,4.1618,0.0,0.0,4.3082,4.3528,4.3974,4.4546,4.5424,4.5584,4.5583,4.5543,4.5517,4.567,4.6156,4.6195,4.6204,4.6199,4.6198,4.6012,4.5619,4.5599,4.5591,4.5601,4.5187,4.5163,4.5604,4.5175,4.4941,4.4941,4.4946,4.4948,4.4948,4.4955,4.4957,4.4938,4.4514,4.4343,4.4348,4.4346,4.4834,4.5634,4.6083,4.5997,4.5657,4.5642,4.5937,4.6308,4.6307,4.6599,4.6951,4.6949,4.7241,4.7671,4.8118,4.7958,4.7681,4.8089,4.7891,4.7652,4.8096,4.8523,4.8953,4.9364,4.9774,5.0106,5.0106,5.0106,5.0223,5.0672,5.1102,5.1531,5.198,5.1687,5.1102,5.0223,5.0848,5.1394,5.1394,5.2156,5.2702,5.2702,5.2702,5.2706,5.2695,5.27,5.2706,5.2693,5.2693,5.2519,5.2129,5.2109,5.1699,5.082,5.0801,5.0585,5.0153,5.0153,5.0123,5.0028,4.9081,4.8447,0.0,0.0,0.0,0.0,0.0,0.0,0.0,0.0,4.098,4.1214,4.1816,4.2364,4.2539,4.3268,4.409,4.4795,4.5058,4.5428,4.6112,4.6126,4.609,4.6201,4.606,4.5961,4.5976,4.5976,4.6044,4.6211,4.6211,4.617,4.6048,4.6046,4.6046,4.6044,4.5373,4.5076,4.5252,4.4562,4.4209,4.4209,4.4216,4.4298,4.4454,4.4461,4.4543,4.468,4.468,4.4697,4.4752,4.5459,4.6526,4.7747,4.775,4.7022,4.5966,4.5798,4.6191,4.6816,4.6813,4.7258,4.7882,4.8037,4.8565,4.917,4.9324,4.9383,4.9362,4.9317,4.9316,4.9314,4.9308,4.9833,5.0358,5.0358,5.0887,5.1453,5.1629,5.1648,5.1707,5.1863,5.2468,5.2958,5.2958,5.3522,5.3522,5.2117,5.2507,5.2958,5.2958,5.3561,5.401,5.401,5.401,5.399,5.3992,5.4002,5.3991,5.4,5.4001,5.4002,5.4004,5.4004,5.3672,5.2969,5.2949,5.2596,5.1884,5.1884,5.1818,5.1654,5.1605,5.0758,4.0354,4.0416,4.0505,4.0629,4.0777,4.089,0.0,0.0,4.1214,4.1981,4.2236,4.256,4.3398,4.4219,4.4804,4.4966,4.5644,4.6171,4.6276,4.563,4.5437,4.6207,4.5602,4.5133,4.5129,4.5129,4.5458,4.623,4.6294,4.5941,4.5187,4.515,4.5146,4.5154,4.5057,4.5369,4.615,4.606,4.6005,4.6005,4.6005,4.6415,4.7157,4.7157,4.7549,4.8232,4.8232,4.8222,4.8242,4.8322,4.848,4.8647,4.8656,4.9013,4.9444,4.8667,4.8469,4.8613,4.8613,4.8669,4.8877,4.9595,4.9887,5.0119,5.0892,5.1125,5.1123,5.1103,5.1103,5.1103,5.1102,5.118,5.1258,5.1258,5.1336,5.1609,5.2392,5.2548,5.278,5.3561,5.3795,5.3854,5.3854,5.3932,5.3932,5.3737,5.3795,5.3854,5.3854,5.3932,5.401,5.401,5.401,5.3994,5.4003,5.4005,5.4008,5.3996,5.3997,5.3999,5.4002,5.4003,5.3945,5.3867,5.3848,5.3786,5.362,5.362,5.3517,5.3321,5.3327,5.2776,4.1311,4.1534,0.0,0.0,4.2075,4.1847,4.2319,4.2045,4.1945,4.2812,4.3437,4.3925,4.4338,4.5125,4.5714,0.0,4.6057,4.6295,4.6299,4.5988,4.5697,4.5559,4.523,4.519,4.5713,4.5768,4.5901,4.6269,4.6291,4.6134,4.5773,4.6241,4.6513,4.6507,4.6977,4.7387,4.7758,4.7742,4.7744,4.7744,4.7744,4.7959,4.8308,4.8259,4.8376,4.8623,4.8714,4.9016,4.9458,4.9525,4.9868,5.0256,4.9753,4.9772,5.0067,4.9688,4.9897,5.0351,5.035,5.0343,5.0409,5.0757,5.0853,5.0912,5.1299,5.1394,5.1394,5.1394,5.1394,5.1511,5.2019,5.2156,5.2273,5.28,5.2917,5.3014,5.3385,5.3463,5.3561,5.3932,5.44,5.4752,5.4752,5.5181,5.5513,5.5513,5.5083,5.4752,5.4752,5.5201,5.5513,5.5513,5.5513,5.5515,5.5519,5.5479,5.5447,5.5449,5.5426,5.5397,5.5409,5.54,5.5394,5.5394,5.5367,5.5285,5.519,5.519,5.5346,5.5644,5.5556,5.5543,4.2023,0.0,0.0,4.3045,4.275,4.245,4.3005,4.2851,4.2829,4.3712,4.4438,4.4969,4.5211,4.5818,4.6186,4.5952,4.5917,4.5923,4.5948,4.5735,4.5522,4.5385,4.5152,4.5325,4.6153,4.6057,4.6037,4.627,4.6291,4.6408,4.6656,4.7229,4.765,4.7906,4.8432,4.8713,4.8713,4.8713,4.8713,4.8713,4.8713,4.8833,4.9084,4.9285,4.9313,4.919,4.9327,4.9707,5.0216,5.0313,5.0725,5.1232,5.0586,5.0352,5.0358,5.0386,5.0669,5.1074,5.1326,5.1395,5.1403,5.1408,5.1403,5.1435,5.166,5.1735,5.1806,5.2033,5.2094,5.2232,5.2845,5.3002,5.3159,5.3784,5.3939,5.4017,5.4251,5.429,5.4369,5.4622,5.5169,5.5599,5.5599,5.6126,5.6535,5.6535,5.6204,5.5888,5.5673,5.6186,5.6567,5.6555,5.6751,5.6907,5.6907,5.707,5.7183,5.7199,5.7131,5.7099,5.7086,5.7084,5.7092,5.7092,5.7037,5.6928,5.6756,5.6756,5.6973,5.7371,5.7273,5.7508,0.0,0.0,4.2298,4.2252,4.2261,4.2282,4.2258,4.2914,4.3805,4.4679,4.4884,4.515,4.6011,4.6178,4.5936,4.508,4.4943,4.4977,4.5024,4.4317,4.4397,4.6052,4.5519,4.5285,0.0,4.5453,4.5392,4.6243,4.6308,4.6664,4.7524,4.7462,4.7798,4.8639,4.857,4.851,4.851,4.851,4.851,4.851,4.851,4.8943,4.979,5.0713,5.1054,5.093,5.1064,5.1054,5.0969,5.0975,5.0994,5.1014,5.0975,5.0975,5.0986,5.1118,5.0738,5.0267,5.1113,5.1404,5.1399,5.1406,5.1399,5.1558,5.2323,5.261,5.2829,5.3593,5.3828,5.3827,5.3783,5.3771,5.3771,5.3791,5.3811,5.4047,5.4888,5.5066,5.532,5.6159,5.6354,5.6374,5.6374,5.6393,5.6413,5.6413,5.7096,5.7374,5.6655,5.6536,5.6483,5.6419,5.7155,5.7662,5.7662,5.8441,5.8927,5.8927,5.8858,5.8815,5.8815,5.8815,5.8831,5.8831,5.8827,5.869,5.842,5.842,5.8297,5.8066,5.8073,5.804,0.0,0.0,4.3301,4.3841,4.4018,4.4168,4.4671,4.4575,4.4635,4.5514,4.5694,4.5802,4.6148,4.6198,4.5928,4.5089,4.5459,4.56,4.4953,4.5113,4.5477,4.5979,4.5787,0.0,0.0,0.0,0.0,4.6025,4.608,4.6454,4.7291,4.7838,4.8525,4.9401,4.9898,5.0161,5.0161,5.0161,5.0161,5.0161,5.0161,5.0293,5.0542,5.0869,5.0923,5.0814,5.0944,5.0978,5.0937,5.0991,5.1002,5.0944,5.04,5.0536,5.1022,5.1141,5.138,5.169,5.2062,5.2205,5.2275,5.2815,5.2996,5.304,5.3305,5.3406,5.3489,5.3754,5.3829,5.3963,5.4517,5.4669,5.4806,5.5391,5.5528,5.5608,5.5901,5.596,5.6057,5.6331,5.6877,5.7267,5.7267,5.7736,5.8124,5.8124,5.7873,5.7824,5.8157,5.8171,5.8141,5.8126,5.8397,5.8553,5.8553,5.879,5.8937,5.8937,5.8866,5.8832,5.8832,5.8746,5.8697,5.8697,5.8614,5.8477,5.8306,5.8306,5.8468,5.8834,5.8834,5.9109,0.0,4.3607,4.3805,4.467,4.4899,4.5037,4.555,4.5472,4.5456,4.5978,4.6126,4.6057,4.5776,4.5735,4.5343,4.4153,4.4699,4.503,4.4366,4.5013,4.5644,4.5872,4.5896,4.5885,0.0,0.0,0.0,4.5905,4.5944,4.6455,4.76,4.8161,4.8973,5.0157,5.066,5.0896,5.0896,5.0896,5.0896,5.0896,5.0896,5.0863,5.0825,5.0882,5.0836,5.0702,5.0841,5.0882,5.0825,5.0871,5.107,5.1276,5.0746,5.1056,5.1806,5.1968,5.2349,5.282,5.2968,5.3022,5.3113,5.3627,5.3791,5.3862,5.4176,5.4262,5.4313,5.4605,5.4697,5.4827,5.5372,5.5521,5.5677,5.6227,5.6363,5.6441,5.6753,5.6831,5.6909,5.7198,5.7705,5.8094,5.8094,5.8562,5.903,5.9342,5.8913,5.8667,5.893,5.8952,5.8962,5.8933,5.9206,5.9397,5.9397,5.9635,5.9788,5.9788,5.9717,5.9665,5.9665,5.9525,5.9465,5.9465,5.9369,5.9246,5.9092,5.9092,5.9298,5.9657,5.9364,5.949,4.3591,4.3624,4.3866,4.4685,4.4926,4.4965,4.4966,4.5605,4.6181,4.6122,4.6154,4.5936,0.0,0.0,4.4339,4.2403,4.2903,4.347,4.3308,4.4069,4.4954,0.0,0.0,0.0,0.0,0.0,0.0,4.5878,0.0,4.6649,4.8399,4.8367,4.9105,5.0835,5.0775,5.0712,5.0712,5.0712,5.0712,5.0712,5.0712,5.0712,5.0693,5.0825,5.0827,5.0702,5.0825,5.0846,5.077,5.077,5.1241,5.1962,5.1962,5.25,5.3281,5.3488,5.3594,5.365,5.3861,5.3894,5.3868,5.3907,5.3926,5.4084,5.4902,5.5165,5.5316,5.609,5.6303,5.63,5.6309,5.6291,5.6311,5.635,5.6369,5.6602,5.7463,5.7658,5.7891,5.8642,5.8836,5.8875,5.8926,5.8926,5.9198,6.0033,6.015,5.9886,5.9124,5.9022,5.9006,5.8946,5.9671,6.0157,6.0176,6.0927,6.1386,6.1386,6.1278,6.1182,6.1182,6.106,6.0987,6.0987,6.0976,6.09,6.0697,6.0736,6.07,6.055,5.9766,5.9402,4.3604,4.407,4.4611,4.4838,4.5384,4.5866,4.5877,4.599,4.6126,4.6177,4.6185,4.594,0.0,0.0,0.0,4.2486,4.3843,0.0,4.3269,4.4334,0.0,4.55,0.0,4.556,4.5643,4.5695,0.0,0.0,4.5752,4.646,4.8116,4.826,4.9054,5.0709,5.0721,5.0712,5.0712,5.0712,5.0712,5.0712,5.0712,5.0712,5.0693,5.074,5.074,5.0693,5.075,5.1058,5.1587,5.1587,5.2106,5.2876,5.2876,5.3395,5.4195,5.4347,5.4821,5.5388,5.5598,5.523,5.4803,5.5447,5.5658,5.5694,5.5925,5.5994,5.605,5.6236,5.6308,5.6296,5.6304,5.6291,5.6466,5.7114,5.7269,5.7502,5.8311,5.8486,5.8545,5.8758,5.9322,5.9949,6.0484,6.0593,6.0651,6.0883,6.0885,6.0824,6.0767,6.0767,6.0754,6.074,6.0844,6.0965,6.1063,6.1131,6.1197,6.1252,6.118,6.1137,6.1137,6.0941,6.0867,6.091,6.0781,6.0704,6.0697,6.1338,6.1627,6.1536,6.1985,6.2145,4.4072,4.453,4.4994,4.5371,4.5848,4.6204,4.6196,4.6162,4.6138,4.6108,4.6104,0.0,0.0,0.0,0.0,0.0,0.0,0.0,4.3068,4.4026,4.4976,0.0,4.54,0.0,4.5631,4.5684,4.5855,0.0,4.6238,4.6788,4.8075,4.8554,4.9373,5.0654,5.0712,5.0712,5.0712,5.0712,5.0712,5.0712,5.0712,5.0712,5.0712,5.0712,5.0894,5.1221,0.0,5.1702,5.2462,5.2462,5.2991,5.378,5.378,5.4299,5.5032,5.519,5.5552,5.6029,5.6163,5.5895,5.5565,5.613,5.6252,5.6213,5.6285,5.6252,5.629,5.6751,5.6835,5.6873,5.7295,5.7331,5.7397,5.7945,5.804,5.823,5.9056,5.9231,5.9347,5.9735,6.0208,6.0677,6.1072,6.1161,6.1161,6.1161,6.1116,6.1136,6.1259,6.1267,6.1267,6.1267,6.1206,6.1178,6.1267,6.1162,6.1117,6.1161,6.107,6.1012,6.1012,6.1244,6.1389,6.1442,6.1668,6.1786,6.1799,6.2279,6.249,6.2438,6.2574,6.2599,4.4663,4.4972,4.5241,4.5994,4.6165,4.6162,4.6154,4.615,4.6106,4.5977,0.0,4.5656,4.4679,4.458,4.3982,4.2024,0.0,4.305,4.2813,4.347,4.4332,4.5275,4.5381,4.5505,4.583,4.5866,4.6194,4.7013,4.7187,4.7572,4.8314,4.9037,4.9808,5.0673,5.0693,5.0693,5.0712,5.0693,5.0693,5.0712,5.0712,5.0712,5.0712,5.0808,5.1241,5.1904,5.2019,5.2558,5.3376,5.3376,5.3876,5.4664,5.4664,5.5088,5.5724,5.5856,5.5932,5.602,5.6075,5.6094,5.6109,5.6239,5.6192,5.6133,5.6361,5.6352,5.647,5.7435,5.7632,5.7723,5.8554,5.8637,5.8555,5.8787,5.8764,5.8904,5.9774,5.9968,6.02,6.0925,6.1089,6.1089,6.108,6.108,6.108,6.108,6.1061,6.1061,6.1061,6.108,6.1099,6.1099,6.108,6.1118,6.1273,6.1244,6.1293,6.1399,6.128,6.1216,6.1216,6.1867,6.2243,6.2274,6.2942,6.3251,6.3201,6.3316,6.3348,6.3276,6.2714,6.2426,4.4663,4.5439,4.5971,4.6016,4.6022,4.6012,4.5896,4.5821,0.0,0.0,0.0,4.5505,4.4659,4.4955,0.0,4.2104,0.0,0.0,0.0,0.0,4.4209,0.0,0.0,0.0,0.0,0.0,0.0,0.0,0.0,4.9084,4.9201,4.9383,4.9864,5.0673,5.0702,5.0712,5.0712,5.0712,5.0712,5.0712,5.0712,5.0712,5.0731,5.1395,5.1769,5.1942,5.2654,0.0,5.426,5.426,5.4761,5.5491,5.5491,5.5568,5.5724,5.5856,5.5932,5.5993,5.601,5.604,5.6102,5.6136,5.6083,5.6153,5.6897,5.711,5.7267,5.8116,5.8321,5.8351,5.8504,5.8525,5.8691,5.9425,5.959,5.9813,6.0683,6.0867,6.0896,6.0923,6.1022,6.107,6.0962,6.0922,6.0922,6.0922,6.0886,6.085,6.085,6.0991,6.1099,6.1099,6.1002,6.1272,6.2095,6.202,6.2262,6.3025,6.2953,6.2882,6.2882,6.2956,6.304,6.3089,6.3124,6.3162,6.3201,6.3924,6.4276,6.4263,6.4904,6.5218,4.5137,4.5782,4.6051,4.5894,4.584,4.5835,4.5764,0.0,0.0,0.0,0.0,4.5456,4.4989,0.0,0.0,0.0,0.0,0.0,0.0,0.0,0.0,0.0,0.0,0.0,0.0,0.0,0.0,0.0,0.0,4.9413,4.9451,4.9874,5.0307,5.0683,5.0739,5.0739,5.0702,5.0711,5.0692,5.0712,5.0712,5.0914,5.1337,5.1712,5.2385,5.328,5.3703,0.0,5.5126,5.5126,5.5338,5.5703,5.5703,5.5703,5.5714,5.5766,5.5856,5.6018,5.6434,5.6597,5.6699,5.7164,5.6973,5.6733,5.7648,5.7901,5.8047,5.8924,5.9157,5.9244,5.9726,5.9775,5.9801,6.0258,6.0343,6.0427,6.0852,6.0929,6.0918,6.0864,6.0897,6.0918,6.0853,6.0842,6.0842,6.0842,6.0816,6.0954,6.1416,6.1558,6.1623,6.1623,6.1935,6.2348,6.2827,6.2775,6.2921,6.3365,6.3344,6.3288,6.3288,6.3687,6.3937,6.3993,6.4353,6.4571,6.4597,6.5032,6.5225,6.5244,6.5692,6.5897,4.555,4.5944,4.5896,4.5696,4.566,4.5645,4.5615,4.5607,0.0,0.0,4.5455,4.5419,4.5319,0.0,0.0,0.0,0.0,0.0,0.0,0.0,0.0,0.0,0.0,0.0,0.0,0.0,0.0,0.0,0.0,0.0,4.9702,5.0308,5.0654,5.0654,5.072,5.072,5.0683,5.0692,5.0692,5.0712,5.0712,5.1125,5.1904,5.2096,5.3029,5.4511,5.4684,0.0,5.5703,5.5703,5.5703,5.5703,5.5703,5.5703,5.5703,5.5703,5.5892,5.6252,5.6859,5.7206,5.7515,5.8363,5.8063,5.7533,5.8452,5.8683,5.8836,5.9746,5.9976,6.0108,6.0838,6.0927,6.0804,6.0875,6.085,6.08,6.08,6.08,6.08,6.08,6.08,6.08,6.08,6.08,6.0858,6.105,6.1069,6.1377,6.2243,6.2512,6.2627,6.2627,6.3031,6.3378,6.357,6.3589,6.3666,6.3858,6.3858,6.3858,6.3858,6.4512,6.4878,6.4878,6.5551,6.5897,6.5897,6.5897,6.5897,6.5897,6.5897,6.5897,4.5519,4.5724,4.5689,4.5547,4.5516,4.5491,4.537,0.0,0.0,4.5319,4.5309,4.5309,4.5307,4.5307,0.0,0.0,0.0,4.3021,0.0,0.0,0.0,0.0,0.0,0.0,0.0,0.0,0.0,0.0,0.0,5.0396,5.0406,5.0483,5.0521,5.0521,5.0567,5.0615,5.0613,5.0673,5.0692,5.0712,5.0712,5.1125,5.1923,5.2712,5.3606,5.453,5.5261,0.0,0.0,5.5703,5.5703,5.5703,5.5703,5.5703,5.5703,5.5703,5.6258,5.6984,5.7007,5.7578,5.8411,5.9152,5.885,5.833,5.9149,5.94,5.9592,6.0469,6.0689,6.0727,6.0816,6.0804,6.0812,6.0812,6.0793,6.08,6.08,6.08,6.08,6.08,6.08,6.08,6.08,6.08,6.1069,6.187,6.1985,6.2262,6.3089,6.3878,6.4378,6.4378,6.3743,6.3628,6.4416,6.4474,6.482,6.5609,6.5647,6.5647,6.5647,6.5743,6.5782,6.5782,6.5859,6.5897,6.5897,6.5897,6.5897,6.5897,6.5897,6.5859,4.5345,4.5483,4.5442,4.5333,4.5282,4.522,4.5129,0.0,0.0,4.4444,4.4794,4.5028,4.4552,4.4911,4.5182,0.0,0.0,0.0,0.0,0.0,0.0,0.0,0.0,0.0,0.0,0.0,0.0,0.0,0.0,5.0371,5.0371,5.0489,5.0563,5.0566,5.0635,5.0673,5.073,5.0711,5.0711,5.0712,5.1193,5.1856,5.2712,5.3587,5.4434,5.5241,5.5549,0.0,0.0,5.5703,5.5703,5.5703,5.5703,5.5703,5.5761,5.6291,5.6716,5.7172,5.8168,5.8756,5.9202,6.0023,6.0069,5.9858,6.0185,6.0281,6.0339,6.0704,6.08,6.08,6.08,6.08,6.08,6.08,6.08,6.08,6.08,6.08,6.08,6.08,6.08,6.08,6.08,6.1243,6.1697,6.2062,6.2512,6.3128,6.3974,6.4397,6.4801,6.532,6.507,6.5013,6.5359,6.5378,6.5532,6.5878,6.5897,6.5897,6.5897,6.5897,6.5897,6.5897,6.5897,6.5897,6.5897,6.5897,6.5897,6.5897,6.5897,6.5885,4.5199,4.5284,4.5223,4.5184,4.5136,4.5091,0.0,0.0,4.4478,4.3831,4.4254,4.457,4.401,4.4679,4.522,4.4953,0.0,4.327,0.0,0.0,0.0,0.0,0.0,0.0,0.0,0.0,0.0,0.0,5.0302,5.0302,5.0302,5.0416,5.0513,5.0536,5.0635,5.0682,5.0738,5.072,5.0817,5.1086,5.1645,5.2481,5.3606,5.4222,5.4934,5.5703,5.5703,0.0,0.0,5.5703,5.5703,5.5703,5.5703,5.5857,5.6145,5.6772,5.7311,5.7896,5.9088,5.9665,5.9992,6.0589,6.08,6.08,6.08,6.08,6.08,6.08,6.08,6.08,6.08,6.08,6.08,6.08,6.08,6.08,6.08,6.08,6.08,6.08,6.08,6.0877,6.1127,6.1697,6.2274,6.2774,6.332,6.4012,6.4878,6.4974,6.5224,6.582,6.5897,6.5897,6.5897,6.5897,6.5897,6.5897,6.5897,6.5897,6.5897,6.5897,6.5897,6.5897,6.5897,6.5897,6.5897,6.5897,6.5897,6.5897,6.5897,6.5763,4.5132,4.5095,4.5103,4.5103,4.5103,4.5091,0.0,0.0,4.3787,4.3718,4.3817,4.3915,4.3896,4.4679,4.501,4.414,4.3329,0.0,0.0,0.0,0.0,0.0,0.0,0.0,0.0,0.0,0.0,0.0,5.0302,0.0,5.0302,5.0302,5.0325,5.0401,5.0521,5.0595,5.0587,5.0673,5.1135,5.1992,5.1934,5.2818,5.4491,5.4491,5.4934,5.5703,0.0,0.0,0.0,5.5703,5.5703,5.5703,5.5703,5.6233,5.6983,5.7003,5.805,5.9473,5.9492,6.0069,6.0781,6.08,6.08,6.08,6.08,6.08,6.08,6.08,6.08,6.08,6.08,6.08,6.08,6.08,6.08,6.08,6.08,6.08,6.08,6.08,6.08,6.1069,6.1947,6.2101,6.2659,6.432,6.4589,6.4897,6.5763,6.5878,6.5878,6.5897,6.5897,6.5897,6.5897,6.5897,6.5897,6.5897,6.5897,6.5897,6.5897,6.5897,6.5897,6.5897,6.5897,6.5897,6.5897,6.5897,6.5897,6.5897,6.5897,6.541,4.5038,4.501,4.4967,4.5014,4.501,4.4931,4.4808,0.0,4.3391,4.268,4.2636,4.2562,4.2025,4.2753,4.3359,4.3082,4.24,0.0,0.0,0.0,0.0,0.0,0.0,0.0,0.0,0.0,0.0,5.029,5.0302,5.0302,5.0302,5.0337,5.039,5.0401,5.0446,5.0523,5.0673,5.0644,5.1116,5.2077,5.2569,5.3395,5.4511,5.5068,5.5453,0.0,0.0,0.0,0.0,5.5703,5.5703,5.5703,5.5703,5.6233,5.708,5.7665,5.8569,5.9588,6.0185,6.0569,6.08,6.08,6.08,6.08,6.08,6.08,6.08,6.08,6.08,6.08,6.08,6.08,6.08,6.08,6.08,6.08,6.08,6.08,6.08,6.08,6.1293,6.1793,6.2062,6.3051,6.3993,6.4512,6.5109,6.559,6.5859,6.5897,6.5897,6.5897,6.5897,6.5897,6.5897,6.5897,6.5897,6.5897,6.5897,6.5897,6.5897,6.5897,6.5897,6.5897,6.5897,6.5897,6.5897,6.5897,6.5897,6.5897,6.5897,6.5731,0.0,4.4931,4.4907,4.4943,4.4919,0.0,0.0,0.0,4.2819,4.2164,4.1883,4.1592,4.1095,4.1878,4.2487,4.2163,0.0,0.0,0.0,0.0,0.0,0.0,0.0,0.0,0.0,0.0,4.9897,5.0107,5.0224,5.0302,5.0302,5.0337,5.0348,5.0348,5.0412,5.0523,5.0701,5.0922,5.1568,5.2558,5.333,5.4126,5.4972,5.5472,5.5703,0.0,5.5703,5.5703,0.0,5.5703,5.5703,5.5722,5.6049,5.6722,5.7588,5.8434,5.9281,6.0069,6.0608,6.08,6.08,6.08,6.08,6.08,6.08,6.08,6.08,6.08,6.08,6.08,6.08,6.08,6.08,6.08,6.08,6.08,6.08,6.08,6.0896,6.1223,6.1735,6.2312,6.2916,6.3916,6.4705,6.5032,6.5551,6.5897,6.5897,6.5897,6.5897,6.5897,6.5897,6.5897,6.5897,6.5897,6.5897,6.5897,6.5897,6.5897,6.5897,6.5897,6.5897,6.5897,6.5897,6.5897,6.5897,6.5897,6.5897,6.5897,6.5897,6.5897,0.0,0.0,0.0,0.0,0.0,0.0,0.0,0.0,0.0,4.2115,4.1456,4.0913,4.0913,4.1692,4.2121,4.1379,0.0,0.0,0.0,0.0,0.0,0.0,0.0,0.0,0.0,4.8881,4.9218,4.9716,5.0051,5.0236,5.0248,5.0259,5.0278,5.0302,5.0416,5.0544,5.0682,5.1431,5.2288,5.3301,5.4109,5.4914,5.5703,5.5703,5.5703,0.0,5.5703,5.5703,5.5703,5.5703,5.5742,5.5857,5.6676,5.7569,5.8492,5.9223,6.005,6.08,6.08,6.08,6.08,6.08,6.08,6.08,6.08,6.08,6.08,6.08,6.08,6.08,6.08,6.08,6.08,6.08,6.08,6.0819,6.0877,6.0877,6.1146,6.2024,6.2235,6.2774,6.4339,6.4647,6.4974,6.5782,6.5897,6.5897,6.5897,6.5897,6.5897,6.5897,6.5897,6.5897,6.5897,6.5897,6.5897,6.5897,6.5897,6.5897,6.5897,6.5897,6.5897,6.5897,6.5897,6.5897,6.5897,6.5897,6.5897,6.5897,6.5897,6.5897,0.0,0.0,0.0,0.0,0.0,0.0,0.0,0.0,0.0,0.0,0.0,3.992,3.992,3.9977,4.0184,0.0,0.0,0.0,0.0,0.0,0.0,0.0,0.0,0.0,0.0,4.8915,4.9211,4.9336,4.9453,4.966,4.9897,4.9929,5.0038,5.029,5.0325,5.0416,5.0544,5.1387,5.2274,5.3233,5.4098,5.4914,5.5703,5.5703,5.5703,5.5703,5.5703,5.5703,5.5703,5.5703,5.6088,5.6714,5.6926,5.7915,5.9242,5.9435,6.005,6.08,6.08,6.08,6.08,6.08,6.08,6.08,6.08,6.08,6.08,6.08,6.08,6.08,6.08,6.08,6.08,6.08,6.08,6.0973,6.1658,6.1793,6.2031,6.2858,6.3551,6.4147,6.4532,6.5147,6.5647,6.5859,6.5897,6.5897,6.5897,6.5897,6.5897,6.5897,6.5897,6.5897,6.5897,6.5897,6.5897,6.5897,6.5897,6.5897,6.5897,6.5897,6.5897,6.5897,6.5897,6.5897,6.5897,6.5897,6.5897,6.5897,6.5897,6.5897,0.0,0.0,0.0,0.0,0.0,0.0,0.0,0.0,0.0,0.0,0.0,0.0,3.9842,0.0,0.0,0.0,0.0,0.0,0.0,0.0,0.0,0.0,0.0,0.0,0.0,4.8639,4.89,4.8969,4.9177,4.9453,4.9771,4.9803,4.9955,5.029,5.0302,5.0359,5.05,5.1683,5.2582,5.3222,5.44,5.5226,5.5703,5.5703,5.5703,5.5703,5.5703,5.5703,5.5703,5.5703,5.6214,5.7041,5.7434,5.8377,5.955,5.9954,6.0396,6.08,6.08,6.08,6.08,6.08,6.08,6.08,6.08,6.08,6.08,6.08,6.08,6.08,6.08,6.08,6.08,6.08,6.1108,6.1543,6.2005,6.2377,6.2897,6.3743,6.4282,6.4724,6.5128,6.559,6.5897,6.5897,6.5897,6.5897,6.5897,6.5897,6.5897,6.5897,6.5897,6.5897,6.5897,6.5897,6.5897,6.5897,6.5897,6.5897,6.5897,6.5897,6.5897,6.5897,6.5897,6.5897,6.5897,6.5897,6.5897,6.5897,6.5897,6.5897,0.0,0.0,0.0,0.0,0.0,0.0,0.0,0.0,0.0,0.0,0.0,0.0,0.0,0.0,0.0,0.0,0.0,0.0,0.0,0.0,0.0,0.0,0.0,0.0,4.7992,4.827,4.8477,4.8568,4.8951,4.9317,4.9702,4.9716,4.9897,5.029,5.0302,5.0425,5.067,5.21,5.2981,5.3383,5.4821,5.5573,5.5703,5.5703,5.5703,5.5703,0.0,0.0,5.5703,5.5703,5.628,5.7272,5.8011,5.8877,5.9781,6.0531,6.08,6.08,6.08,6.08,6.08,6.08,6.08,6.08,6.08,6.08,6.08,6.08,6.08,6.08,6.08,6.0896,6.0993,6.0993,6.1647,6.2332,6.2447,6.3012,6.3762,6.4628,6.4801,6.5032,6.5763,6.5897,6.5897,6.5897,6.5897,6.5897,6.5897,6.5897,6.5897,6.5897,6.5897,6.5897,6.5897,6.5897,6.5897,6.5897,6.5897,6.5897,6.5897,6.5897,6.5897,6.5897,6.5897,6.5897,6.5897,6.5897,6.5897,6.5897,6.5897,6.582,4.2277,0.0,0.0,0.0,0.0,0.0,0.0,0.0,0.0,0.0,0.0,0.0,0.0,0.0,0.0,0.0,0.0,0.0,0.0,0.0,0.0,0.0,0.0,4.7992,4.7992,4.8034,4.8093,4.8093,4.8307,4.871,4.9329,4.9378,4.9674,5.029,5.0302,5.0646,5.1415,5.2339,5.3252,5.4139,5.5055,5.5573,5.5703,5.5703,5.5703,5.5703,0.0,5.5703,5.5703,5.5703,5.6646,5.8107,5.8261,5.9242,6.0608,6.0742,6.08,6.08,6.08,6.08,6.08,6.08,6.08,6.08,6.08,6.08,6.08,6.08,6.08,6.08,6.08,6.1351,6.1908,6.1908,6.2512,6.332,6.407,6.432,6.4666,6.5532,6.5705,6.5743,6.5878,6.5897,6.5897,6.5897,6.5897,6.5897,6.5897,6.5897,6.5897,6.5897,6.5897,6.5897,6.5897,6.5897,6.5897,6.5897,6.5897,6.5897,6.5897,6.5897,6.5897,6.5897,6.5897,6.5897,6.5897,6.5897,6.5897,6.5897,6.5897,6.5493,4.1389,4.1603,0.0,0.0,0.0,0.0,0.0,0.0,0.0,0.0,0.0,0.0,0.0,0.0,0.0,0.0,0.0,0.0,0.0,0.0,0.0,0.0,0.0,4.7992,4.7992,4.797,4.7968,4.7992,4.8149,4.8495,4.8999,4.919,4.9527,5.0006,5.0212,5.0932,5.2251,5.2539,5.3225,5.4308,5.503,5.5504,5.5703,5.5703,5.5703,5.5703,0.0,5.5703,5.5742,5.6214,5.7146,5.8338,5.8781,5.9704,6.08,6.08,6.08,6.08,6.08,6.08,6.08,6.08,6.08,6.08,6.08,6.08,6.08,6.08,6.08,6.0916,6.1377,6.1812,6.2216,6.2647,6.3397,6.4109,6.4512,6.4974,6.5416,6.582,6.5897,6.5897,6.5897,6.5897,6.5897,6.5897,6.5897,6.5897,6.5897,6.5897,6.5897,6.5897,6.5897,6.5897,6.5897,6.5897,6.5897,6.5897,6.5897,6.5897,6.5897,6.5897,6.5897,6.5897,6.5897,6.5897,6.5897,6.5897,6.5647,6.5205,6.5205,6.4724,4.0437,4.0772,4.1552,0.0,0.0,0.0,0.0,0.0,0.0,0.0,0.0,0.0,0.0,0.0,0.0,0.0,0.0,0.0,0.0,0.0,0.0,4.8122,4.8131,4.7992,4.7992,4.7945,4.7925,4.7992,4.811,4.8382,4.8781,4.9048,4.9378,4.9803,5.0051,5.1025,5.2785,5.2666,5.3277,5.4595,5.5065,5.5444,5.5703,5.5703,5.5703,5.5703,5.5703,5.5703,5.5761,5.6637,5.7511,5.8377,5.9184,6.0031,6.08,6.08,6.08,6.08,6.08,6.08,6.08,6.08,6.08,6.08,6.08,6.08,6.0839,6.105,6.1089,6.1262,6.1928,6.2389,6.2839,6.3455,6.4282,6.4897,6.4897,6.5436,6.5897,6.5897,6.5897,6.5897,6.5897,6.5897,6.5897,6.5897,6.5897,6.5897,6.5897,6.5897,6.5897,6.5897,6.5897,6.5897,6.5897,6.5897,6.5897,6.5897,6.5897,6.5897,6.5897,6.5897,6.5897,6.5897,6.5897,6.5897,6.5897,6.5705,6.5243,6.4609,6.4397,6.3839,3.924,3.9259,3.9542,4.0558,0.0,0.0,0.0,0.0,0.0,0.0,0.0,0.0,0.0,0.0,0.0,0.0,0.0,0.0,4.5608,0.0,4.6507,4.8122,4.8131,4.7992,4.7992,4.7945,4.7925,4.7992,4.811,4.8382,4.8781,4.8833,4.9129,4.9771,4.983,5.0792,5.2785,5.2666,5.355,5.5408,5.5351,5.5444,5.5703,5.5703,5.5703,5.5703,5.5703,5.5703,5.5761,5.6637,5.7511,5.8377,5.9184,6.0031,6.08,6.08,6.08,6.08,6.08,6.08,6.08,6.08,6.08,6.08,6.08,6.08,6.0973,6.1793,6.2005,6.2024,6.2082,6.3243,6.4436,6.4493,6.5166,6.5801,6.5801,6.5859,6.5897,6.5897,6.5897,6.5897,6.5897,6.5897,6.5897,6.5897,6.5897,6.5897,6.5897,6.5897,6.5897,6.5897,6.5897,6.5897,6.5897,6.5897,6.5897,6.5897,6.5897,6.5897,6.5897,6.5897,6.5897,6.5897,6.5897,6.5897,6.5897,6.5089,6.4666,6.4589,6.3782,6.2954,3.9101,3.9297,3.977,4.0741,0.0,0.0,0.0,0.0,0.0,0.0,0.0,0.0,0.0,0.0,0.0,0.0,0.0,4.3557,4.5442,4.5717,4.6377,4.8085,4.8208,4.809,4.8012,4.7945,4.7925,4.7992,4.805,4.8209,4.8477,4.8694,4.8999,4.9483,4.9688,5.0766,5.2785,5.2666,5.3569,5.5504,5.5371,5.5444,5.5703,5.5703,5.5703,5.5703,5.5703,5.5703,5.5799,5.7223,5.7992,5.8434,5.9781,6.0512,6.08,6.08,6.08,6.08,6.08,6.08,6.08,6.08,6.08,6.08,6.08,6.08,6.0973,6.1851,6.2454,6.2974,6.3512,6.4128,6.4743,6.5282,6.5647,6.5897,6.5897,6.5897,6.5897,6.5897,6.5897,6.5897,6.5897,6.5897,6.5897,6.5897,6.5897,6.5897,6.5897,6.5897,6.5897,6.5897,6.5897,6.5897,6.5897,6.5897,6.5667,6.5128,6.559,6.5897,6.5897,6.5897,6.5897,6.5897,6.5378,6.5089,6.5089,6.4224,6.3531,6.3031,6.2704,6.2089,3.9316,3.9651,0.0,0.0,0.0,0.0,0.0,0.0,0.0,0.0,0.0,0.0,0.0,0.0,0.0,0.0,4.2709,4.3371,4.4982,4.5439,4.6172,4.7736,4.8081,4.8168,4.807,4.7988,4.7947,4.7992,4.8032,4.8111,4.8267,4.8514,4.8799,4.9129,4.9608,5.0762,5.2622,5.2748,5.3712,5.5444,5.5345,5.5444,5.5703,5.5703,5.5703,5.5703,5.5703,5.5857,5.6222,5.7684,5.8607,5.9204,6.0339,6.08,6.08,6.08,6.08,6.08,6.08,6.08,6.08,6.08,6.08,6.08,6.08,6.0993,6.1377,6.2243,6.307,6.3916,6.4782,6.5013,6.5166,6.5763,6.5897,6.5897,6.5897,6.5897,6.5897,6.5897,6.5897,6.5897,6.5897,6.5897,6.5897,6.5897,6.5897,6.5897,6.5897,6.5897,6.5897,6.5897,6.5416,6.5186,6.5474,6.5243,6.482,6.4224,6.4743,6.5205,6.5474,6.5493,6.5493,6.5493,6.4897,6.4455,6.4185,6.3339,6.2647,6.2101,6.1831,6.1358,3.9797,4.0101,0.0,0.0,0.0,0.0,0.0,0.0,0.0,0.0,0.0,0.0,0.0,0.0,0.0,0.0,4.2609,4.3017,4.4235,4.5093,4.5971,4.6984,4.7751,4.8187,4.8187,4.809,4.7992,4.7992,4.811,4.8187,4.8187,4.8267,4.8439,4.8799,4.9578,5.0757,5.2267,5.2961,5.3977,5.5294,5.5294,5.5444,5.5703,5.5703,5.5703,5.5703,5.5703,5.6195,5.708,5.7953,5.93,6.08,6.08,6.08,6.08,6.08,6.08,6.08,6.08,6.08,6.08,6.08,6.08,6.08,6.08,6.1408,6.2274,6.307,6.3935,6.4801,6.5667,6.5897,6.5897,6.5897,6.5897,6.5897,6.5897,6.5897,6.5897,6.5897,6.5897,6.5897,6.5897,6.5897,6.5897,6.5897,6.5897,6.5897,6.5878,6.5878,6.5878,6.5878,6.4339,6.3666,6.4512,6.3801,6.3288,6.3288,6.3288,6.3685,6.457,6.4589,6.4589,6.4609,6.4589,6.4147,6.3288,6.2474,6.2101,6.2082,6.1204,6.08,4.014,0.0,0.0,0.0,0.0,0.0,0.0,0.0,0.0,0.0,0.0,0.0,0.0,0.0,0.0,0.0,4.2389,4.2819,4.4007,4.4883,4.5799,4.6965,4.7791,4.8247,4.8207,4.8168,4.809,4.8012,4.805,4.809,4.8187,4.8226,4.8402,4.8799,4.9578,5.0757,5.2267,5.2961,5.3977,5.5294,5.5294,5.5395,5.5562,5.5671,5.5703,5.5703,5.5703,5.6195,5.7118,5.855,5.98,6.08,6.08,6.08,6.08,6.08,6.08,6.08,6.08,6.08,6.08,6.08,6.08,6.08,6.08,6.1408,6.2274,6.307,6.3935,6.4801,6.5667,6.5897,6.5897,6.5897,6.5897,6.5897,6.5897,6.5897,6.5897,6.5897,6.5897,6.5897,6.5897,6.5897,6.5897,6.5897,6.5897,6.5686,6.5051,6.5513,6.5436,6.4205,6.4166,6.407,6.3724,6.3455,6.307,6.2493,6.2993,6.3685,6.457,6.4012,6.3974,6.4589,6.3435,6.2704,6.2454,6.1589,6.1185,6.1166,6.0916,6.08,4.0562,0.0,0.0,0.0,0.0,0.0,0.0,0.0,0.0,0.0,0.0,0.0,0.0,0.0,0.0,4.2308,4.2308,4.2591,4.3397,4.4547,4.5612,4.6412,4.757,4.8287,4.8228,4.8207,4.813,4.8012,4.7992,4.805,4.8128,4.8168,4.8306,4.8586,4.9732,5.0838,5.1892,5.3029,5.4066,5.5014,5.5216,5.5345,5.5432,5.5607,5.5703,5.5742,5.6434,5.703,5.7646,5.9319,6.0319,6.08,6.08,6.08,6.08,6.08,6.08,6.08,6.08,6.08,6.08,6.08,6.08,6.0858,6.1204,6.1897,6.2743,6.3589,6.4436,6.5243,6.5763,6.5897,6.5897,6.5897,6.5897,6.5897,6.5897,6.5897,6.5897,6.5897,6.5897,6.5897,6.5897,6.5897,6.5897,6.5897,6.5897,6.559,6.4705,6.4762,6.4455,6.3404,6.3166,6.3012,6.2839,6.2512,6.2243,6.212,6.2224,6.2839,6.4032,6.3589,6.3397,6.3589,6.262,6.1928,6.1581,6.105,6.08,6.08,6.08,6.0993,4.1045,0.0,0.0,0.0,0.0,0.0,0.0,0.0,0.0,0.0,0.0,0.0,0.0,0.0,4.2308,4.2308,4.2308,4.2369,4.257,4.4139,4.5352,4.5566,4.7182,4.8287,4.8306,4.8228,4.813,4.8012,4.7992,4.7992,4.7992,4.8128,4.8208,4.8287,4.9939,5.0945,5.1304,5.3086,5.4192,5.4613,5.5061,5.5281,5.5307,5.5573,5.5703,5.5799,5.755,5.83,5.8434,6.0108,6.08,6.08,6.08,6.08,6.08,6.08,6.08,6.08,6.08,6.08,6.08,6.08,6.08,6.0954,6.1851,6.2666,6.3481,6.4359,6.5224,6.5897,6.5897,6.5897,6.5897,6.5897,6.5897,6.5897,6.5897,6.5897,6.5897,6.5897,6.5897,6.5897,6.5897,6.5897,6.5897,6.5897,6.5897,6.5551,6.4609,6.3858,6.3339,6.3108,6.1781,6.1204,6.1928,6.1262,6.1127,6.1928,6.13,6.157,6.3012,6.307,6.2762,6.212,6.2024,6.1601,6.08,6.08,6.08,6.08,6.0954,6.1454,0.0,4.1108,0.0,0.0,0.0,0.0,0.0,0.0,0.0,0.0,0.0,0.0,0.0,4.2308,4.2308,4.2308,4.2308,4.2369,4.257,4.4018,4.521,4.5565,4.7046,4.8131,4.8287,4.8228,4.813,4.8012,4.7947,4.7927,4.7992,4.8012,4.8111,4.8287,4.9939,5.0945,5.1304,5.3086,5.4192,5.4594,5.4962,5.5203,5.5307,5.5573,5.5703,5.5799,5.755,5.83,5.8434,6.0108,6.08,6.08,6.08,6.08,6.08,6.08,6.08,6.08,6.08,6.08,6.08,6.08,6.08,6.0954,6.1851,6.2666,6.3481,6.4359,6.5224,6.5897,6.5897,6.5897,6.5897,6.5897,6.5897,6.5897,6.5897,6.5897,6.5897,6.5897,6.5897,6.5897,6.5897,6.5897,6.5897,6.5897,6.5897,6.534,6.3782,6.4012,6.3551,6.155,6.1627,6.162,6.1108,6.0916,6.0877,6.1069,6.1562,6.1678,6.1358,6.1339,6.157,6.2101,6.1416,6.0993,6.08,6.08,6.08,6.0819,6.2147,6.2858,0.0,0.0,0.0,0.0,0.0,0.0,0.0,0.0,0.0,0.0,0.0,0.0,4.2308,4.2308,4.2308,4.2308,4.2308,4.2471,4.2967,4.4168,4.5274,4.5956,4.7185,4.8072,4.8287,4.8189,4.807,4.8012,4.7886,4.7845,4.7992,4.7992,4.8092,4.8287,4.9939,5.0865,5.1062,5.3014,5.4104,5.4313,5.484,5.5203,5.5408,5.5607,5.5703,5.5799,5.755,5.83,5.8434,6.0108,6.08,6.08,6.08,6.08,6.08,6.08,6.08,6.08,6.08,6.08,6.08,6.08,6.08,6.1031,6.2281,6.2974,6.357,6.4859,6.5551,6.5897,6.5897,6.5897,6.5897,6.5897,6.5897,6.5897,6.5897,6.5897,6.5897,6.5897,6.5897,6.5897,6.5897,6.5897,6.5763,6.534,6.5282,6.4666,6.2954,6.3128,6.2724,6.0993,6.1204,6.1281,6.0839,6.08,6.0973,6.1408,6.1466,6.1466,6.1416,6.1012,6.1012,6.1466,6.1031,6.08,6.08,6.1235,6.1608,6.2031,6.332,6.4359,0.0,0.0,0.0,0.0,0.0,0.0,0.0,0.0,0.0,0.0,0.0,4.2308,4.2308,4.2308,4.2308,4.2308,4.2412,4.2733,4.3411,4.4438,4.5477,4.6395,4.7359,4.8032,4.8287,4.8131,4.8012,4.7992,4.7845,4.7804,4.7992,4.7992,4.8165,4.8526,4.9994,5.0875,5.1004,5.2995,5.3997,5.4015,5.4776,5.5255,5.5468,5.5618,5.578,5.6011,5.7607,5.8377,5.8627,6.0165,6.08,6.08,6.08,6.08,6.08,6.08,6.08,6.08,6.08,6.08,6.08,6.08,6.0896,6.13,6.2839,6.3404,6.3858,6.5455,6.5897,6.5897,6.5897,6.5897,6.5897,6.5897,6.5897,6.5897,6.5897,6.5897,6.5897,6.5897,6.5897,6.5897,6.5897,6.5782,6.5436,6.4705,6.4474,6.382,6.2312,6.2101,6.1774,6.0877,6.08,6.08,6.08,6.08,6.1108,6.1831,6.1204,6.1108,6.1851,6.1166,6.0858,6.1012,6.1012,6.1012,6.1031,6.1877,6.2724,6.3551,6.457,6.5859,0.0,0.0,0.0,0.0,0.0,0.0,0.0,0.0,0.0,0.0,4.2308,4.2308,4.2308,4.2308,4.2308,4.2308,4.2876,4.3393,4.3479,4.4771,4.5896,4.6447,4.7234,4.7888,4.8267,4.8228,4.8128,4.8012,4.7907,4.7904,4.7992,4.7992,4.844,4.9389,5.0325,5.1132,5.183,5.3274,5.3997,5.4015,5.488,5.5294,5.5333,5.5585,5.6107,5.6887,5.7877,5.8704,5.9415,6.0396,6.08,6.08,6.08,6.08,6.08,6.08,6.08,6.08,6.08,6.08,6.08,6.08,6.13,6.2101,6.3031,6.3839,6.4628,6.5609,6.5897,6.5897,6.5897,6.5897,6.5897,6.5897,6.5897,6.5897,6.5897,6.5897,6.5897,6.5897,6.5897,6.5897,6.5897,6.5263,6.4724,6.4628,6.3955,6.3147,6.2216,6.2101,6.1774,6.0877,6.08,6.08,6.08,6.08,6.0839,6.0973,6.0858,6.0839,6.0973,6.0858,6.1146,6.1908,6.1928,6.1928,6.1928,6.2743,6.3589,6.4455,6.6032,6.7282,4.0083,3.8881,3.7831,0.0,0.0,0.0,0.0,0.0,0.0,4.1559,4.2086,4.2308,4.2308,4.2308,4.2468,4.2894,4.3268,4.3782,4.4678,4.5374,4.6139,4.706,4.7482,4.7866,4.8267,4.8228,4.813,4.8012,4.7945,4.7925,4.7992,4.7992,4.8495,4.9574,5.038,5.1187,5.1977,5.333,5.4176,5.4498,5.5061,5.5294,5.5307,5.5573,5.6175,5.706,5.7915,5.8761,5.9569,6.0435,6.08,6.08,6.08,6.08,6.08,6.08,6.08,6.08,6.08,6.08,6.08,6.08,6.1389,6.2255,6.307,6.3916,6.4782,6.5647,6.5897,6.5897,6.5897,6.5897,6.5897,6.5897,6.5897,6.5897,6.5897,6.5897,6.5897,6.5897,6.5897,6.5897,6.5897,6.5186,6.4436,6.3955,6.3166,6.232,6.1473,6.1358,6.1223,6.0839,6.08,6.08,6.08,6.08,6.08,6.08,6.08,6.1012,6.1524,6.1543,6.1916,6.2762,6.232,6.232,6.2781,6.4109,6.5186,6.6032,6.7763,6.8994,0.0,0.0,3.7545,3.7108,0.0,0.0,0.0,0.0,3.9923,0.0,4.1749,4.2157,4.2352,4.251,4.2804,4.3411,4.3839,4.45,4.5641,4.598,4.6498,4.7563,4.7717,4.7866,4.8267,4.8247,4.8149,4.8012,4.7947,4.7947,4.7992,4.7992,4.8585,4.9848,5.049,5.1279,5.2289,5.3423,5.4296,5.4901,5.5162,5.5294,5.5307,5.5573,5.6299,5.7368,5.8011,5.8877,5.9877,6.0531,6.08,6.08,6.08,6.08,6.08,6.08,6.08,6.08,6.08,6.08,6.08,6.08,6.1531,6.2512,6.3128,6.407,6.507,6.5724,6.5897,6.5897,6.5897,6.5897,6.5897,6.5897,6.5897,6.5897,6.5897,6.5897,6.5897,6.5897,6.5897,6.582,6.5609,6.4859,6.3974,6.3128,6.23,6.1543,6.0877,6.08,6.08,6.08,6.08,6.08,6.08,6.08,6.08,6.08,6.1012,6.1416,6.2082,6.2312,6.2781,6.3608,6.3031,6.3031,6.3628,6.5359,6.6628,6.7475,6.8994,7.0129,0.0,3.8052,0.0,3.6965,0.0,0.0,0.0,0.0,0.0,4.0582,4.1202,4.1767,4.2545,4.3093,4.3444,4.3479,4.4732,4.5713,4.5802,4.6462,4.7125,4.7636,4.7717,4.7866,4.8267,4.8287,4.8209,4.8012,4.7992,4.7992,4.7992,4.7992,4.8841,5.0692,5.0784,5.1555,5.3112,5.372,5.4296,5.4901,5.5162,5.5294,5.5307,5.5573,5.6626,5.8223,5.828,5.9223,6.0742,6.0781,6.08,6.08,6.08,6.08,6.08,6.08,6.08,6.08,6.08,6.08,6.08,6.08,6.1916,6.325,6.3288,6.4493,6.584,6.5878,6.5897,6.5897,6.5897,6.5897,6.5897,6.5897,6.5897,6.5897,6.5897,6.5897,6.5897,6.5897,6.5897,6.5628,6.4801,6.3935,6.3089,6.2281,6.1416,6.0839,6.08,6.08,6.08,6.08,6.08,6.08,6.08,6.08,6.08,6.08,6.1581,6.2062,6.2101,6.2839,6.3647,6.4532,6.4493,6.4493,6.4551,6.6224,6.7475,6.8359,6.9263,7.0129,0.0,0.0,0.0,3.6997,3.6989,3.7257,3.8659,3.8996,3.9244,4.0124,4.0689,4.1191,4.1597,4.2376,4.3381,4.4737,4.5159,4.5599,4.6453,4.6819,4.716,4.7636,4.7717,4.7866,4.8267,4.8306,4.8248,4.8148,4.805,4.8032,4.811,4.805,4.8859,5.0727,5.0802,5.1597,5.3322,5.3758,5.4176,5.4533,5.5061,5.5294,5.5307,5.5573,5.6646,5.83,5.83,5.9242,6.08,6.08,6.08,6.08,6.08,6.08,6.08,6.08,6.08,6.08,6.08,6.08,6.08,6.08,6.1935,6.3288,6.3288,6.4532,6.5897,6.5897,6.5897,6.5897,6.5897,6.5897,6.5897,6.5897,6.5897,6.5897,6.5897,6.5897,6.5897,6.5897,6.5897,6.5801,6.5493,6.4262,6.3192,6.2916,6.1685,6.08,6.08,6.08,6.08,6.08,6.08,6.08,6.08,6.08,6.1031,6.1601,6.1928,6.257,6.3666,6.3974,6.4551,6.5416,6.5436,6.5686,6.6205,6.7378,6.8379,6.9244,7.009,7.0629,0.0,0.0,0.0,0.0,0.0,3.7209,3.8391,0.0,3.8982,3.9613,4.0153,4.0732,4.1374,4.2037,4.3088,4.4924,4.5334,4.571,4.6613,4.6888,4.7138,4.7511,4.7636,4.7845,4.817,4.8267,4.8248,4.813,4.805,0.0,4.813,4.805,4.8859,5.0727,5.1334,5.2171,5.3388,5.3796,5.4122,5.4361,5.5014,5.532,5.5371,5.5596,5.6646,5.83,5.83,5.9242,6.08,6.08,6.08,6.08,6.08,6.08,6.08,6.08,6.08,6.08,6.08,6.08,6.0839,6.1127,6.2166,6.3346,6.3647,6.4743,6.5897,6.5897,6.5897,6.5897,6.5897,6.5897,6.5897,6.5897,6.5897,6.591,6.594,6.5916,6.5897,6.5897,6.5897,6.5801,6.5513,6.4262,6.3224,6.2935,6.1704,6.08,6.08,6.08,6.08,6.08,6.08,6.08,6.08,6.08,6.1166,6.2043,6.2339,6.3128,6.4551,6.4878,6.5301,6.5878,6.5897,6.6436,6.7532,6.8129,6.8859,6.9706,7.0244,7.0341,0.0,0.0,0.0,0.0,0.0,0.0,3.7807,0.0,3.8544,3.9164,3.9644,4.0434,4.1974,4.2209,4.2596,4.3838,4.5246,4.6161,4.6186,4.6637,4.7048,4.7258,4.7533,4.7783,4.7972,4.819,4.8209,4.8012,4.7992,4.7992,4.8012,4.8048,4.8934,5.0727,5.2341,5.3274,5.3407,5.3796,5.4173,5.4503,5.5037,5.5371,5.5504,5.5629,5.6646,5.83,5.83,5.9242,6.08,6.08,6.08,6.08,6.08,6.08,6.08,6.08,6.08,6.08,6.08,6.08,6.0935,6.1831,6.2647,6.3462,6.4339,6.5205,6.5897,6.5897,6.5897,6.5897,6.5897,6.5897,6.5897,6.591,6.591,6.5916,6.599,6.5958,6.591,6.591,6.5891,6.5602,6.4756,6.3871,6.3005,6.2216,6.1351,6.0793,6.0812,6.0812,6.0812,6.0812,6.0812,6.0812,6.08,6.0819,6.1204,6.2082,6.2897,6.3743,6.4609,6.5455,6.5897,6.5897,6.5897,6.6724,6.8385,6.8385,6.8859,6.9706,6.9667,6.9186,3.9101,0.0,0.0,0.0,0.0,0.0,0.0,0.0,3.8014,3.8772,3.9034,3.9504,4.0711,4.1311,4.1922,4.2808,4.4061,4.5258,4.607,4.6332,4.6643,4.7236,4.7533,4.7783,4.7972,4.819,4.8267,0.0,4.8052,4.8032,4.8148,4.9343,5.0265,5.0784,5.2341,5.3274,5.3407,5.3796,5.4173,5.4503,5.5037,5.5371,5.5504,5.5629,5.6646,5.83,5.83,5.9242,6.08,6.08,6.08,6.08,6.08,6.08,6.08,6.08,6.08,6.08,6.08,6.08,6.0935,6.1831,6.2647,6.3462,6.4339,6.5205,6.5897,6.5897,6.5897,6.5897,6.5897,6.5897,6.5903,6.595,6.5953,6.594,6.6121,6.6047,6.6009,6.6099,6.5542,6.4976,6.4833,6.3608,6.2576,6.2344,6.148,6.0918,6.1001,6.092,6.0867,6.0867,6.0867,6.0853,6.0793,6.1377,6.2089,6.2916,6.3782,6.4628,6.5493,6.5763,6.5897,6.5897,6.5897,6.6724,6.8385,6.8385,6.8859,6.9687,6.9052,6.8302,0.0,0.0,0.0,0.0,0.0,0.0,3.7335,3.7536,3.7779,3.8633,3.89,3.9298,4.0233,4.0713,4.1326,4.2324,4.3367,4.434,4.5188,4.6024,4.6583,4.6655,4.727,4.7741,4.7868,4.8131,4.8248,4.813,4.8032,4.8032,4.811,4.9823,5.0802,5.0802,5.232,5.3127,5.3138,5.3701,5.4067,5.435,5.499,5.5408,5.5585,5.5651,5.6646,5.83,5.83,5.9242,6.08,6.08,6.08,6.08,6.08,6.08,6.08,6.08,6.08,6.08,6.08,6.08,6.0993,6.2204,6.2916,6.3519,6.4762,6.5493,6.5897,6.5897,6.5897,6.5897,6.5897,6.5916,6.5958,6.599,6.6009,6.6055,6.6215,6.6165,6.6102,6.6175,6.5438,6.4807,6.4889,6.3506,6.2394,6.2394,6.1582,6.1002,6.1089,6.1022,6.0982,6.0982,6.0982,6.1095,6.1373,6.1863,6.2629,6.3762,6.432,6.4993,6.5859,6.5897,6.5897,6.5897,6.5897,6.6551,6.7859,6.7859,6.8129,6.859,6.809,6.7417,0.0,0.0,0.0,0.0,0.0,0.0,3.7091,3.7317,3.7584,3.843,3.8785,3.9218,4.01,4.0249,4.0724,4.2083,4.2953,4.3603,4.4156,4.5785,4.6684,4.6016,4.6949,4.7675,4.7696,4.8032,4.8209,4.8032,4.8012,4.8048,4.8119,4.9819,5.0839,5.093,5.2276,5.2959,5.2872,5.3564,5.3996,5.4176,5.4952,5.5456,5.5703,5.5703,5.6646,5.83,5.83,5.9242,6.08,6.08,6.08,6.08,6.08,6.08,6.08,6.08,6.08,6.08,6.08,6.08,6.1069,6.2762,6.3288,6.3628,6.5378,6.5897,6.5897,6.5897,6.5897,6.5897,6.5897,6.5958,6.6013,6.6024,6.6112,6.6215,6.6299,6.6263,6.6225,6.6235,6.5451,6.4783,6.4793,6.341,6.2287,6.2287,6.162,6.1117,6.1126,6.1117,6.1117,6.1117,6.1117,6.1418,6.2135,6.2279,6.2987,6.4493,6.4686,6.5089,6.5859,6.5897,6.5897,6.5897,6.607,6.6436,6.6974,6.7148,6.7186,6.709,6.7013,6.6571,0.0,0.0,0.0,0.0,0.0,0.0,3.6367,3.641,3.663,3.7302,3.7096,3.7312,3.898,3.9406,3.9877,4.0976,4.25,4.3907,4.4914,4.5798,4.6448,4.672,4.712,4.745,4.7678,4.7929,4.809,4.8168,4.8168,4.8402,4.894,5.0131,5.1096,5.1738,5.2569,5.3091,5.3265,5.3796,5.4255,5.4599,5.5179,5.5539,5.5703,5.5703,5.6646,5.83,5.83,5.9242,6.08,6.08,6.08,6.08,6.08,6.08,6.08,6.08,6.08,6.08,6.08,6.08,6.1069,6.2762,6.3288,6.3628,6.5378,6.5897,6.5897,6.5897,6.5897,6.5897,6.5897,6.5958,6.6036,6.6153,6.6184,6.6254,6.6414,6.6381,6.6318,6.6426,6.5134,6.4061,6.4155,6.2746,6.1601,6.1601,6.1352,6.122,6.1322,6.1255,6.1175,6.1175,6.1175,6.1454,6.2146,6.2838,6.3623,6.4544,6.5263,6.5724,6.5878,6.5897,6.5897,6.5897,6.7225,6.734,6.6128,6.7494,6.7782,6.7071,6.6436,6.6051,0.0,0.0,0.0,3.6301,0.0,0.0,0.0,3.6255,3.6288,3.6904,3.6832,3.7065,3.8362,3.8804,3.9354,4.0588,4.2064,4.3465,4.4673,4.5626,4.624,4.6399,4.6914,4.7363,4.749,4.7809,4.8032,4.809,4.8168,4.8495,4.9159,5.0222,5.1169,5.1958,5.2578,5.3045,5.33,5.3605,5.403,5.4553,5.5021,5.5406,5.5703,5.5703,5.6646,5.83,5.83,5.9242,6.08,6.08,6.08,6.08,6.08,6.08,6.08,6.08,6.08,6.08,6.08,6.08,6.1069,6.2762,6.3288,6.3628,6.5378,6.5897,6.5897,6.5897,6.5897,6.5897,6.5897,6.6005,6.6112,6.6175,6.6283,6.6383,6.6474,6.6458,6.6422,6.6481,6.5099,6.3919,6.3995,6.2546,6.1393,6.1393,6.1344,6.1318,6.1393,6.1344,6.1302,6.1302,6.1691,6.22,6.2847,6.3696,6.4489,6.5198,6.5647,6.5897,6.5897,6.5897,6.609,6.6494,6.7744,6.7782,6.6494,6.7782,6.7744,6.6494,6.609,6.5897,0.0,0.0,0.0,0.0,0.0,3.6067,0.0,0.0,0.0,3.6752,3.6793,0.0,0.0,0.0,0.0,0.0,0.0,0.0,0.0,4.5303,0.0,4.6043,4.6766,4.7276,4.7363,4.779,4.8052,4.8032,4.8149,4.8588,4.9419,5.0334,5.1242,5.2197,5.2586,5.2934,5.3209,5.3365,5.374,5.4331,5.4819,5.5263,5.5618,5.5682,5.6646,5.83,5.83,5.9242,6.08,6.08,6.08,6.08,6.08,6.08,6.08,6.08,6.08,6.08,6.08,6.08,6.1069,6.2762,6.3531,6.407,6.5474,6.5897,6.5897,6.5897,6.5897,6.5897,6.5897,6.6052,6.6205,6.6205,6.6338,6.6508,6.6508,6.6508,6.6508,6.6508,6.5149,6.4003,6.4003,6.2546,6.1393,6.1393,6.1393,6.1393,6.1393,6.1548,6.1645,6.1645,6.2429,6.3204,6.3845,6.4522,6.5224,6.587,6.5916,6.5903,6.5897,6.5897,6.6282,6.7071,6.7955,6.7975,6.709,6.7975,6.7552,6.5897,6.5897,6.5897,0.0,0.0,0.0,0.0,3.636,0.0,0.0,0.0,3.6144,3.6403,0.0,0.0,0.0,0.0,0.0,0.0,0.0,0.0,4.4135,4.4829,4.5635,4.672,4.6949,4.7201,4.7615,4.803,4.8229,4.8187,4.8247,4.8926,5.0364,5.0668,5.1499,5.3023,5.2897,5.2934,5.3209,5.3451,5.374,5.405,5.4871,5.5301,5.5351,5.5596,5.6646,5.83,5.83,5.9242,6.08,6.08,6.08,6.08,6.08,6.08,6.08,6.08,6.08,6.08,6.08,6.08,6.1069,6.2762,6.4359,6.5628,6.584,6.5897,6.5897,6.5897,6.5897,6.5897,6.5897,6.6052,6.6205,6.6205,6.6338,6.6508,6.6508,6.6508,6.6508,6.6508,6.5149,6.4003,6.4003,6.2546,6.1393,6.1393,6.1393,6.1393,6.1393,6.208,6.2546,6.2546,6.3323,6.414,6.4875,6.5021,6.5345,6.5944,6.599,6.5962,6.591,6.5897,6.6282,6.7071,6.7955,6.7975,6.709,6.7975,6.7552,6.5897,6.5897,6.5897,0.0,0.0,0.0,0.0,0.0,0.0,3.6381,0.0,3.6053,0.0,0.0,0.0,0.0,0.0,0.0,0.0,4.1483,0.0,0.0,0.0,4.5405,0.0,0.0,0.0,4.7657,4.797,4.8149,4.8187,4.8267,4.8963,5.0531,5.0723,5.1555,5.3148,5.2934,5.298,5.3378,5.3346,5.3587,5.4193,5.4742,5.5111,5.5314,5.5585,5.6646,5.83,5.83,5.9242,6.08,6.08,6.08,6.08,6.08,6.08,6.08,6.08,6.08,6.08,6.08,6.08,6.1069,6.2762,6.4474,6.5897,6.5897,6.5897,6.5897,6.5897,6.5897,6.5897,6.5897,6.6052,6.6205,6.6205,6.6338,6.6508,6.6508,6.6508,6.6508,6.6508,6.5518,6.4547,6.408,6.2546,6.1393,6.1393,6.1393,6.1568,6.2099,6.2468,6.2896,6.3401,6.4197,6.4765,6.4967,6.5451,6.5787,6.5938,6.5946,6.594,6.5897,6.5897,6.6513,6.784,6.8225,6.8225,6.7859,6.8225,6.7552,6.5897,6.5897,6.5897,3.6456,0.0,0.0,0.0,0.0,0.0,0.0,0.0,0.0,0.0,0.0,0.0,0.0,0.0,0.0,0.0,0.0,4.2745,0.0,4.4361,0.0,0.0,0.0,0.0,0.0,4.7783,4.8111,4.8226,4.8286,4.8983,5.0572,5.0762,5.1555,5.3148,5.2999,5.3088,5.3499,5.332,5.3545,5.4178,5.4495,5.4836,5.5164,5.5461,5.659,5.83,5.83,5.9242,6.08,6.08,6.08,6.08,6.08,6.08,6.08,6.08,6.08,6.08,6.08,6.1089,6.1685,6.2897,6.4474,6.5897,6.5897,6.5897,6.5897,6.5897,6.5897,6.591,6.5928,6.6055,6.6195,6.6225,6.6383,6.6508,6.6508,6.6508,6.6508,6.6508,6.5809,6.4935,6.4139,6.276,6.1684,6.1432,6.1606,6.1983,6.2624,6.3109,6.3634,6.4255,6.5071,6.5502,6.5344,6.5877,6.6134,6.5933,6.5903,6.5897,6.5897,6.5897,6.6686,6.8379,6.8385,6.8385,6.8385,6.8385,6.7552,6.5897,6.5897,6.5897,0.0,0.0,0.0,3.6301,0.0,0.0,0.0,0.0,3.7009,0.0,0.0,0.0,0.0,0.0,0.0,0.0,0.0,0.0,0.0,0.0,0.0,0.0,0.0,0.0,0.0,4.7615,4.8287,4.8287,4.8306,4.904,5.071,5.0802,5.1555,5.3148,5.3188,5.3295,5.3499,5.3499,5.3599,5.3813,5.4161,5.4495,5.4821,5.5164,5.6407,5.83,5.83,5.9242,6.08,6.08,6.08,6.08,6.08,6.08,6.08,6.08,6.08,6.08,6.08,6.1858,6.3231,6.3269,6.4474,6.5897,6.5897,6.5897,6.5897,6.5897,6.5897,6.5903,6.5967,6.6091,6.6215,6.6272,6.6406,6.6508,6.6508,6.6508,6.6508,6.6508,6.5809,6.4935,6.4139,6.3245,6.2371,6.1529,6.2119,6.2663,6.2701,6.4119,6.5122,6.5161,6.5945,6.647,6.6443,6.637,6.6216,6.6013,6.5953,6.5897,6.5897,6.5897,6.6686,6.8379,6.8385,6.8385,6.8385,6.8385,6.7552,6.5897,6.5897,6.5897,0.0,0.0,3.6564,3.6564,0.0,0.0,0.0,0.0,0.0,0.0,0.0,0.0,0.0,0.0,0.0,0.0,0.0,0.0,0.0,0.0,0.0,0.0,0.0,0.0,0.0,0.0,4.8247,4.8287,4.8267,4.898,5.071,5.0802,5.1577,5.3219,5.3212,5.3334,5.3636,5.3539,5.3599,5.3813,5.4364,5.4685,5.4821,5.5332,5.6568,5.83,5.83,5.9242,6.08,6.08,6.08,6.08,6.08,6.08,6.08,6.08,6.08,6.0877,6.1466,6.2377,6.3397,6.3974,6.4955,6.5897,6.5897,6.5897,6.5897,6.5897,6.5897,6.5916,6.5978,6.6102,6.6215,6.6281,6.6406,6.6508,6.6508,6.6508,6.6508,6.6508,6.6256,6.5615,6.4236,6.4197,6.3886,6.2468,6.2507,6.3109,6.4216,6.485,6.5413,6.6003,6.6314,6.6466,6.637,6.6196,6.6039,6.5933,6.5903,6.5897,6.5897,6.5897,6.6686,6.8379,6.8385,6.8385,6.8385,6.8385,6.7552,6.5897,6.5897,6.5897,3.6643,3.6745,0.0,3.6806,3.6998,0.0,3.747,0.0,0.0,0.0,0.0,0.0,0.0,0.0,0.0,0.0,0.0,0.0,0.0,4.3754,0.0,0.0,0.0,0.0,0.0,0.0,4.8247,4.8287,4.8267,4.8871,0.0,5.0637,5.143,5.2839,5.3169,5.3437,5.3694,5.3637,5.3737,5.3981,5.4413,5.4746,5.4981,5.5369,5.6568,5.83,5.83,5.9242,6.08,6.08,6.08,6.08,6.08,6.08,6.08,6.08,6.08,6.0916,6.1812,6.2627,6.3455,6.432,6.5186,6.5897,6.5897,6.5897,6.5897,6.5897,6.5897,6.5928,6.6036,6.6153,6.6225,6.6336,6.6431,6.6508,6.6508,6.6508,6.6508,6.6508,6.6508,6.6062,6.4663,6.4857,6.4617,6.2954,6.3206,6.3983,6.5064,6.5471,6.5887,6.645,6.6508,6.6442,6.6282,6.6146,6.6021,6.591,6.5897,6.5897,6.5897,6.5897,6.6686,6.8379,6.8385,6.8385,6.8385,6.8385,6.7552,6.5897,6.5897,6.5897]}]]